[[{"header":{"parameterUnit":"m.s-1","parameterCategory":1,"la1":31.0,"la2":29.5877,"lo1":-88.7671,"lo2":-86.6584,"dy":0.0162,"dx":0.0185,"nx":115,"ny":88,"refTime":"2024-06-11T06:00:00:Z","depth":0,"parameterNumber":2,"parameterNumberName":"U-component_of_WINDS"},"data":[0.0,0.0,0.0,0.0,0.0,0.0,0.0,0.0,0.0,0.0,0.0,0.0,0.0,0.0,0.0,0.0,0.0,0.0,0.0,0.0,0.0,0.0,0.0,0.0,0.0,0.0,0.0,0.0,0.0,0.0,0.0,0.0,0.0,0.0,0.0,0.0,0.0,0.0,0.0,0.0,0.0,0.0,0.0,0.0,0.0,0.0,0.0,0.0,0.0,0.0,0.0,0.0,0.0,0.0,0.0,0.0,0.0,0.0,0.0,0.0,0.0,0.0,0.0,0.0,0.0,0.0,0.0,0.0,0.0,0.0,0.0,0.0,0.0,0.0,0.0,0.0,0.0,0.0,0.0,0.0,0.0,0.0,0.0,0.0,0.0,0.0,0.0,0.0,0.0,0.0,0.0,0.0,0.0,0.0,0.0,0.0,0.0,0.0,0.0,0.0,0.0,0.0,0.0,0.0,0.0,0.0,0.0,0.0,0.0,0.0,0.0,0.0,0.0,0.0,0.0,0.0,0.0,0.0,0.0,0.0,0.0,0.0,0.0,0.0,0.0,0.0,0.0,0.0,0.0,0.0,0.0,0.0,0.0,0.0,0.0,0.0,0.0,0.0,0.0,0.0,0.0,0.0,0.0,0.0,0.0,0.0,0.0,0.0,0.0,0.0,0.0,0.0,0.0,0.0,0.0,0.0,0.0,0.0,0.0,0.0,0.0,0.0,0.0,0.0,0.0,0.0,0.0,0.0,0.0,0.0,0.0,0.0,0.0,0.0,0.0,0.0,0.0,0.0,0.0,0.0,0.0,0.0,0.0,0.0,0.0,0.0,0.0,0.0,0.0,0.0,0.0,0.0,0.0,0.0,0.0,0.0,0.0,0.0,0.0,0.0,0.0,0.0,0.0,0.0,0.0,0.0,0.0,0.0,0.0,0.0,0.0,0.0,0.0,0.0,0.0,0.0,0.0,0.0,0.0,0.0,0.0,0.0,0.0,0.0,0.0,0.0,0.0,0.0,0.0,0.0,0.0,0.0,0.0,0.0,0.0,0.0,0.0,0.0,0.0,0.0,0.0,0.0,0.0,0.0,0.0,0.0,0.0,0.0,0.0,0.0,0.0,0.0,0.0,0.0,0.0,0.0,0.0,0.0,0.0,0.0,0.0,0.0,0.0,0.0,0.0,0.0,0.0,0.0,0.0,0.0,0.0,0.0,0.0,0.0,0.0,0.0,0.0,0.0,0.0,0.0,0.0,0.0,0.0,0.0,0.0,0.0,0.0,0.0,0.0,0.0,0.0,0.0,0.0,0.0,0.0,0.0,0.0,0.0,0.0,0.0,0.0,0.0,0.0,0.0,0.0,0.0,0.0,0.0,0.0,0.0,0.0,0.0,0.0,0.0,0.0,0.0,0.0,0.0,0.0,0.0,0.0,0.0,0.0,0.0,0.0,0.0,0.0,0.0,0.0,0.0,0.0,0.0,0.0,0.0,0.0,0.0,0.0,0.0,0.0,0.0,0.0,0.0,0.0,0.0,0.0,0.0,0.0,0.0,0.0,0.0,0.0,0.0,0.0,0.0,0.0,0.0,0.0,0.0,0.0,0.0,0.0,0.0,0.0,0.0,0.0,0.0,0.0,0.0,0.0,0.0,0.0,0.0,0.0,0.0,0.0,0.0,0.0,0.0,0.0,0.0,0.0,0.0,0.0,0.0,0.0,0.0,0.0,0.0,0.0,0.0,0.0,0.0,0.0,0.0,0.0,0.0,0.0,0.0,0.0,0.0,0.0,0.0,0.0,0.0,0.0,0.0,0.0,0.0,0.0,0.0,0.0,0.0,0.0,0.0,0.0,0.0,0.0,0.0,0.0,0.0,0.0,0.0,0.0,0.0,0.0,0.0,0.0,0.0,0.0,0.0,0.0,0.0,0.0,0.0,0.0,0.0,0.0,0.0,0.0,0.0,0.0,0.0,0.0,0.0,0.0,0.0,0.0,0.0,0.0,0.0,0.0,0.0,0.0,0.0,0.0,0.0,0.0,0.0,0.0,0.0,0.0,0.0,0.0,0.0,0.0,0.0,0.0,0.0,0.0,0.0,0.0,0.0,0.0,0.0,0.0,0.0,0.0,0.0,0.0,0.0,0.0,0.0,0.0,0.0,0.0,0.0,0.0,0.0,0.0,0.0,0.0,0.0,0.0,0.0,0.0,0.0,0.0,0.0,0.0,0.0,0.0,0.0,0.0,0.0,0.0,0.0,0.0,0.0,0.0,0.0,0.0,0.0,0.0,0.0,0.0,0.0,0.0,0.0,0.0,0.0,0.0,0.0,0.0,0.0,0.0,0.0,0.0,0.0,0.0,0.0,0.0,0.0,0.0,0.0,0.0,0.0,0.0,0.0,0.0,0.0,0.0,0.0,0.0,0.0,0.0,0.0,0.0,0.0,0.0,0.0,0.0,0.0,0.0,0.0,0.0,0.0,0.0,0.0,0.0,0.0,0.0,0.0,0.0,0.0,0.0,0.0,0.0,0.0,0.0,0.0,0.0,0.0,0.0,0.0,0.0,0.0,0.0,0.0,0.0,0.0,0.0,0.0,0.0,0.0,0.0,0.0,0.0,0.0,0.0,0.0,0.0,0.0,0.0,0.0,0.0,0.0,0.0,0.0,0.0,0.0,0.0,0.0,0.0,0.0,0.0,0.0,0.0,0.0,0.0,0.0,0.0,0.0,0.0,0.0,0.0,0.0,0.0,0.0,0.0,0.0,0.0,0.0,0.0,0.0,0.0,0.0,0.0,0.0,0.0,0.0,0.0,0.0,0.0,0.0,0.0,0.0,0.0,0.0,0.0,0.0,0.0,0.0,0.0,0.0,0.0,0.0,0.0,0.0,0.0,0.0,0.0,0.0,0.0,0.0,0.0,0.0,0.0,0.0,0.0,0.0,0.0,0.0,0.0,0.0,0.0,0.0,0.0,0.0,0.0,0.0,0.0,0.0,0.0,0.0,0.0,0.0,0.0,0.0,0.0,0.0,0.0,0.0,0.0,0.0,0.0,0.0,0.0,0.0,0.0,0.0,0.0,0.0,0.0,0.0,0.0,0.0,0.0,0.0,0.0,0.0,0.0,0.0,0.0,0.0,0.0,0.0,0.0,0.0,0.0,0.0,0.0,0.0,0.0,0.0,0.0,0.0,0.0,0.0,0.0,0.0,0.0,0.0,0.0,0.0,0.0,0.0,0.0,0.0,0.0,0.0,0.0,0.0,0.0,0.0,0.0,0.0,0.0,0.0,0.0,0.0,0.0,0.0,0.0,0.0,0.0,0.0,0.0,0.0,0.0,0.0,0.0,0.0,0.0,0.0,0.0,0.0,0.0,0.0,0.0,0.0,0.0,0.0,0.0,0.0,0.0,0.0,0.0,0.0,0.0,0.0,0.0,0.0,0.0,0.0,0.0,0.0,0.0,0.0,0.0,0.0,0.0,0.0,0.0,0.0,0.0,0.0,0.0,0.0,0.0,0.0,0.0,0.0,0.0,0.0,0.0,0.0,0.0,0.0,0.0,0.0,0.0,0.0,0.0,0.0,0.0,0.0,0.0,0.0,0.0,0.0,0.0,0.0,0.0,0.0,0.0,0.0,0.0,0.0,0.0,0.0,0.0,0.0,0.0,0.0,0.0,0.0,0.0,0.0,0.0,0.0,0.0,0.0,0.0,0.0,0.0,0.0,0.0,0.0,0.0,0.0,0.0,0.0,0.0,0.0,0.0,0.0,0.0,0.0,0.0,0.0,0.0,0.0,0.0,0.0,0.0,0.0,0.0,0.0,0.0,0.0,0.0,0.0,0.0,0.0,0.0,0.0,0.0,0.0,0.0,0.0,0.0,0.0,0.0,0.0,0.0,0.0,0.0,0.0,0.0,0.0,0.0,0.0,0.0,0.0,0.0,0.0,0.0,0.0,0.0,0.0,0.0,0.0,0.0,0.0,0.0,0.0,0.0,0.0,0.0,0.0,0.0,0.0,0.0,0.0,0.0,0.0,0.0,0.0,0.0,0.0,0.0,0.0,0.0,0.0,0.0,0.0,0.0,0.0,0.0,0.0,0.0,0.0,0.0,0.0,0.0,0.0,0.0,0.0,0.0,0.0,0.0,0.0,0.0,0.0,0.0,0.0,0.0,0.0,0.0,0.0,0.0,0.0,0.0,0.0,0.0,0.0,0.0,0.0,0.0,0.0,0.0,0.0,0.0,0.0,0.0,0.0,0.0,0.0,0.0,0.0,0.0,0.0,0.0,0.0,0.0,0.0,1.1825,0.0,0.0,0.0,0.0,0.0,0.0,0.0,0.0,0.0,0.0,0.0,0.0,0.0,0.0,0.0,0.0,0.0,0.0,0.0,0.0,0.0,0.0,0.0,0.0,0.0,0.0,0.0,0.0,0.0,0.0,0.0,0.0,0.0,0.0,0.0,0.0,0.0,0.0,0.0,0.0,0.0,0.0,0.0,0.0,0.0,0.0,0.0,0.0,0.0,0.0,0.0,0.0,0.0,0.0,0.0,0.0,0.0,0.0,0.0,0.0,0.0,0.0,0.0,0.0,0.0,0.0,0.0,0.0,0.0,0.0,0.0,0.0,0.0,0.0,0.0,0.0,0.0,0.0,0.0,0.0,0.0,0.0,0.0,0.0,0.0,0.0,0.0,0.0,0.0,0.0,0.0,0.0,0.0,0.0,0.0,0.0,0.0,0.0,0.0,0.0,0.0,0.0,0.0,0.0,0.0,0.0,0.0,0.0,0.0,0.0,1.5197,1.5114,1.3495,1.2486,1.2213,0.0,0.0,0.0,0.0,0.0,0.0,0.0,0.0,0.0,0.0,0.0,0.0,0.0,0.0,0.0,0.0,0.0,0.0,0.0,0.0,0.0,0.0,0.0,0.0,0.0,0.0,0.0,0.0,0.0,0.0,0.0,0.0,0.0,0.0,0.0,0.0,0.0,0.0,0.0,0.0,0.0,0.0,0.0,0.0,0.0,0.0,0.0,0.0,0.0,0.0,0.0,0.0,0.0,0.0,0.0,0.0,0.0,0.0,0.0,0.0,0.0,0.0,0.0,0.0,0.0,0.0,0.0,0.0,0.0,0.0,0.0,0.0,0.0,0.0,0.0,0.0,0.0,0.0,0.0,0.0,0.0,0.0,0.0,0.0,0.0,0.0,0.0,0.0,0.0,0.0,0.0,0.0,0.0,0.0,0.0,0.0,0.0,0.0,0.0,0.0,0.0,0.0,0.0,0.0,0.0,0.0,0.0,0.0,0.0,0.0,0.0,0.0,1.4207,1.2997,1.2057,0.0,0.0,0.0,0.0,0.0,0.0,0.0,0.0,0.0,0.0,0.0,0.0,0.0,0.0,0.0,0.0,0.0,0.0,0.0,0.0,0.0,0.0,0.0,0.0,0.0,0.0,0.0,0.0,0.0,0.0,0.0,0.0,0.0,0.0,0.0,0.0,0.0,0.0,0.0,0.0,0.0,0.0,0.0,0.0,0.0,0.0,0.0,0.0,0.0,0.0,0.0,0.0,0.0,0.0,0.0,0.0,0.0,0.0,0.0,0.0,0.0,0.0,0.0,0.0,0.0,0.0,0.0,0.0,0.0,0.0,0.0,0.0,0.0,0.0,0.0,0.0,0.0,0.0,0.0,0.0,0.0,0.0,0.0,0.0,0.0,0.0,0.0,0.0,0.0,0.0,0.0,0.0,0.0,0.0,0.0,0.0,0.0,0.0,0.0,0.0,0.0,0.0,0.0,0.0,0.0,0.0,0.0,0.0,0.0,0.0,1.583,1.7302,1.6422,0.0,1.0765,0.0,0.0,0.0,0.0,0.0,0.0,0.0,0.0,0.0,0.0,0.0,0.0,0.0,0.0,0.0,0.0,0.0,0.0,0.0,0.0,0.0,0.0,0.0,0.0,0.0,0.0,0.0,0.0,0.0,0.0,0.0,0.0,0.0,0.0,0.0,0.0,0.0,0.0,0.0,0.0,0.0,0.0,0.0,0.0,0.0,0.0,0.0,0.0,0.0,0.0,0.0,0.0,0.0,0.0,0.0,0.0,0.0,0.0,0.0,0.0,0.0,0.0,0.0,0.0,0.0,0.0,0.0,0.0,0.0,0.0,0.0,0.0,0.0,0.0,0.0,0.0,0.0,0.0,0.0,0.0,0.0,0.0,0.0,0.0,0.0,0.0,0.0,0.0,0.0,0.0,0.0,0.0,0.0,0.0,0.0,0.0,0.0,0.0,0.0,0.0,0.0,0.0,0.0,0.0,0.0,0.0,0.0,0.0,0.0,0.0,1.6372,1.7524,1.623,1.5232,0.0,0.0,0.0,0.0,0.0,0.0,0.0,0.0,0.0,0.0,0.0,0.0,0.0,0.0,0.0,0.0,0.0,0.0,0.0,0.0,0.0,0.0,0.0,0.0,0.0,0.0,0.0,0.0,0.0,0.0,0.0,0.0,0.0,0.0,0.0,0.0,0.0,0.0,0.0,0.0,0.0,0.0,0.0,0.0,0.0,0.0,0.0,0.0,0.0,0.0,0.0,0.0,0.0,0.0,0.0,0.0,0.0,0.0,0.0,0.0,0.0,0.0,0.0,0.0,0.0,0.0,0.0,0.0,0.0,0.0,0.0,0.0,0.0,0.0,0.0,0.0,0.0,0.0,0.0,0.0,0.0,0.0,0.0,0.0,0.0,0.0,0.0,0.0,0.0,0.0,0.0,0.0,0.0,0.0,0.0,0.0,0.0,0.0,0.0,0.0,0.0,0.0,0.0,0.0,0.0,0.0,0.0,0.0,0.0,0.0,1.5914,0.0,1.7681,1.6428,1.6276,1.7501,0.0,0.0,0.0,0.0,0.0,0.0,0.0,0.0,0.0,0.0,0.0,0.0,0.0,0.0,0.0,0.0,0.0,0.0,0.0,0.0,0.0,0.0,0.0,0.0,0.0,0.0,0.0,0.0,0.0,0.0,0.0,0.0,0.0,0.0,0.0,0.0,0.0,0.0,0.0,0.0,0.0,0.0,0.0,0.0,0.0,0.0,0.0,0.0,0.0,0.0,0.0,0.0,0.0,0.0,0.0,0.0,0.0,0.0,0.0,0.0,0.0,0.0,0.0,0.0,0.0,0.0,0.0,0.0,0.0,0.0,0.0,0.0,0.0,0.0,0.0,0.0,0.0,0.0,0.0,0.0,0.0,0.0,0.0,0.0,0.0,0.0,0.0,0.0,0.0,0.0,0.0,0.0,0.0,0.0,0.0,0.0,0.0,0.0,0.0,0.0,0.0,0.0,0.0,0.0,0.0,0.0,0.0,0.0,0.0,1.6959,1.6952,1.8504,1.7776,1.7432,0.0,0.0,0.0,0.0,0.0,0.0,0.0,0.0,0.0,0.0,0.0,0.0,0.0,0.0,0.0,0.0,0.0,0.0,0.0,0.0,0.0,0.0,0.0,0.0,0.0,0.0,0.0,0.0,0.0,0.0,0.0,0.0,0.0,0.0,0.0,0.0,0.0,0.0,0.0,0.0,0.0,0.0,0.0,0.0,0.0,0.0,0.0,0.0,0.0,0.0,0.0,0.0,0.0,0.0,0.0,0.0,0.0,0.0,0.0,0.0,0.0,0.0,0.0,0.0,0.0,0.0,0.0,0.0,0.0,0.0,0.0,0.0,0.0,0.0,0.0,0.0,0.0,0.0,0.0,0.0,0.0,0.0,0.0,0.0,0.0,0.0,0.0,0.0,0.0,0.0,0.0,0.0,0.0,0.0,0.0,0.0,0.0,0.0,0.0,0.0,0.0,0.0,0.0,0.0,0.0,0.0,0.0,0.0,0.0,1.3845,1.4816,1.7055,2.0415,1.6996,1.6678,0.0,0.0,0.0,0.0,0.0,0.0,0.0,0.0,0.0,0.0,0.0,0.0,0.0,0.0,0.0,0.0,0.0,0.0,0.0,0.0,0.0,0.0,0.0,0.0,0.0,0.0,0.0,0.0,0.0,0.0,0.0,0.0,0.0,0.0,0.0,0.0,0.0,0.0,0.0,0.0,0.0,0.0,0.0,0.0,0.0,0.0,0.0,0.0,0.0,0.0,0.0,0.0,0.0,0.0,0.0,0.0,0.0,0.0,0.0,0.0,0.0,0.0,0.0,0.0,0.0,0.0,0.0,0.0,0.0,0.0,0.0,0.0,0.0,0.0,0.0,0.0,0.0,0.0,0.0,0.0,0.0,0.0,0.0,0.0,0.0,0.0,0.0,0.0,0.0,0.0,0.0,0.0,0.0,0.0,0.0,0.0,0.0,0.0,0.0,0.0,0.0,0.0,0.0,0.0,0.0,0.0,0.0,0.0,0.0,1.3025,0.0,1.7794,0.0,1.6336,1.5455,0.0,0.0,0.0,0.0,0.0,0.0,0.0,0.0,0.0,0.0,0.0,0.0,0.0,0.0,0.0,0.0,0.0,0.0,0.0,0.0,0.0,0.0,0.0,0.0,0.0,0.0,0.0,0.0,0.0,0.0,0.0,0.0,0.0,0.0,0.0,0.0,0.0,0.0,0.0,0.0,0.0,0.0,0.0,0.0,0.0,0.0,0.0,0.0,0.0,0.0,0.0,0.0,0.0,0.0,0.0,0.0,0.0,0.0,0.0,0.0,0.0,0.0,0.0,0.0,0.0,0.0,0.0,0.0,0.0,0.0,0.0,0.0,0.0,0.0,0.0,0.0,0.0,0.0,0.0,0.0,0.0,0.0,0.0,0.0,0.0,0.0,0.0,0.0,0.0,0.0,0.0,0.0,0.0,0.0,0.0,0.0,0.0,0.0,0.0,0.0,0.0,0.0,0.0,0.0,0.0,0.0,0.0,0.0,1.2238,1.6654,1.8965,1.905,1.6864,1.6013,1.3805,0.0,0.0,0.0,0.0,0.0,0.0,0.0,0.0,0.0,0.0,0.0,0.0,0.0,0.0,0.0,0.0,0.0,0.0,0.0,0.0,0.0,0.0,0.0,0.0,0.0,0.0,0.0,0.0,0.0,0.0,0.0,0.0,0.0,0.0,0.0,0.0,0.0,0.0,0.0,0.0,0.0,0.0,0.0,0.0,0.0,0.0,0.0,0.0,0.0,0.0,0.0,0.0,0.0,0.0,0.0,0.0,0.0,0.0,0.0,0.0,0.0,0.0,0.0,0.0,0.0,0.0,0.0,0.0,0.0,0.0,0.0,0.0,0.0,0.0,0.0,0.0,0.0,0.0,0.0,0.0,0.0,0.0,0.0,0.0,0.0,0.0,0.0,0.0,0.0,0.0,0.0,0.0,0.0,0.0,0.0,0.0,0.0,0.0,0.0,0.0,0.0,0.0,0.0,0.0,0.0,0.0,0.0,0.0,0.0,1.591,1.7049,1.8035,1.8681,1.5431,1.3841,0.0,0.0,0.0,0.0,0.0,0.0,0.0,0.0,0.0,0.0,0.0,0.0,0.0,0.0,0.0,0.0,0.0,0.0,0.0,0.0,0.0,0.0,0.0,0.0,0.0,0.0,0.0,0.0,0.0,0.0,0.0,0.0,0.0,0.0,0.0,0.0,0.0,0.0,0.0,0.0,0.0,0.0,0.0,0.0,0.0,0.0,0.0,0.0,0.0,0.0,0.0,0.0,0.0,0.0,0.0,0.0,0.0,0.0,0.0,0.0,0.0,0.0,0.0,0.0,0.0,0.0,0.0,0.0,0.0,0.0,0.0,0.0,0.0,0.0,0.0,0.0,0.0,0.0,0.0,0.0,0.0,0.0,0.0,0.0,0.0,0.0,0.0,0.0,0.0,0.0,0.0,0.0,0.0,0.0,0.0,0.0,0.0,0.0,0.0,0.0,0.0,0.0,0.0,0.0,0.0,0.0,0.0,0.0,0.0,1.7862,1.9025,1.9794,2.0051,1.7184,1.4999,1.3704,0.0,0.0,0.0,0.0,0.0,0.0,0.0,0.0,0.0,0.0,0.0,0.0,0.0,0.0,0.0,0.0,0.0,0.0,0.0,0.0,0.0,0.0,0.0,0.0,0.0,0.0,0.0,0.0,0.0,0.0,0.0,0.0,0.0,0.0,0.0,0.0,0.0,0.0,0.0,0.0,0.0,0.0,0.0,0.0,0.0,0.0,0.0,0.0,0.0,0.0,0.0,0.0,0.0,0.0,0.0,0.0,0.0,0.0,0.0,0.0,0.0,0.0,0.0,0.0,0.0,0.0,0.0,0.0,0.0,0.0,0.0,0.0,0.0,0.0,0.0,0.0,0.0,0.0,0.0,0.0,0.0,0.0,0.0,0.0,0.0,0.0,0.0,0.0,0.0,0.0,0.0,0.0,0.0,0.0,0.0,0.0,0.0,0.0,0.0,0.0,0.0,0.0,0.0,0.0,0.0,0.0,0.0,0.0,2.1742,2.4153,2.3883,2.0863,2.0547,1.7124,0.0,0.0,0.0,0.0,0.0,0.0,0.0,0.0,0.0,0.0,0.0,0.0,0.0,0.0,0.0,0.0,0.0,0.0,0.0,0.0,0.0,0.0,0.0,0.0,0.0,0.0,0.0,0.0,0.0,0.0,0.0,0.0,0.0,0.0,0.0,0.0,0.0,0.0,0.0,0.0,0.0,0.0,0.0,0.0,0.0,0.0,0.0,0.0,0.0,0.0,0.0,0.0,0.0,0.0,0.0,0.0,0.0,0.0,0.0,0.0,0.0,0.0,0.0,0.0,0.0,0.0,0.0,0.0,0.0,0.0,0.0,0.0,0.0,0.0,0.0,0.0,0.0,0.0,0.0,0.0,0.0,0.0,0.0,0.0,0.0,0.0,0.0,0.0,0.0,0.0,0.0,0.0,0.0,0.0,0.0,0.0,0.0,0.0,0.0,0.0,0.0,0.0,0.0,0.0,0.0,0.0,0.0,0.0,0.0,2.2461,2.6016,2.6606,2.3792,2.0976,1.8864,0.0,0.0,0.0,0.0,0.0,0.0,0.0,0.0,0.0,0.0,0.0,0.0,0.0,0.0,0.0,0.0,0.0,0.0,0.0,0.0,0.0,0.0,0.0,0.0,0.0,0.0,0.0,0.0,0.0,0.0,0.0,0.0,0.0,0.0,0.0,0.0,0.0,0.0,0.0,0.0,0.0,0.0,0.0,0.0,0.0,0.0,0.0,0.0,0.0,0.0,0.0,0.0,0.0,0.0,0.0,0.0,0.0,0.0,0.0,0.0,0.0,0.0,0.0,0.0,0.0,0.0,0.0,0.0,0.0,0.0,0.0,0.0,0.0,0.0,0.0,0.0,0.0,0.0,0.0,0.0,0.0,0.0,0.0,0.0,0.0,0.0,0.0,0.0,0.0,0.0,0.0,0.0,0.0,0.0,0.0,0.0,0.0,0.0,0.0,0.0,0.0,0.0,0.0,0.0,0.0,0.0,0.0,0.0,2.2158,2.3324,2.7098,2.8256,2.6471,2.3226,2.0472,0.0,0.0,0.0,0.0,0.0,0.0,0.0,0.0,0.0,0.0,0.0,0.0,0.0,0.0,0.0,0.0,0.0,0.0,0.0,0.0,0.0,0.0,0.0,0.0,0.0,0.0,0.0,0.0,0.0,0.0,0.0,0.0,0.0,0.0,0.0,0.0,0.0,0.0,0.0,0.0,0.0,0.0,0.0,0.0,0.0,0.0,0.0,0.0,0.0,0.0,0.0,0.0,0.0,0.0,0.0,0.0,0.0,0.0,0.0,0.0,0.0,0.0,0.0,0.0,0.0,0.0,0.0,0.0,0.0,0.0,0.0,0.0,0.0,0.0,0.0,0.0,0.0,0.0,0.0,0.0,0.0,0.0,0.0,0.0,0.0,0.0,0.0,0.0,0.0,0.0,0.0,0.0,0.0,0.0,0.0,0.0,0.0,0.0,0.0,0.0,0.0,0.0,0.0,0.0,0.0,0.0,0.0,0.0,2.259,2.4349,2.7672,2.9088,2.845,2.5894,2.1972,0.0,0.0,0.0,0.0,0.0,0.0,0.0,0.0,0.0,0.0,0.0,0.0,0.0,0.0,0.0,0.0,0.0,0.0,0.0,0.0,0.0,0.0,0.0,0.0,0.0,0.0,0.0,0.0,0.0,0.0,0.0,0.0,0.0,0.0,0.0,0.0,0.0,0.0,0.0,0.0,0.0,0.0,0.0,0.0,0.0,0.0,0.0,0.0,0.0,0.0,0.0,0.0,0.0,0.0,0.0,0.0,0.0,0.0,0.0,0.0,0.0,0.0,0.0,0.0,0.0,0.0,0.0,0.0,0.0,0.0,0.0,0.0,0.0,0.0,0.0,0.0,0.0,0.0,0.0,0.0,0.0,0.0,0.0,0.0,0.0,0.0,0.0,0.0,0.0,0.0,0.0,0.0,0.0,0.0,0.0,0.0,0.0,0.0,0.0,0.0,0.0,0.0,0.0,0.0,0.0,0.0,0.0,0.0,2.3497,2.4805,2.7726,2.8965,2.8336,2.454,2.2287,0.0,0.0,0.0,0.0,0.0,0.0,0.0,0.0,0.0,0.0,0.0,0.0,0.0,0.0,0.0,0.0,0.0,0.0,0.0,0.0,0.0,0.0,0.0,0.0,0.0,0.0,0.0,0.0,0.0,0.0,0.0,0.0,0.0,0.0,0.0,0.0,0.0,0.0,0.0,0.0,0.0,0.0,0.0,0.0,0.0,0.0,0.0,0.0,1.2057,0.0,0.0,0.0,0.0,0.0,0.0,0.0,0.0,0.0,0.0,0.0,0.0,0.0,0.0,0.0,0.0,0.0,0.0,0.0,0.0,0.0,0.0,0.0,0.0,0.0,0.0,0.0,0.0,0.0,0.0,0.0,0.0,0.0,0.0,0.0,0.0,0.0,0.0,0.0,0.0,0.0,0.0,0.0,0.0,0.0,0.0,0.0,0.0,0.0,0.0,0.0,0.0,0.0,0.0,0.0,0.0,0.0,0.0,0.0,2.3103,2.5222,2.7211,2.8143,2.7773,2.4341,2.2428,0.0,0.0,0.0,0.0,0.0,0.0,0.0,0.0,0.0,0.0,0.0,0.0,0.0,0.0,0.0,0.0,0.0,0.0,0.0,0.0,0.0,0.0,0.0,0.0,0.0,0.0,0.0,0.0,0.0,0.0,0.0,0.0,0.0,0.0,0.0,0.0,0.0,0.0,0.0,0.0,0.0,0.0,0.0,0.0,0.0,0.0,0.0,0.0,0.0,0.0,0.0,0.0,0.0,0.0,0.0,0.0,0.0,0.0,0.0,0.0,0.0,0.0,0.0,0.0,0.0,0.0,0.0,0.0,0.0,0.0,0.0,0.0,0.0,0.0,0.0,0.0,0.0,0.0,0.0,0.0,0.0,0.0,0.0,0.0,0.0,0.0,0.0,0.0,0.0,0.0,0.0,0.0,0.0,0.0,0.0,0.0,0.0,0.0,0.0,0.0,0.0,0.0,0.0,0.0,0.0,0.0,0.0,1.9191,2.2203,2.5461,2.6454,2.6945,2.6967,2.4426,2.2678,2.1858,0.0,0.0,0.0,0.0,0.0,0.0,0.0,0.0,0.0,0.0,0.0,0.0,0.0,0.0,0.0,0.0,0.0,0.0,0.0,0.0,0.0,0.0,0.0,0.0,0.0,0.0,0.0,0.0,0.0,0.0,0.0,0.0,0.0,0.0,0.0,0.0,0.0,0.0,1.0112,1.0327,0.0,0.0,0.0,0.0,0.0,0.0,0.0,0.0,1.0583,0.0,0.0,0.0,0.0,0.0,0.0,0.0,0.0,0.0,0.0,0.0,0.0,0.0,0.0,0.0,0.0,0.0,0.0,0.0,0.0,0.0,0.0,0.0,0.0,0.0,0.0,0.0,0.0,0.0,0.0,0.0,0.0,0.0,0.0,0.0,0.0,0.0,0.0,0.0,0.0,0.0,0.0,0.0,0.0,0.0,0.0,0.0,0.0,0.0,0.0,0.0,0.0,0.0,0.0,0.0,0.0,1.8514,1.9347,2.1563,2.5308,2.563,2.555,2.5273,2.3875,2.3354,2.3677,0.0,0.0,0.0,0.0,0.0,0.0,0.0,0.0,0.0,0.0,0.0,0.0,0.0,0.0,0.0,0.0,0.0,0.0,0.0,0.0,0.0,0.0,0.0,0.0,0.0,0.0,0.0,0.0,0.0,0.0,0.0,0.0,0.0,0.0,0.0,0.0,0.0,0.0,0.0,1.0817,1.0902,0.0,0.0,0.0,0.0,0.0,0.0,0.0,0.0,1.08,0.0,0.0,0.0,0.0,0.0,0.0,0.0,0.0,0.0,0.0,0.0,0.0,0.0,0.0,0.0,0.0,0.0,0.0,0.0,0.0,0.0,0.0,0.0,0.0,0.0,0.0,0.0,0.0,0.0,0.0,0.0,0.0,0.0,0.0,0.0,0.0,0.0,0.0,0.0,0.0,0.0,0.0,0.0,0.0,0.0,0.0,0.0,0.0,0.0,0.0,0.0,0.0,0.0,0.0,0.0,1.7424,1.9222,2.164,2.4718,2.4924,2.4867,2.4757,2.2698,2.1987,0.0,0.0,0.0,0.0,0.0,0.0,0.0,0.0,0.0,0.0,0.0,0.0,0.0,0.0,0.0,0.0,0.0,0.0,0.0,0.0,0.0,0.0,0.0,0.0,0.0,0.0,0.0,0.0,0.0,0.0,0.0,0.0,0.0,0.0,0.0,0.0,0.0,0.0,0.0,0.0,1.0299,1.015,1.0113,0.0,0.0,0.0,0.0,0.0,0.0,0.9691,0.9845,0.0,0.0,0.0,0.0,0.0,0.0,0.0,0.0,0.0,0.0,0.0,0.0,0.0,0.0,0.0,0.0,0.0,0.0,0.0,0.0,0.0,0.0,0.0,0.0,0.0,0.0,0.0,0.0,0.0,0.0,0.0,0.0,0.0,0.0,0.0,0.0,0.0,0.0,0.0,0.0,0.0,0.0,0.0,0.0,0.0,0.0,0.0,0.0,0.0,0.0,0.0,0.0,0.0,0.0,0.0,1.5947,1.8657,2.1328,2.3709,2.3995,2.4124,2.4058,2.1324,1.9939,0.0,0.0,0.0,0.0,0.0,0.0,0.0,0.0,0.0,0.0,0.0,0.0,0.0,0.0,0.0,0.0,0.0,0.0,0.0,0.0,0.0,0.0,0.0,0.0,0.0,0.0,0.0,0.0,0.0,0.0,0.0,0.0,0.0,0.0,0.0,0.0,0.0,0.0,0.0,0.0,0.0,0.922,0.952,0.8928,0.0,0.0,0.0,0.0,0.8429,0.8652,0.0,0.0,0.0,0.0,0.0,0.0,0.0,0.0,0.0,0.0,0.0,0.0,0.0,0.0,0.0,0.0,0.0,0.0,0.0,0.0,0.0,0.0,0.0,0.0,0.0,0.0,0.0,0.0,0.0,0.0,0.0,0.0,0.0,0.0,0.0,0.0,0.0,0.0,0.0,0.0,0.0,0.0,0.0,0.0,0.0,0.0,0.0,0.0,0.0,0.0,0.0,0.0,0.0,0.0,0.0,0.0,1.5203,1.7254,1.948,2.1822,2.2384,2.2531,2.2237,1.98,1.7872,0.0,0.0,0.0,0.0,0.0,0.0,0.0,0.0,0.0,0.0,0.0,0.0,0.0,0.0,0.0,0.0,0.0,0.0,0.0,0.0,0.0,0.0,0.0,0.0,0.0,0.0,0.0,0.0,0.0,0.0,0.0,0.0,0.0,0.0,0.0,0.0,0.0,0.0,0.0,0.0,0.0,0.8595,0.8111,0.8001,0.7586,0.0,0.0,0.9003,0.8044,0.868,0.0,0.0,0.0,0.0,0.0,0.0,0.0,0.0,0.0,0.0,0.0,0.0,0.0,0.0,0.0,0.0,0.0,0.0,0.0,0.0,0.0,0.0,0.0,0.0,0.0,0.0,0.0,0.0,0.0,0.0,0.0,0.0,0.0,0.0,0.0,0.0,0.0,0.0,0.0,0.0,0.0,0.0,0.0,0.0,0.0,0.0,0.0,0.0,0.0,0.0,0.0,0.0,0.0,0.0,0.0,1.1866,1.3415,1.6042,1.8164,1.9749,2.0364,2.0568,2.0451,1.7589,1.624,0.0,0.0,0.0,0.0,0.0,0.0,0.0,0.0,0.0,0.0,0.0,0.0,0.0,0.0,0.0,0.0,0.0,0.0,0.0,0.0,0.0,0.0,0.0,0.0,0.0,0.0,0.0,0.0,0.0,0.0,0.0,0.0,0.0,0.0,0.0,0.0,0.0,0.0,0.0,0.0,0.0,0.0,0.7283,0.7243,0.0,0.0,0.0,0.807,0.6922,0.0,0.0,0.0,0.0,0.0,0.0,0.0,0.0,0.0,0.0,0.0,0.0,0.0,0.0,0.0,0.0,0.0,0.0,0.0,0.0,0.0,0.0,0.0,0.0,0.0,0.0,0.0,0.0,0.0,0.0,0.0,0.0,0.0,0.0,0.0,0.0,0.0,0.0,0.0,0.0,0.0,0.0,0.0,0.0,0.0,0.0,0.0,0.0,0.0,0.0,0.0,0.0,0.0,0.0,0.0,0.0,0.0,1.1845,1.4974,1.7096,1.814,1.8706,1.9058,1.9017,1.6296,0.0,0.0,0.0,0.0,0.0,0.0,0.0,0.0,0.0,0.0,0.0,0.0,0.0,0.0,0.0,0.0,0.0,0.0,0.0,0.0,0.0,0.0,0.0,0.0,0.0,0.0,0.0,0.5026,0.0,0.0,0.0,0.0,0.0,0.0,0.0,0.0,0.0,0.0,0.0,0.0,0.0,0.0,0.6323,0.6543,0.6483,0.6274,0.0,0.0,0.7196,0.6287,0.7154,0.7488,0.0,0.0,0.0,0.0,0.0,0.0,0.0,0.0,0.0,0.0,0.0,0.0,0.0,0.0,0.0,0.0,0.0,0.0,0.0,0.0,0.0,0.0,0.0,0.0,0.0,0.0,0.0,0.0,0.0,0.0,0.0,0.0,0.0,0.0,0.0,0.0,0.0,0.0,0.0,0.0,0.0,0.0,0.0,0.0,0.0,0.0,0.0,0.0,0.0,0.0,0.0,0.0,0.0,0.0,0.0,1.1019,1.4108,1.6253,1.7425,1.7968,1.8382,1.8536,1.6739,1.4588,0.0,0.0,0.0,0.0,0.0,0.0,0.0,0.0,0.0,0.0,0.0,0.0,0.0,0.0,0.0,0.0,0.0,0.0,0.0,0.0,0.0,0.0,0.0,0.0,0.0,0.0,0.0,0.0,0.0,0.0,0.0,0.0,0.0,0.0,0.0,0.0,0.0,0.0,0.0,0.0,0.0,0.5726,0.5775,0.587,0.5974,0.0,0.0,0.6843,0.6694,0.6958,0.6985,0.6084,0.0,0.0,0.0,0.0,0.0,0.0,0.0,0.0,0.0,0.0,0.0,0.0,0.0,0.0,0.0,0.0,0.0,0.0,0.0,0.0,0.0,0.0,0.0,0.0,0.0,0.0,0.0,0.0,0.0,0.0,0.0,0.0,0.0,0.0,0.0,0.0,0.0,0.0,0.0,0.0,0.0,0.0,0.0,0.0,0.0,0.0,0.0,0.0,0.0,0.0,0.0,0.0,0.0,0.6818,0.875,1.1336,1.3142,1.4086,1.4822,1.5396,1.5694,1.4047,1.256,0.0,0.0,0.0,0.0,0.0,0.0,0.0,0.0,0.0,0.0,0.0,0.0,0.0,0.0,0.0,0.0,0.0,0.0,0.0,0.0,0.0,0.0,0.0,0.0,0.0,0.0,0.0,0.0,0.6003,0.5891,0.5189,0.0,0.0,0.0,0.0,0.0,0.0,0.0,0.0,0.0,0.0,0.5332,0.6555,0.6095,0.0,0.0,0.6946,0.6941,0.6327,0.6576,0.6452,0.5461,0.5126,0.0,0.0,0.0,0.0,0.0,0.0,0.0,0.0,0.0,0.0,0.0,0.0,0.0,0.0,0.0,0.0,0.0,0.0,0.0,0.0,0.0,0.0,0.0,0.0,0.0,0.0,0.0,0.0,0.0,0.0,0.0,0.0,0.0,0.0,0.0,0.0,0.0,0.0,0.0,0.0,0.0,0.0,0.0,0.0,0.0,0.0,0.0,0.0,0.0,0.0,0.0,0.0,0.5611,0.7222,0.9525,1.1102,1.189,1.2638,1.3295,1.3621,1.2313,1.1331,0.0,0.0,0.0,0.0,0.0,0.0,0.0,0.0,0.0,0.0,0.0,0.0,0.0,0.0,0.0,0.0,0.0,0.0,0.0,0.0,0.0,0.0,0.0,0.0,0.0,0.0,0.0,0.0,0.5832,0.565,0.4926,0.0,0.0,0.0,0.0,0.0,0.0,0.0,0.0,0.0,0.0,0.4858,0.6244,0.5825,0.5651,0.6625,0.6822,0.6637,0.6106,0.6044,0.5787,0.4931,0.0,0.0,0.0,0.0,0.0,0.0,0.0,0.0,0.0,0.0,0.0,0.0,0.0,0.0,0.0,0.0,0.0,0.0,0.0,0.0,0.0,0.0,0.0,0.0,0.0,0.0,0.0,0.0,0.0,0.0,0.1485,0.0,0.0,0.0,0.0,0.0,0.0,0.0,0.0,0.0,0.0,0.0,0.0,0.0,0.0,0.0,0.0,0.0,0.0,0.0,0.0,0.0,0.0,0.5788,0.6826,0.9052,1.0704,1.1656,1.2124,1.2492,1.2851,1.2242,1.1203,0.9792,0.0,0.0,0.0,0.0,0.0,0.0,0.0,0.0,0.0,0.0,0.0,0.0,0.0,0.0,0.0,0.0,0.0,0.0,0.0,0.0,0.0,0.0,0.0,0.0,0.0,0.0,0.3577,0.4159,0.4727,0.0,0.0,0.0,0.0,0.0,0.0,0.0,0.0,0.0,0.0,0.4247,0.4299,0.4455,0.4927,0.539,0.5817,0.5944,0.5933,0.5967,0.5448,0.4934,0.0,0.0,0.0,0.0,0.0,0.0,0.0,0.0,0.0,0.0,0.0,0.0,0.0,0.0,0.0,0.0,0.0,0.0,0.0,0.0,0.0,0.0,0.0,0.0,0.0,0.0,0.0,0.0486,0.0729,0.0,0.0,0.0,0.0,0.0,0.0,0.0,0.0,0.0,0.0,0.0,0.321,0.2675,0.0,0.0,0.0,0.0,0.0,0.0,0.0,0.0,0.0,0.0,0.0,0.0,0.5543,0.6035,0.7739,0.8998,0.9734,1.0207,1.0801,1.1465,1.0734,0.986,0.8951,0.0,0.0,0.0,0.0,0.0,0.0,0.0,0.0,0.0,0.0,0.0,0.0,0.0,0.0,0.0,0.0,0.0,0.0,0.0,0.0,0.0,0.0,0.0,0.0,0.0,0.466,0.0,0.0,0.0,0.0,0.0,0.0,0.0,0.0,0.0,0.0,0.0,0.3896,0.4149,0.4044,0.4185,0.4836,0.4873,0.5179,0.0,0.0,0.0,0.0,0.0,0.0,0.0,0.0,0.0,0.0,0.0,0.0,0.0,0.0,0.1548,0.1336,0.1314,0.1373,0.1372,0.0,0.0,0.0,0.0,0.0,0.0,0.0,0.0,0.0,0.0,0.0,0.0,0.0,0.0,-0.0668,0.0,-0.0865,0.0,0.0,0.0,0.0,0.0,0.0,0.0,0.0,0.1711,0.2056,0.287,0.237,0.2368,0.0,0.2837,0.2902,0.0,0.0,0.0,0.0,0.0,0.0,0.0,0.0,0.5275,0.535,0.6742,0.7597,0.7846,0.847,0.9155,0.9895,0.9603,0.9088,0.8515,0.7039,0.5772,0.0,0.0,0.0,0.0,0.0,0.0,0.0,0.0,0.0,0.0,0.0,0.0,0.0,0.0,0.0,0.0,0.0,0.0,0.0,0.0,0.0,0.0,0.0,0.4502,0.0,0.0,0.0,0.0,0.0,0.0,0.0,0.0,0.0,0.4082,0.3934,0.3921,0.4158,0.3944,0.402,0.4519,0.0,0.0,0.0,0.0,0.0,0.0,0.0,0.4381,0.4001,0.3997,0.3908,0.3579,0.371,0.3539,0.2566,0.0,0.0,0.0588,0.0666,0.0761,0.0692,0.0421,-0.0,-0.0486,-0.0141,0.0143,0.0,0.0,0.0,0.0,0.0,0.0,0.0,0.0,-0.1125,-0.1838,0.0,-0.2595,0.0,0.0,0.0,0.0,0.0,0.172,0.0,0.0,0.1781,0.2037,0.2326,0.2452,0.2581,0.2574,0.2921,0.2807,0.2303,0.2514,0.0,0.0,0.0,0.0,0.0,0.0,0.5056,0.4776,0.6134,0.6629,0.6237,0.6853,0.7536,0.8348,0.8856,0.8915,0.8496,0.7687,0.7175,0.7101,0.5452,0.0,0.0,0.0,0.0,0.0,0.0,0.0,0.0,0.0,0.0,0.0,0.0,0.0,0.0,0.0,0.0,0.0,0.0,0.0,0.0,0.3585,0.0,0.0,0.0,0.0,0.0,0.0,0.0,0.0,0.0,0.0,0.4451,0.4075,0.3865,0.4131,0.0,0.0,0.0,0.0,0.4272,0.4054,0.4366,0.4502,0.4262,0.4298,0.4396,0.4434,0.0,0.0,0.318,0.3616,0.3884,0.3483,0.1488,-0.016,-0.0746,-0.0295,-0.0,-0.0,-0.0,-0.0,-0.1107,-0.1139,-0.0999,-0.2877,0.0,0.0,0.0,0.0,-0.3484,-0.3685,-0.3634,-0.3434,-0.3258,-0.3154,-0.3148,0.0,0.0,0.0,0.0,0.0,0.0,0.0579,0.0911,0.1118,0.1379,0.1549,0.1549,0.183,0.232,0.2424,0.2795,0.3355,0.3015,0.2836,0.2885,0.0,0.0,0.0,0.0,0.4432,0.4528,0.5493,0.6043,0.6163,0.6391,0.6666,0.6941,0.7199,0.7683,0.845,0.7135,0.6927,0.7973,0.6178,0.0,0.0,0.0,0.0,0.0,0.0,0.0,0.0,0.0,0.0,0.0,0.0,0.0,0.0,0.0,0.0,0.0,0.0,0.0,0.3904,0.3827,0.3998,0.0,0.0,0.0,0.0,0.0,0.0,0.0,0.0,0.0,0.4413,0.3771,0.3387,0.0,0.0,0.3231,0.3207,0.358,0.3947,0.4155,0.4124,0.0,0.0,0.432,0.4173,0.4756,0.4615,0.4304,0.3935,0.2424,0.1219,-0.0,0.0437,-0.0089,-0.0175,-0.0086,-0.0,-0.0,-0.0,-0.0,-0.0353,-0.0884,-0.1233,-0.6175,-0.443,-0.4157,-0.4282,-0.4717,-0.46,-0.4578,-0.4692,-0.4543,-0.4232,-0.3816,-0.3851,-0.3468,-0.2784,-0.2402,0.0,0.0,0.0,-0.0064,0.0408,0.0559,0.0791,0.1183,0.0962,0.1183,0.1773,0.1683,0.211,0.3056,0.2882,0.2862,0.2869,0.0,0.0,0.3459,0.3682,0.395,0.4196,0.4896,0.5237,0.5234,0.5619,0.5717,0.5519,0.6147,0.6594,0.685,0.6266,0.615,0.6596,0.5558,0.4858,0.0,0.0,0.0,0.0,0.0,0.0,0.0,0.0,0.0,0.0,0.0,0.3837,0.3256,0.0,0.0,0.0,0.4057,0.4197,0.4364,0.4287,0.0,0.0,0.0,0.0,0.0,0.0,0.0,0.4768,0.4835,0.4791,0.4345,0.3953,0.3726,0.3654,0.3702,0.3477,0.2959,0.0,0.3334,0.3284,0.308,0.3137,0.3566,0.3262,0.342,0.5034,0.5025,0.416,0.2712,0.1106,-0.0,-0.0,-0.0,-0.0,-0.0,-0.0,-0.0,-0.0,-0.0,-0.0,-0.0,-0.0481,-0.0772,-0.9444,-0.9277,-0.7509,-0.653,-0.6056,-0.5033,-0.4688,-0.4896,-0.4896,-0.4891,-0.4977,-0.4753,-0.4519,-0.4128,-0.319,0.0,-0.2033,-0.0942,-0.035,-0.0073,-0.015,0.0228,0.0987,0.0456,0.0532,0.1062,0.0816,0.1026,0.1759,0.2362,0.2781,0.3167,0.2939,0.3177,0.3848,0.3621,0.3638,0.3848,0.4358,0.437,0.3841,0.4688,0.4811,0.4082,0.5431,0.5577,0.4364,0.52,0.5123,0.3821,0.4219,0.4647,0.4976,0.0,0.0,0.0,0.0,0.0,0.0,0.0,0.0,0.0,0.0,0.0,0.0,0.0,0.0,0.0,0.4771,0.0,0.5217,0.4898,0.0,0.0,0.0,0.4879,0.6068,0.5268,0.4677,0.4849,0.0,0.0,0.4339,0.4433,0.4508,0.4444,0.4504,0.4134,0.2908,0.2807,0.2565,0.1706,0.179,0.1967,0.2436,0.1956,0.2291,0.4464,0.5277,0.3818,-0.0,-0.0,-0.0,-0.0,-0.0,-0.0,-0.0,-0.0,-0.0,-0.0,-0.0,-0.0,-0.0,-0.0,-0.0,-1.2233,-1.2506,-1.1141,-0.9342,-0.7381,-0.6919,-0.6592,-0.6363,-0.637,-0.6391,-0.6416,-0.6345,-0.6067,-0.565,-0.4664,-0.4137,-0.395,-0.3003,-0.2424,-0.207,-0.178,-0.1244,-0.0699,-0.0467,-0.0311,-0.0156,-0.0232,0.0231,0.1078,0.1608,0.2219,0.2849,0.3287,0.3549,0.3613,0.3359,0.3383,0.35,0.3713,0.3778,0.3837,0.3995,0.398,0.3649,0.4145,0.4144,0.3526,0.39,0.3837,0.3272,0.3876,0.4341,0.4416,0.3963,0.0,0.0,0.0,0.0,0.0,0.0,0.0,0.0,0.0,0.4341,0.3273,0.0,0.4494,0.0,0.5392,0.6112,0.6142,0.6358,0.0,0.0,0.6104,0.599,0.6175,0.6361,0.6162,0.5352,0.5536,0.545,0.4659,0.4518,0.4612,0.5026,0.4557,0.4126,0.3894,0.2341,0.1279,0.1181,0.2535,0.427,0.4647,0.2441,-0.0,0.1194,-0.0,0.0973,-0.0,-0.0,-0.0,-0.0,-0.0,-0.0,-0.0,-0.0,-0.0,-0.0,-0.0,-0.0,-0.0,-0.0,-0.0,-1.3481,-1.3673,-1.2759,-1.1149,-0.9218,-0.8294,-0.7757,-0.746,-0.7088,-0.6865,-0.6865,-0.6865,-0.663,-0.6086,-0.5777,-0.5378,-0.4982,-0.4673,-0.4281,-0.3655,-0.3044,-0.2425,-0.172,-0.1411,-0.1099,-0.0629,-0.0863,-0.047,0.047,0.0783,0.1228,0.1768,0.2952,0.3285,0.2802,0.2911,0.3076,0.3301,0.3432,0.3585,0.3834,0.3841,0.364,0.3391,0.3445,0.3431,0.3229,0.322,0.3045,0.2705,0.3403,0.3819,0.3872,0.3738,0.3524,0.0,0.0,0.0,0.0,0.0,0.0,0.0,0.0,0.0,0.0,0.0,0.5343,0.5088,0.6094,0.6701,0.6616,0.7149,0.7324,0.6977,0.6763,0.6592,0.6406,0.6346,0.6186,0.5551,0.5723,0.5726,0.5249,0.5053,0.477,0.431,0.4602,0.4497,0.3754,0.2549,0.1442,0.0096,0.0988,0.2323,0.3337,0.1616,-0.0,-0.0,-0.0,-0.0,-0.0,-0.0,-0.0,-0.0,-0.0,-0.0,-0.0,-0.0,-0.0,-0.0,-0.0,-0.0,-0.0,-0.0,-0.0,-1.4337,-1.4201,-1.3575,-1.2699,-1.161,-0.9696,-0.874,-0.8351,-0.748,-0.7067,-0.703,-0.6996,-0.6707,-0.6325,-0.6784,-0.6549,-0.577,-0.624,-0.5918,-0.5052,-0.4361,-0.3507,-0.2574,-0.2506,-0.1882,-0.0942,-0.149,-0.1175,-0.0235,-0.0157,0.0078,0.0544,0.2097,0.2502,0.1727,0.2216,0.2752,0.3226,0.3405,0.3573,0.3801,0.3705,0.3534,0.3211,0.3191,0.3155,0.3144,0.2843,0.252,0.2274,0.2817,0.3232,0.3288,0.3315,0.3378,0.0,0.3144,0.0,0.0,0.0,0.0,0.0,0.0,0.0,0.0,0.6006,0.6004,0.6178,0.6786,0.7166,0.7084,0.7721,0.8014,0.7716,0.7238,0.6752,0.6516,0.592,0.5489,0.5486,0.5667,0.5689,0.57,0.5552,0.4667,0.3789,0.4743,0.5134,0.3728,0.2924,0.1607,-0.1111,-0.1414,-0.0404,-0.0,-0.0,-0.0,-0.0,-0.0,-0.0,-0.0,-0.0,-0.0,-0.0,-0.0,-0.0,-0.0,-0.0,-0.0,-0.0,-0.0,-0.0,-0.0,-0.0,-0.0,-1.7329,-1.6702,-1.6005,-1.5194,-1.4344,-1.2914,-1.1083,-0.9136,-0.8353,-0.8019,-0.7857,-0.7722,-0.7859,-0.8165,-0.7783,-0.7783,-0.8008,-0.7702,-0.7395,-0.7153,-0.6157,-0.5381,-0.4678,-0.4066,-0.3368,-0.2669,-0.2433,-0.1959,-0.1332,-0.094,-0.0538,-0.0074,0.0664,0.0863,0.0478,0.0,0.0,0.0,0.3407,0.3516,0.3542,0.3403,0.3226,0.3015,0.3068,0.0,0.2817,0.269,0.2485,0.2243,0.2425,0.0,0.0,0.0,0.0,0.0,0.0,0.0,0.0,0.0,0.0,0.0,0.5238,0.5073,0.5362,0.5542,0.6071,0.7181,0.7709,0.816,0.8628,0.866,0.8567,0.7982,0.7267,0.6554,0.5855,0.5709,0.57,0.57,0.5722,0.5692,0.5626,0.4398,0.3885,0.4683,0.5422,0.5653,0.5576,0.273,0.0505,-0.0,-0.0,-0.0,-0.0,-0.0,-0.0,-0.0,-0.0,-0.0,-0.0,-0.0,-0.0,-0.0,-0.0,-0.0,-0.0,-0.0,-0.0,-0.0,-0.0,-0.0,-0.0,-0.0,-0.0,-1.7784,0.0,-1.6422,-1.5635,0.0,-1.3762,-1.2364,-1.0751,-1.0135,-0.9531,-0.8988,-0.891,-0.8623,-0.8232,-0.8035,-0.795,-0.7941,-0.7749,-0.7767,-0.7877,-0.706,-0.6547,-0.6237,-0.5151,-0.4302,-0.3604,-0.3059,-0.251,-0.2038,-0.1803,-0.1549,-0.1362,-0.1058,-0.0745,-0.0364,0.0509,0.1364,0.2096,0.3018,0.3321,0.302,0.332,0.3383,0.3166,0.0,0.0,0.0,0.0,0.0,0.0,0.0,0.0,0.0,0.0,0.0,0.3096,0.3324,0.3514,0.3803,0.434,0.5033,0.5723,0.5585,0.5539,0.5763,0.6234,0.6875,0.7771,0.7892,0.8112,0.8654,0.8542,0.8183,0.753,0.71,0.6592,0.5821,0.5695,0.5733,0.5741,0.5697,0.5686,0.5712,0.4968,0.3784,0.3036,0.2893,-0.0,0.3034,0.1415,-0.0,-0.0,-0.0,-0.0,-0.0,-0.0,-0.0,-0.0,-0.0,-0.0,-0.0,-0.0,-0.0,-0.0,-0.0,-0.0,-0.0,-0.0,-0.0,-0.0,-0.0,-0.0,-0.0,-0.0,-0.0,-1.7754,-1.7574,-1.6554,-1.5738,-1.5037,-1.4296,-1.3573,-1.2789,0.0,0.0,0.0,-1.0104,-0.9453,-0.8214,-0.834,-0.8045,-0.752,-0.7624,-0.7926,-0.8188,-0.7686,-0.7413,-0.7234,-0.6157,-0.5229,-0.4457,-0.3682,-0.3137,-0.2823,-0.2588,-0.251,-0.251,-0.251,-0.2038,-0.1175,-0.0157,0.0384,0.0591,0.2119,0.275,0.2318,0.2916,0.3183,0.3113,0.2496,0.2057,0.1902,0.1847,0.2137,0.2795,0.3059,0.2983,0.2566,0.3068,0.3286,0.3182,0.3445,0.3806,0.4094,0.4789,0.5309,0.557,0.5774,0.6103,0.6542,0.6927,0.7403,0.7851,0.7581,0.7602,0.8087,0.7939,0.7533,0.6932,0.6886,0.6523,0.5822,0.5733,0.5733,0.5746,0.5745,0.5496,0.5225,0.5437,0.4257,-0.0,-0.0,-0.0,-0.0,-0.0,-0.0,-0.0,-0.0,-0.0,-0.0,-0.0,-0.0,-0.0,-0.0,-0.0,-0.1013,-0.0509,-0.0,-0.0,-0.0,-0.0,-0.0,-0.0,-0.0,-0.0,-0.0,-0.0,-0.0,-0.0,-0.0,-1.9113,-1.8434,-1.7938,-1.7279,-1.656,-1.6423,-1.5869,-1.4911,-1.2775,-1.1372,-1.0715,-1.1034,-1.0571,-0.9609,-0.9622,-0.9215,-0.8534,-0.8557,-0.8557,0.0,-0.8538,-0.8188,-0.7702,-0.7165,-0.6546,-0.5854,-0.4611,-0.3912,-0.3756,-0.2979,-0.251,-0.251,-0.251,-0.2431,-0.2195,-0.1254,-0.0938,-0.1398,0.0223,0.1167,0.1248,0.1126,0.142,0.1961,0.1954,0.1464,0.0794,0.2068,0.2974,0.3385,0.314,0.3022,0.3103,0.3182,0.3407,0.3855,0.3958,0.4242,0.467,0.4828,0.4966,0.5104,0.5745,0.6492,0.7211,0.644,0.6173,0.6945,0.7066,0.7221,0.7464,0.7202,0.7011,0.6991,0.6337,0.5822,0.5733,0.5733,0.5733,0.5738,0.5748,0.5027,0.3892,0.4562,0.4063,-0.0,-0.0,-0.0,-0.0,-0.0,-0.0,-0.0,-0.0,-0.0,-0.0,-0.0,-0.0,-0.0,-0.0,-0.1667,-0.5012,-0.2818,-0.0,-0.0,-0.0,-0.0,-0.0,-0.0,-0.0,-0.0,-0.0,-0.0,-0.0,-0.0,0.0448,-1.9769,-1.9323,-1.8387,-1.7833,-1.7482,-1.707,-1.6655,-1.6131,-1.4678,-1.3204,-1.2033,-1.2158,-1.1681,-1.0697,-1.0507,-1.0162,-0.9657,-0.8978,-0.8791,-0.9015,-0.8583,-0.8333,-0.8232,-0.7778,-0.7242,-0.67,-0.5774,-0.5151,-0.4838,-0.4297,-0.3832,-0.3368,-0.2823,-0.251,-0.2431,-0.2037,-0.1883,-0.204,-0.0307,0.053,0.0303,0.0667,0.102,0.1512,0.1491,0.1821,0.2282,0.2111,0.2093,0.2299,0.2433,0.2601,0.2662,0.3093,0.3503,0.3849,0.4089,0.4355,0.4538,0.4778,0.4955,0.501,0.5321,0.5705,0.6089,0.5786,0.5899,0.6516,0.651,0.6563,0.6947,0.6449,0.6201,0.6334,0.5911,0.5735,0.5733,0.5733,0.5733,0.5752,0.5721,0.4996,0.3134,0.2738,0.2198,-0.0,-0.0,-0.0,-0.0,-0.0,-0.0,-0.0,-0.0,-0.0,-0.0,-0.0,-0.0,-0.0,-0.0,-0.4159,-0.6463,-0.4581,-0.2906,-0.0,-0.0,-0.0,-0.0,-0.0,-0.0,-0.0,-0.0,-0.0,0.0673,0.1009,0.1121,-2.0344,-2.0096,-1.9023,-1.8499,-1.824,-1.7491,-1.7148,-1.707,-1.6376,-1.5171,-1.3875,-1.344,-1.2712,-1.1771,-1.143,-1.1039,-1.0575,-0.9729,-0.9502,-0.9624,-0.8867,-0.8685,-0.8903,-0.8318,-0.7855,-0.7468,-0.6777,-0.6311,-0.5918,-0.561,-0.4836,-0.3826,-0.3287,-0.2899,-0.2508,-0.2665,-0.2588,-0.2195,-0.0861,-0.0313,-0.0627,-0.0078,0.047,0.086,0.0922,0.1829,0.3587,0.2168,0.1035,0.0813,0.1554,0.2072,0.2295,0.2891,0.3364,0.3724,0.4042,0.4306,0.4453,0.4781,0.5018,0.5018,0.5018,0.5018,0.5018,0.5274,0.5717,0.6051,0.5857,0.5973,0.6348,0.5921,0.5629,0.5722,0.5733,0.5733,0.5733,0.5733,0.5735,0.567,0.5676,0.5147,0.3545,0.1477,-0.0,-0.0,-0.0,-0.0,-0.0,-0.0,-0.0,-0.0,-0.0,-0.0,-0.0,-0.0,-0.0,-0.1021,-0.4005,-0.5832,-0.6463,-0.6606,-0.5667,-0.0,-0.0,-0.0,-0.0,-0.0,-0.0,-0.0,-0.0,-0.0,0.1458,0.1683,0.1683,-2.1112,-2.059,-2.0386,-1.989,-1.9065,-1.825,-1.7901,-1.7833,-1.7139,-1.6724,-1.6298,-1.4903,-1.368,-1.2865,-1.2715,-1.2231,-1.1426,-1.1175,-1.1095,-1.0855,-1.0146,-0.9728,-0.976,-0.9008,-0.8623,-0.8466,-0.7625,-0.7165,-0.7003,-0.6076,-0.459,-0.3031,-0.4055,-0.3986,-0.281,-0.3283,-0.3288,-0.251,-0.2352,-0.204,-0.1729,-0.165,-0.1256,-0.047,-0.0234,0.1093,0.3439,0.2183,0.0544,-0.0778,0.0544,0.1712,0.2335,0.257,0.3041,0.3904,0.4064,0.4304,0.4623,0.4859,0.5018,0.5018,0.5018,0.5018,0.5023,0.511,0.525,0.5367,0.5369,0.5493,0.5623,0.5646,0.5711,0.5727,0.5733,0.5733,0.5733,0.5733,0.5735,0.5746,0.5689,0.5633,0.4899,0.2172,-0.0,-0.0,-0.0,-0.0,-0.0,-0.0,-0.0,-0.0,-0.0,-0.0,-0.0,-0.0,-0.1657,-0.4633,-0.5946,-0.6453,-0.6642,-0.6563,-0.6199,-0.5118,-0.2691,-0.0,-0.0,-0.0,-0.0,-0.0,0.078,0.1567,0.1793,0.1792,0.1679,-2.2039,-2.1717,-2.0899,-2.0161,-1.9473,-1.8998,-1.8787,-1.8654,-1.7891,-1.756,-1.7413,-1.6376,-1.5321,-1.4458,-1.445,-1.3947,-1.3011,-1.2492,-1.2278,-1.2057,-1.1236,-1.0795,-1.072,-1.0351,-0.9911,-0.9463,-0.8998,-0.8542,-0.8003,-0.708,-0.615,-0.5446,-0.5303,-0.5237,-0.5395,-0.4846,-0.43,-0.399,-0.3522,-0.321,-0.2978,-0.2431,-0.1884,-0.1334,-0.0706,-0.0078,0.0706,0.0549,0.047,0.0235,0.047,0.094,0.1724,0.2273,0.2668,0.3139,0.3767,0.4314,0.4701,0.4779,0.4859,0.5018,0.5018,0.5018,0.5023,0.5121,0.5214,0.5295,0.5404,0.5526,0.5643,0.5706,0.5733,0.5733,0.5733,0.5733,0.5733,0.5738,0.5676,0.5663,0.5722,0.5669,0.5156,0.2384,-0.0,-0.0,-0.0,-0.0,-0.0,-0.0,-0.0,-0.0,-0.202,-0.365,-0.3679,-0.3784,-0.421,-0.4538,-0.5583,-0.6395,-0.6505,-0.6495,-0.6538,-0.6706,-0.4014,-0.1487,-0.0,-0.0,0.0981,0.0982,0.0763,0.131,0.1653,0.1768,0.1774,-2.2907,-2.2531,-2.1227,-2.0431,-1.9933,-1.9539,-1.9341,-1.9341,-1.8721,-1.8442,-1.8375,-1.7823,-1.7129,-1.6298,-1.5816,-1.5037,-1.4201,-1.3535,-1.331,-1.3157,-1.2271,-1.1822,-1.1749,-1.1391,-1.0881,-1.0363,-0.9992,-0.9463,-0.8699,-0.7936,-0.7633,-0.7646,-0.663,-0.6563,-0.7289,-0.6099,-0.5234,-0.4927,-0.4222,-0.3832,-0.3677,-0.282,-0.2198,-0.2042,-0.1255,-0.102,-0.1415,-0.0784,-0.0157,0.0549,0.0549,0.0783,0.1254,0.1881,0.2273,0.2588,0.353,0.4235,0.4543,0.4623,0.4779,0.4859,0.494,0.5018,0.5042,0.5151,0.5271,0.536,0.551,0.5643,0.5714,0.5733,0.5733,0.5733,0.5733,0.5733,0.5735,0.5741,0.5515,0.5069,0.5275,0.5213,0.4044,-0.0,-0.0,-0.0,-0.0,-0.0,-0.0,-0.0,-0.0,-0.0,-0.0,-0.5987,-0.6393,-0.6088,-0.5562,-0.5048,-0.5667,-0.6388,-0.6372,-0.6377,-0.642,-0.6347,-0.4825,-0.3065,-0.0637,0.064,0.1386,0.1494,0.1281,0.1177,0.1626,0.1742,0.1758,-2.3675,-2.2907,-2.1502,-2.0892,-2.0775,-1.9998,-1.9605,-1.9539,-1.9539,-1.9473,-1.9473,-1.9407,-1.8921,-1.7901,-1.6524,-1.5338,-1.4505,-1.4346,-1.4201,-1.3905,-1.3237,-1.2865,-1.2792,-1.1829,-1.1378,-1.1236,-1.0507,-0.9685,-0.8851,-0.8475,-0.8408,-0.8565,-0.8025,-0.7799,-0.75,-0.6861,-0.6005,-0.5234,-0.4377,-0.3908,-0.3754,-0.2978,-0.2588,-0.2511,-0.2195,-0.1962,-0.1887,-0.1729,-0.1415,-0.1178,0.0706,0.1646,0.141,0.1332,0.1724,0.251,0.345,0.4079,0.4157,0.4467,0.4701,0.4779,0.4937,0.5021,0.5045,0.5222,0.5352,0.5374,0.5586,0.5719,0.573,0.5733,0.5733,0.5733,0.5733,0.5733,0.5733,0.5744,0.4887,0.3876,0.4448,0.3888,0.0903,0.0202,-0.0,-0.0,-0.0,-0.0,-0.0,-0.0,-0.0,-0.0,-0.3139,-0.6297,-0.6393,-0.6385,-0.6374,-0.5957,-0.5851,-0.6364,-0.6366,-0.6385,-0.6447,-0.6379,-0.5965,-0.4353,-0.1373,0.0213,0.0743,0.106,0.1482,0.1594,0.1608,0.1734,0.1752,-2.4073,-2.3088,-2.2543,-2.1815,-2.1008,-2.0571,-2.0183,-1.9813,-1.9671,-1.9615,-1.9615,-1.9615,-1.9131,-1.8375,-1.7823,-1.6724,-1.5417,-1.5267,-1.4982,-1.4418,-1.4049,-1.3833,-1.3833,-1.331,-1.2792,-1.2345,-1.1842,-1.1111,-1.0207,-0.9685,-0.9145,-0.8751,-0.8389,-0.8259,-0.8183,-0.7791,-0.7249,-0.6788,-0.6002,-0.5458,-0.5231,-0.4535,-0.3912,-0.3366,-0.2585,-0.2198,-0.2281,-0.1887,-0.1571,-0.1334,-0.0471,0.0314,0.1176,0.1332,0.1646,0.243,0.2978,0.329,0.3524,0.4231,0.4779,0.4859,0.494,0.505,0.5135,0.5273,0.5401,0.5496,0.5629,0.5727,0.5733,0.5733,0.5733,0.5733,0.5733,0.5735,0.5741,0.5665,0.5373,0.4608,0.3394,0.1394,-0.0,-0.0,-0.0,-0.0,-0.0,-0.0,-0.0,-0.0,-0.0,-0.0,-0.1323,-0.3334,-0.639,-0.6385,-0.6374,-0.6358,-0.6453,-0.6364,-0.6369,-0.6358,-0.6404,-0.6233,-0.6209,-0.4273,-0.083,0.0415,0.0726,0.0933,0.1347,0.1573,0.1699,0.1714,0.174,-2.435,-2.3458,-2.3207,-2.247,-2.1439,-2.1083,-2.0571,-2.0009,-1.9813,-1.9747,-1.9736,-1.9736,-1.9462,-1.8977,-1.8921,-1.8027,-1.6585,-1.6105,-1.5542,-1.4991,-1.4641,-1.4433,-1.4433,-1.4281,-1.3905,-1.339,-1.2813,-1.2077,-1.1186,-1.0519,-0.9739,-0.8713,-0.8836,-0.8865,-0.8722,-0.8417,-0.8187,-0.7723,-0.6934,-0.6391,-0.6086,-0.5389,-0.4611,-0.3832,-0.3052,-0.2666,-0.2515,-0.2043,-0.1649,-0.1334,-0.1334,-0.047,0.1097,0.1567,0.1803,0.2116,0.282,0.3132,0.313,0.4073,0.4779,0.4859,0.4943,0.5064,0.5178,0.5298,0.5417,0.554,0.5662,0.5733,0.5733,0.5735,0.5738,0.5738,0.5738,0.5741,0.5665,0.5703,0.5,0.3543,0.168,-0.0,-0.0,-0.0,-0.0,-0.0,-0.0,-0.0,-0.0,-0.0,-0.0,-0.0,-0.0,-0.0,-0.3739,-0.4853,-0.6073,-0.6263,-0.6361,-0.6369,-0.6266,-0.6253,-0.6052,-0.5977,-0.4659,-0.2629,-0.101,0.0303,0.0808,0.101,0.132,0.1644,0.1667,0.1691,0.1721,-2.4607,-2.3982,-2.3412,-2.2774,-2.2039,-2.1502,-2.0764,-2.0335,-2.0205,-2.027,-2.0205,-2.014,-1.9998,-1.9802,-1.9605,-1.9065,-1.8104,-1.6844,-1.6088,-1.5621,-1.4991,-1.4641,-1.4569,-1.4425,-1.4353,-1.4209,-1.3185,-1.2224,-1.1403,-1.1186,-1.0409,-0.9331,-0.9841,-0.9559,-0.8722,-0.8641,-0.8417,-0.7799,-0.7092,-0.6546,-0.6163,-0.5622,-0.4844,-0.4064,-0.383,-0.3365,-0.2589,-0.2121,-0.1729,-0.1335,-0.1334,-0.047,0.1019,0.1881,0.2117,0.1646,0.2978,0.3526,0.3052,0.3992,0.4701,0.4781,0.4937,0.5069,0.5203,0.5309,0.5426,0.5561,0.5665,0.5733,0.5735,0.5744,0.5746,0.5657,0.5563,0.5387,0.5687,0.5595,0.4235,-0.0,-0.0,-0.0,-0.0,-0.0,-0.0,-0.0,-0.0,-0.0,-0.0,-0.0,-0.0,-0.0,-0.0,-0.0,-0.0,-0.323,-0.4951,-0.6173,-0.6374,-0.6377,-0.5967,-0.5756,-0.464,-0.4149,-0.2021,-0.0101,-0.0101,0.101,0.1111,0.1314,0.1517,0.1623,0.165,0.1679,0.1706,-2.462,-2.4112,-2.3865,-2.3412,-2.2774,-2.2543,-2.2113,-2.1491,-2.1491,-2.1262,-2.0816,-2.0816,-2.0518,-2.014,-1.9944,-1.9736,-1.933,-1.8355,-1.7189,-1.5965,-1.5551,-1.5133,-1.4705,-1.4569,-1.4505,-1.4353,-1.4065,-1.355,-1.2893,-1.2372,-1.2016,-1.19,-1.0854,-0.9765,-0.8822,-0.8689,-0.8556,-0.8178,-0.7791,-0.7484,-0.7257,-0.6942,-0.6318,-0.5464,-0.4921,-0.3986,-0.2578,-0.2354,-0.1965,-0.1336,-0.1335,-0.0784,0.0313,0.1254,0.1254,0.0705,0.2271,0.3052,0.2581,0.3834,0.4859,0.4937,0.494,0.5118,0.5279,0.5344,0.5461,0.5635,0.5719,0.5741,0.5738,0.5746,0.5662,0.5657,0.4574,0.4403,0.4897,0.343,0.143,-0.0,-0.0,-0.0,-0.0,-0.0,-0.0,-0.0,-0.0,-0.0,-0.0,-0.0,-0.0,-0.0,-0.0,-0.0,-0.0,-0.0,-0.2733,-0.4671,-0.5595,-0.6318,-0.5999,-0.4259,-0.3141,-0.2019,0.0101,0.1212,0.1212,0.1314,0.1415,0.1516,0.1619,0.163,0.1647,0.1673,0.1705,-2.516,-2.4447,-2.4447,-2.3897,-2.3148,-2.3088,-2.2713,-2.2163,-2.2101,-2.1865,-2.1502,-2.1491,-2.1262,-2.0816,-2.0518,-2.0518,-2.0495,-1.9562,-1.8422,-1.717,-1.6437,-1.6018,-1.5471,-1.5196,-1.4784,-1.4425,-1.4425,-1.4209,-1.3855,-1.3411,-1.3228,-1.3145,-1.2087,-1.0986,-0.9879,-0.9125,-0.868,-0.8699,-0.8322,-0.7953,-0.7642,-0.7249,-0.6788,-0.6163,-0.5389,-0.445,-0.3355,-0.2821,-0.2199,-0.1572,-0.1336,-0.0863,-0.0,0.0783,0.1018,0.094,0.1879,0.2817,0.2581,0.3599,0.4623,0.4859,0.5018,0.5121,0.5309,0.5371,0.5477,0.5684,0.5738,0.5741,0.5738,0.5749,0.5394,0.4667,0.4401,0.3799,0.3584,0.1513,-0.0,-0.0,-0.0,-0.0,-0.0,-0.0,-0.0,-0.0,-0.0,-0.0,-0.0,-0.0,-0.0,-0.0,-0.0,-0.0,-0.0,-0.0,-0.0,-0.2548,-0.4506,-0.5651,-0.6172,-0.2971,-0.0921,-0.0709,0.0909,0.1212,0.1313,0.1415,0.1516,0.1619,0.1626,0.1634,0.165,0.168,0.1712,-2.6082,-2.5104,-2.5061,-2.4452,-2.3479,-2.3433,-2.317,-2.2518,-2.2396,-2.2396,-2.2274,-2.2212,-2.2113,-2.1928,-2.1262,-2.1262,-2.1514,-2.0431,-1.9639,-1.8982,-1.8045,-1.717,-1.6627,-1.5956,-1.5267,-1.4497,-1.4425,-1.4281,-1.4137,-1.3985,-1.3878,-1.3506,-1.3293,-1.291,-1.1521,-0.9873,-0.9352,-0.9226,-0.8627,-0.8097,-0.7557,-0.6707,-0.624,-0.6163,-0.5312,-0.4691,-0.4219,-0.3129,-0.2196,-0.1729,-0.1415,-0.0942,-0.0157,0.0783,0.1096,0.1096,0.2192,0.274,0.3052,0.3521,0.4068,0.4859,0.5026,0.5118,0.532,0.5379,0.5469,0.57,0.5735,0.5735,0.5738,0.5749,0.4851,0.3318,0.3605,0.3116,-0.0,-0.0,-0.0,-0.0,-0.0,-0.0,-0.0,-0.0,-0.0,-0.0,-0.0,-0.0,-0.0,-0.0,-0.0,-0.0,-0.0,-0.0,-0.0,-0.0,-0.0,-0.1036,-0.0,-0.0,-0.0,-0.1658,0.0416,0.0822,0.0913,0.1216,0.1417,0.1522,0.1632,0.1643,0.1645,0.1642,0.1656,0.1685,0.1716,-2.6534,-2.5932,-2.5877,-2.5686,-2.5384,-2.5398,-2.5273,-2.5024,-2.45,-2.3995,-2.3631,-2.3062,-2.2592,-2.2101,-2.1928,-2.1616,-2.1313,-2.0869,-2.0377,-1.9911,-1.9507,-1.7997,-1.6627,-1.6079,-1.5463,-1.4713,-1.4497,-1.4425,-1.4361,-1.4201,-1.4015,-1.3755,-1.3587,-1.2977,-1.1935,-1.1938,-1.1265,-0.9922,-0.9377,-0.8699,-0.7863,-0.6857,-0.6391,-0.6083,-0.4841,-0.4144,-0.391,-0.2741,-0.1885,-0.1415,-0.1336,-0.1257,-0.0864,-0.0078,0.047,0.0705,0.1956,0.274,0.2978,0.368,0.4465,0.4937,0.5029,0.5118,0.5344,0.5371,0.5491,0.5676,0.5738,0.5741,0.5738,0.5749,0.4218,0.1437,-0.0,-0.0,-0.0,-0.0,-0.0,-0.0,-0.0,-0.0,-0.0,-0.0,-0.0,-0.0,-0.0,-0.0,-0.0,-0.0,-0.0,-0.0,-0.0,-0.0,-0.0,-0.0,-0.0,-0.0,-0.0,-0.0,-0.0,-0.0,0.116,0.1582,0.1343,0.1437,0.1535,0.1636,0.165,0.166,0.1658,0.1653,0.1663,0.1686,0.1716,-2.7122,-2.6573,-2.6563,-2.6457,-2.6226,-2.6203,-2.6179,-2.6065,-2.555,-2.5092,-2.4627,-2.4021,-2.3505,-2.3148,-2.2774,-2.2408,-2.1978,-2.1376,-2.088,-2.0506,-2.0129,-1.8767,-1.712,-1.6567,-1.5877,-1.4919,-1.4713,-1.4569,-1.4497,-1.4353,-1.4217,-1.408,-1.3827,-1.3294,-1.2739,-1.2129,-1.1633,-1.0288,-0.9604,-0.8699,-0.7949,-0.6703,-0.6234,-0.5848,-0.4686,-0.391,-0.4075,-0.3057,-0.2119,-0.1492,-0.1336,-0.1336,-0.1179,-0.0392,0.0314,0.0705,0.235,0.3372,0.3448,0.3992,0.4384,0.487,0.5053,0.5178,0.5336,0.5409,0.554,0.57,0.5733,0.5735,0.5738,0.5746,0.3857,-0.0,-0.0,-0.0,-0.0,-0.0,-0.0,-0.0,-0.0,-0.0,-0.0,-0.0,-0.0,-0.0,-0.0,-0.0,-0.0,-0.0,-0.0,-0.0,-0.0,-0.0,-0.0,-0.0,-0.0,-0.0,-0.0,-0.0,-0.0,0.1065,0.1379,0.1695,0.1675,0.166,0.1651,0.1646,0.1654,0.166,0.1662,0.1671,0.1682,0.1692,0.1722,-2.7775,-2.724,-2.7255,-2.6899,-2.6529,-2.6468,-2.6578,-2.6371,-2.5837,-2.5577,-2.5342,-2.4878,-2.4434,-2.4549,-2.3682,-2.3386,-2.3195,-2.2101,-2.1491,-2.106,-2.0495,-1.932,-1.822,-1.7394,-1.6576,-1.5551,-1.4919,-1.4784,-1.4713,-1.4641,-1.4497,-1.4281,-1.4049,-1.3912,-1.3244,-1.1668,-1.0685,-1.0571,-0.9528,-0.8627,-0.7791,-0.6468,-0.577,-0.5696,-0.4375,-0.3839,-0.4001,-0.3452,-0.2353,-0.1336,-0.1336,-0.1336,-0.1179,-0.0236,0.0628,0.1411,0.2666,0.3767,0.4389,0.399,0.399,0.4792,0.5116,0.523,0.5424,0.5453,0.5586,0.5722,0.5733,0.5733,0.5735,0.5744,0.4393,-0.0,-0.0,-0.0,-0.0,-0.0,-0.0,-0.0,-0.0,-0.0,-0.0,-0.0,-0.0,-0.0,-0.0,-0.0,-0.0,-0.0,-0.0,-0.0,-0.0,-0.0,-0.0,-0.0,-0.0,-0.0,-0.0,-0.0,-0.0,0.108,0.1494,0.1693,0.1689,0.1674,0.1654,0.1654,0.1765,0.168,0.1695,0.1699,0.1703,0.1712,0.1733,-2.859,-2.8137,-2.8103,-2.8054,-2.791,-2.7898,-2.7898,-2.781,-2.6707,-2.6283,-2.6014,-2.5104,-2.4677,-2.4677,-2.4421,-2.406,-2.3564,-2.3075,-2.2774,-2.1916,-2.0933,-2.0291,-1.9475,-1.8536,-1.7276,-1.6385,-1.5762,-1.5409,-1.5125,-1.5046,-1.4697,-1.4425,-1.4346,-1.3992,-1.355,-1.2004,-1.0953,-1.0864,-0.9986,-0.9013,-0.8016,-0.6542,-0.5535,-0.5306,-0.3754,-0.2981,-0.2907,-0.2437,-0.1885,-0.1492,-0.1258,-0.1178,-0.1178,-0.1022,-0.0078,0.1176,0.1803,0.2821,0.4155,0.4387,0.4384,0.487,0.5129,0.5294,0.5448,0.5458,0.56,0.5706,0.5733,0.5733,0.5733,0.5744,0.5114,0.4064,0.3061,0.1902,-0.0,-0.0,-0.0,-0.0,-0.0,-0.0,-0.0,-0.0,-0.0,-0.0,-0.0,-0.0,-0.0,-0.0,-0.0,-0.0,-0.0,-0.0,-0.0,-0.0,-0.0,-0.0,-0.0,-0.0,-0.0,0.1096,0.1408,0.1612,0.1712,0.1692,0.1671,0.1878,0.1993,0.1915,0.1939,0.2264,0.2374,0.2166,0.2284,-2.9194,-2.8779,-2.8572,-2.8491,-2.8411,-2.8411,-2.8411,-2.8235,-2.7393,-2.6967,-2.6692,-2.5687,-2.5328,-2.5522,-2.4991,-2.4408,-2.3949,-2.3374,-2.2907,-2.2347,-2.1729,-2.1479,-2.1014,-1.9846,-1.8536,-1.7413,-1.6793,-1.6367,-1.6158,-1.5939,-1.5737,-1.5133,-1.4919,-1.4489,-1.3775,-1.2318,-1.1372,-1.087,-0.9911,-0.9008,-0.8241,-0.7007,-0.5458,-0.4606,-0.3209,-0.2354,-0.2512,-0.2043,-0.165,-0.1257,-0.0942,-0.0942,-0.1257,-0.1258,-0.0392,0.1097,0.1803,0.2663,0.4153,0.4623,0.4701,0.4945,0.517,0.5319,0.5493,0.5568,0.5646,0.5714,0.5733,0.5733,0.5733,0.5738,0.5741,0.5607,0.5021,0.3989,0.2967,-0.0,-0.0,-0.0,-0.0,-0.0,-0.0,-0.0,-0.0,-0.0,-0.0,-0.0,-0.0,-0.0,-0.0,-0.0,-0.0,-0.0,-0.0,-0.0,-0.0,-0.0,-0.0,-0.0,-0.0,0.1203,0.1431,0.1529,0.1732,0.1718,0.1806,0.2017,0.2542,0.2773,0.3014,0.3257,0.3492,0.3703,0.3941,-2.9837,-2.9316,-2.8983,-2.8714,-2.8573,-2.859,-2.8558,-2.8396,-2.7845,-2.7515,-2.7363,-2.6457,-2.6229,-2.6375,-2.5632,-2.505,-2.4557,-2.3748,-2.3289,-2.3135,-2.2713,-2.2531,-2.2139,-2.1129,-1.9987,-1.8556,-1.7813,-1.7463,-1.7179,-1.7111,-1.6498,-1.5886,-1.5517,-1.4887,-1.397,-1.298,-1.1935,-1.1105,-0.99,-0.8927,-0.8322,-0.7242,-0.5693,-0.391,-0.2898,-0.2275,-0.2276,-0.1963,-0.1572,-0.1256,-0.0314,-0.0392,-0.0785,-0.0864,-0.0235,0.1568,0.2194,0.3134,0.4231,0.4623,0.4781,0.4951,0.5233,0.5419,0.546,0.5626,0.5772,0.5811,0.5819,0.5819,0.5822,0.5822,0.5738,0.5689,0.585,0.6064,0.5661,0.3046,-0.0,-0.0,-0.0,-0.0,-0.0,-0.0,-0.0,-0.0,-0.0,-0.0,-0.0,-0.0,-0.0,-0.0,-0.0,-0.0,-0.0,-0.0,-0.0,-0.0,0.0934,0.1158,0.1286,0.1406,0.1525,0.165,0.175,0.1842,0.2156,0.2693,0.3225,0.3756,0.411,0.439,0.4835,0.5255,0.5513,-3.063,-2.9935,-2.9871,-2.963,-2.9287,-2.9233,-2.9025,-2.8668,-2.8125,-2.7765,-2.763,-2.7004,-2.6745,-2.6678,-2.6573,-2.6108,-2.5563,-2.4811,-2.4526,-2.4208,-2.3623,-2.3195,-2.3242,-2.2212,-2.1353,-2.0526,-1.9344,-1.8287,-1.7959,-1.7619,-1.712,-1.6123,-1.5362,-1.4735,-1.4418,-1.382,-1.27,-1.1391,-1.0271,-0.9453,-0.847,-0.7084,-0.5541,-0.3602,-0.2823,-0.2354,-0.2042,-0.1964,-0.1651,-0.1178,0.0235,0.047,0.0235,0.047,0.1254,0.1881,0.2507,0.3288,0.4231,0.4548,0.4781,0.4988,0.5235,0.5398,0.5559,0.5785,0.5891,0.5997,0.6083,0.6169,0.6083,0.5997,0.5908,0.586,0.5855,0.5991,0.6002,0.5349,0.4072,0.3015,0.2618,-0.0,-0.0,-0.0,-0.0,-0.0,-0.0,-0.0,-0.0,-0.0,-0.0,-0.0,-0.0,-0.0,-0.0,-0.0,-0.0,-0.0,0.1232,0.1654,0.1786,0.1701,0.1717,0.2273,0.2402,0.2398,0.2828,0.3486,0.4158,0.4928,0.5296,0.5558,0.6095,0.6628,0.6421,-3.1408,-3.0784,-3.0394,-3.0048,-2.9756,-2.9512,-2.9278,-2.9044,-2.8574,-2.835,-2.8091,-2.7715,-2.7565,-2.758,-2.7093,-2.6745,-2.6375,-2.5811,-2.5618,-2.5453,-2.4667,-2.4266,-2.4368,-2.3182,-2.2543,-2.1803,-2.0655,-1.9507,-1.9054,-1.8921,-1.7949,-1.6748,-1.5983,-1.5379,-1.4569,-1.4141,-1.3082,-1.162,-1.0571,-0.9604,-0.8623,-0.685,-0.5226,-0.43,-0.2978,-0.2353,-0.2198,-0.1807,-0.1099,-0.0078,0.0862,0.1175,0.1567,0.2037,0.2665,0.2585,0.282,0.3444,0.4231,0.4626,0.4805,0.5118,0.5355,0.5482,0.5595,0.5799,0.5991,0.5997,0.5997,0.6083,0.6083,0.6086,0.6083,0.6103,0.6102,0.6135,0.6264,0.6393,0.5816,0.4912,0.4734,0.4338,-0.0,-0.0,-0.0,-0.0,0.0707,-0.0,-0.0,-0.0,-0.0,-0.0,-0.0,-0.0,0.1111,0.1415,0.1717,0.1621,0.1828,0.2252,0.2676,0.2812,0.3158,0.3719,0.3538,0.3357,0.4051,0.4931,0.5531,0.6239,0.6908,0.7465,0.7695,0.7811,0.77,-3.2212,-3.17,-3.1052,-3.0639,-3.0344,-3.0011,-2.9789,-2.9569,-2.9273,-2.9167,-2.9029,-2.8685,-2.8685,-2.8716,-2.8143,-2.7455,-2.7232,-2.6573,-2.6534,-2.6375,-2.5837,-2.5577,-2.5273,-2.4399,-2.342,-2.3122,-2.2063,-2.1019,-2.0053,-1.9791,-1.8824,-1.7512,-1.6945,-1.6053,-1.4713,-1.4343,-1.306,-1.1855,-1.0726,-0.976,-0.808,-0.6612,-0.522,-0.4683,-0.313,-0.2353,-0.2356,-0.1964,-0.0706,0.0549,0.1332,0.1645,0.251,0.353,0.3763,0.321,0.329,0.3915,0.4465,0.4779,0.4902,0.5242,0.5377,0.5574,0.5772,0.5897,0.6,0.5997,0.6086,0.6083,0.6171,0.6171,0.6171,0.6097,0.6175,0.6202,0.6335,0.6365,0.6477,0.6168,0.6437,0.6057,0.5244,0.5044,0.393,0.3734,0.3229,0.2017,-0.0,-0.0,-0.0,-0.0,-0.0,-0.0,0.0808,0.1414,0.1817,0.2222,0.2628,0.3245,0.3762,0.4186,0.4538,0.479,0.4857,0.4803,0.5638,0.6272,0.6633,0.7329,0.8472,0.8933,0.8709,0.8816,0.9034,-3.3171,-3.2631,-3.253,-3.2091,-3.1465,-3.1356,-3.0948,-3.0427,-3.0318,-3.0225,-3.0064,-3.0021,-2.9903,-2.98,-2.9403,-2.8871,-2.8355,-2.7838,-2.7384,-2.7093,-2.6692,-2.6481,-2.6414,-2.5412,-2.4557,-2.4097,-2.3135,-2.1928,-2.088,-2.0366,-1.9156,-1.7726,-1.6982,-1.6158,-1.4784,-1.4297,-1.376,-1.2345,-1.1607,-0.9804,-0.7153,-0.5999,-0.4681,-0.3365,-0.251,-0.2433,-0.2357,-0.1886,-0.0706,0.1019,0.1332,0.1724,0.251,0.353,0.3999,0.4077,0.4311,0.4623,0.4859,0.494,0.4999,0.5278,0.5473,0.5672,0.5892,0.6174,0.6526,0.6962,0.6877,0.6612,0.6435,0.6343,0.6166,0.6086,0.6028,0.6079,0.6219,0.6496,0.6517,0.666,0.6745,0.6553,0.6044,0.605,0.6052,0.5959,0.556,0.434,0.3528,0.3123,0.2821,0.2418,0.1713,0.1713,0.1815,0.2118,0.2521,0.3024,0.383,0.4433,0.4744,0.5258,0.555,0.5817,0.5901,0.6123,0.6781,0.72,0.7592,0.8204,0.903,0.9268,0.9268,0.9596,1.0036,-3.4128,-3.3523,-3.3323,-3.3042,-3.2709,-3.2382,-3.2036,-3.1671,-3.1302,-3.0992,-3.0751,-3.0767,-3.0711,-3.0654,-3.0506,-3.012,-2.9452,-2.8869,-2.8403,-2.7834,-2.7485,-2.7078,-2.6768,-2.6011,-2.5232,-2.4684,-2.3904,-2.3015,-2.1978,-2.0921,-1.9683,-1.7949,-1.7276,-1.6437,-1.4911,-1.4099,-1.307,-1.189,-1.0634,-0.9059,-0.7387,-0.6076,-0.4991,-0.3599,-0.2349,-0.2038,-0.2041,-0.1412,-0.0313,0.1096,0.1332,0.1958,0.2979,0.3765,0.4157,0.4309,0.4545,0.4701,0.4781,0.494,0.5113,0.5246,0.5521,0.5619,0.5776,0.6045,0.6349,0.6523,0.6523,0.6523,0.6612,0.6612,0.6612,0.6435,0.6174,0.6335,0.6476,0.6444,0.6643,0.6801,0.6939,0.6742,0.6545,0.6345,0.6247,0.625,0.6155,0.5548,0.534,0.5541,0.5238,0.5037,0.4128,0.342,0.3522,0.3725,0.4128,0.4732,0.5844,0.6145,0.5934,0.6234,0.6531,0.693,0.7308,0.7579,0.7886,0.8122,0.8314,0.8838,0.9265,0.9485,0.9599,1.0036,1.0366,-3.4944,-3.4472,-3.4031,-3.379,-3.3596,-3.3148,-3.2865,-3.2626,-3.2172,-3.183,-3.167,-3.1689,-3.1707,-3.1617,-3.1655,-3.1319,-3.065,-3.0005,-2.968,-2.9173,-2.8623,-2.8262,-2.7878,-2.7033,-2.6193,-2.5315,-2.4824,-2.3995,-2.311,-2.2077,-2.0557,-1.8267,-1.7754,-1.676,-1.5313,-1.3837,-1.2583,-1.1613,-1.0126,-0.8689,-0.7464,-0.6384,-0.5148,-0.3828,-0.2425,-0.1254,-0.1097,-0.0784,0.0313,0.1096,0.1567,0.235,0.3528,0.3921,0.4155,0.4309,0.4545,0.4701,0.4779,0.4878,0.5148,0.538,0.5707,0.599,0.6116,0.6086,0.6086,0.6526,0.6523,0.6612,0.6615,0.67,0.6615,0.6526,0.6529,0.6706,0.6855,0.6726,0.6553,0.6637,0.6739,0.6839,0.6639,0.6439,0.6439,0.6437,0.6442,0.6448,0.655,0.6751,0.6348,0.5842,0.5336,0.4425,0.4325,0.4728,0.5231,0.5937,0.7153,0.7556,0.7039,0.7135,0.7434,0.7935,0.8237,0.8275,0.8183,0.855,0.8925,0.9272,0.9596,0.9816,1.0036,1.0476,1.0696,-3.5627,-3.5553,-3.4882,-3.433,-3.3852,-3.3762,-3.3451,-3.3161,-3.2991,-3.2931,-3.2853,-3.3121,-3.3057,-3.2907,-3.2766,-3.2541,-3.209,-3.1707,-3.1259,-3.109,-3.0993,-3.0194,-2.941,-2.8467,-2.7719,-2.6894,-2.6026,-2.5078,-2.4084,-2.3191,-2.1288,-1.9128,-1.8367,-1.7162,-1.5621,-1.395,-1.2357,-1.1304,-0.9986,-0.8613,-0.731,-0.6153,-0.4916,-0.2974,-0.2037,-0.0862,0.1728,0.0941,0.0783,0.1567,0.1959,0.2666,0.3686,0.3999,0.4155,0.4311,0.4545,0.4701,0.4779,0.4953,0.5228,0.5684,0.6132,0.6436,0.6514,0.6789,0.6966,0.6789,0.6697,0.6697,0.6612,0.6612,0.6615,0.6526,0.6548,0.6659,0.671,0.6529,0.6463,0.6465,0.6539,0.6739,0.6739,0.6539,0.6539,0.6539,0.6642,0.6648,0.6645,0.6745,0.6342,0.5939,0.5837,0.5331,0.4728,0.5131,0.6032,0.6434,0.7144,0.7646,0.764,0.7939,0.8038,0.8038,0.8148,0.8352,0.867,0.8971,0.9279,0.9599,0.9816,1.0036,1.0147,1.0363,1.0582,-3.5708,-3.5678,-3.5366,-3.5121,-3.4955,-3.4827,-3.4636,-3.4415,-3.4279,-3.4097,-3.3911,-3.4086,-3.4086,-3.3958,-3.403,-3.372,-3.3156,-3.2928,-3.2419,-3.191,-3.1638,-3.097,-3.0103,-2.947,-2.8668,-2.7674,-2.6923,-2.6079,-2.4883,-2.4076,-2.2469,-2.0703,-1.9253,-1.7794,-1.6184,-1.4165,-1.2238,-1.0634,-0.9528,-0.8228,-0.7084,-0.5925,-0.4683,-0.2818,-0.1487,-0.0784,0.0392,0.1097,0.1803,0.2431,0.2588,0.3137,0.3765,0.4001,0.4233,0.4389,0.4623,0.4857,0.4943,0.5031,0.5127,0.5419,0.5775,0.6177,0.6425,0.6349,0.6349,0.6435,0.6697,0.6609,0.67,0.6877,0.6877,0.6704,0.6567,0.665,0.6572,0.6494,0.6527,0.6617,0.6802,0.6939,0.6842,0.6642,0.6642,0.6642,0.6845,0.6948,0.6942,0.6939,0.6537,0.6539,0.6537,0.6637,0.6134,0.6431,0.6833,0.7033,0.7235,0.7537,0.7939,0.7939,0.8038,0.8038,0.8151,0.8428,0.8845,0.9212,0.9621,0.9835,1.0077,1.0253,1.0363,1.0472,1.0582,-3.5703,-3.5684,-3.5661,-3.5625,-3.556,-3.5441,-3.5311,-3.5194,-3.5029,-3.4886,-3.4663,-3.4783,-3.4789,-3.4793,-3.4899,-3.4687,-3.4148,-3.3876,-3.3454,-3.3143,-3.2819,-3.2001,-3.1196,-3.0555,-3.0085,-2.8758,-2.8069,-2.7385,-2.6265,-2.4901,-2.3696,-2.225,-2.0583,-1.9162,-1.7248,-1.4838,-1.2325,-1.0276,-0.9074,-0.8003,-0.6938,-0.6009,-0.4924,-0.3209,-0.1799,-0.1174,-0.0313,0.0784,0.2668,0.3141,0.3376,0.3372,0.3765,0.4155,0.4311,0.4621,0.4932,0.5165,0.5332,0.5348,0.5448,0.584,0.6064,0.6177,0.6057,0.6083,0.6435,0.6438,0.6523,0.6609,0.6792,0.6697,0.6697,0.6435,0.6435,0.6418,0.6456,0.6479,0.6608,0.6754,0.6836,0.6839,0.6945,0.6845,0.6848,0.6742,0.6628,0.6833,0.7138,0.7135,0.7132,0.7135,0.7341,0.754,0.7739,0.7537,0.7335,0.7434,0.7637,0.7736,0.7939,0.8038,0.8137,0.8237,0.8357,0.8603,0.8888,0.9312,0.9623,0.9957,1.0201,1.0453,1.0472,1.0582,1.0582,-3.5713,-3.5624,-3.5734,-3.5582,-3.5347,-3.5323,-3.5242,-3.5145,-3.5087,-3.5048,-3.5072,-3.53,-3.5299,-3.5201,-3.5338,-3.5184,-3.4933,-3.4815,-3.464,-3.444,-3.4245,-3.3855,-3.3094,-3.2295,-3.1475,-3.0844,-2.9955,-2.8936,-2.7887,-2.6819,-2.5584,-2.394,-2.2201,-2.0333,-1.8726,-1.6079,-1.3245,-1.0576,-0.9453,-0.8237,-0.7165,-0.6163,-0.4929,-0.3283,-0.2033,-0.1409,-0.0392,0.1333,0.2982,0.3536,0.3765,0.3763,0.3843,0.4307,0.4462,0.4462,0.5467,0.5938,0.6193,0.6124,0.613,0.6178,0.6204,0.6464,0.6858,0.6874,0.67,0.6438,0.6707,0.6612,0.6609,0.6428,0.6432,0.652,0.6523,0.6465,0.6503,0.6525,0.6741,0.6771,0.6623,0.6537,0.6845,0.7051,0.7051,0.6942,0.662,0.6719,0.7232,0.7434,0.7434,0.7534,0.7739,0.7842,0.7942,0.7939,0.7939,0.8038,0.8038,0.8038,0.8038,0.8137,0.8237,0.8333,0.8538,0.866,0.9011,0.938,0.9828,1.018,1.0405,1.0538,1.0672,1.0692,1.0692,-3.5454,-3.5411,-3.5446,-3.5387,-3.5333,-3.5552,-3.5583,-3.5527,-3.5527,-3.5527,-3.5547,-3.5677,-3.5659,-3.5605,-3.5527,-3.5507,-3.5415,-3.5392,-3.5314,-3.5105,-3.5039,-3.4441,-3.3768,-3.3172,-3.2596,-3.1818,-3.1062,-3.0202,-2.8854,-2.8278,-2.7076,-2.5432,-2.2804,-1.9968,-1.7379,-1.4915,-1.2785,-1.095,-0.9523,-0.8304,-0.7387,-0.5851,-0.4219,-0.2186,-0.1564,-0.0783,0.0313,0.2273,0.3139,0.3849,0.4077,0.4309,0.4231,0.4538,0.4768,0.4693,0.5318,0.6267,0.6788,0.6912,0.6257,0.6208,0.6118,0.628,0.6151,0.6346,0.6349,0.6438,0.6618,0.6612,0.67,0.6789,0.6877,0.6874,0.6877,0.6795,0.6796,0.6813,0.6836,0.6777,0.6628,0.6566,0.6722,0.7144,0.725,0.735,0.7132,0.7229,0.7643,0.7739,0.7836,0.7836,0.7939,0.7942,0.7942,0.7939,0.8038,0.8038,0.8038,0.8038,0.8038,0.8137,0.8237,0.8432,0.8616,0.881,0.9561,1.015,1.0161,1.0398,1.0703,1.0783,1.0962,1.0887,1.0692,-3.4865,-3.468,-3.4736,-3.4661,-3.4658,-3.5264,-3.5557,-3.553,-3.5465,-3.5445,-3.5482,-3.5426,-3.5359,-3.5366,-3.5341,-3.5293,-3.5288,-3.5242,-3.5318,-3.5117,-3.4882,-3.4593,-3.4236,-3.3756,-3.3493,-3.2914,-3.2508,-3.1766,-3.0741,-2.9837,-2.8475,-2.6301,-2.2988,-1.9211,-1.6335,-1.4242,-1.2611,-1.0616,-0.8817,-0.7677,-0.6458,-0.5074,-0.383,-0.2421,-0.125,-0.0078,0.1643,0.2743,0.3294,0.3999,0.4467,0.4857,0.4854,0.5234,0.5541,0.5622,0.618,0.7025,0.7562,0.7988,0.7373,0.69,0.6297,0.6084,0.6154,0.652,0.6526,0.6526,0.6615,0.6612,0.6789,0.6966,0.6877,0.6874,0.6789,0.6707,0.656,0.6488,0.6697,0.6635,0.6873,0.6804,0.681,0.7027,0.7347,0.7547,0.7746,0.7849,0.8045,0.8237,0.8233,0.8233,0.8333,0.8428,0.8333,0.7939,0.8038,0.8038,0.8137,0.8233,0.8137,0.824,0.8336,0.863,0.9304,0.9985,1.0605,1.1024,1.0575,1.0638,1.1032,1.1124,1.1207,1.1172,1.0983,-3.4004,-3.3541,-3.3599,-3.3457,-3.3377,-3.4415,-3.4933,-3.4969,-3.4736,-3.4753,-3.4871,-3.462,-3.458,-3.4655,-3.4602,-3.4617,-3.4642,-3.4597,-3.4685,-3.469,-3.4332,-3.4471,-3.4461,-3.412,-3.3756,-3.4074,-3.3819,-3.2766,-3.2661,-3.1528,-2.9856,-2.7488,-2.3955,-1.9597,-1.6363,-1.4244,-1.2713,-1.0748,-0.9205,-0.7749,-0.614,-0.4611,-0.3597,-0.2344,-0.1093,0.0546,0.2032,0.313,0.368,0.4307,0.5007,0.5398,0.586,0.6626,0.6934,0.7395,0.7931,0.8147,0.8486,0.8896,0.8946,0.8422,0.7716,0.7397,0.6962,0.6874,0.67,0.6612,0.6704,0.6697,0.6697,0.6612,0.6438,0.6435,0.6435,0.6269,0.6017,0.6099,0.64,0.6629,0.7075,0.7208,0.7406,0.7643,0.7753,0.7543,0.7643,0.7842,0.8134,0.8814,0.8814,0.8627,0.8821,0.9114,0.9019,0.892,0.8825,0.9019,0.8627,0.8627,0.8531,0.8439,0.8538,0.9126,1.0284,1.0877,1.0801,1.0636,1.0401,1.0672,1.0848,1.1032,1.0911,1.1513,1.1688,-3.3205,-3.3296,-3.2737,-3.2613,-3.2868,-3.3168,-3.3453,-3.3645,-3.3579,-3.3608,-3.3636,-3.3584,-3.3687,-3.3949,-3.3967,-3.4108,-3.4235,-3.4338,-3.4225,-3.4018,-3.3581,-3.373,-3.3646,-3.3396,-3.3327,-3.3292,-3.3141,-3.293,-3.2732,-3.2102,-3.1107,-2.8905,-2.5816,-2.1056,-1.6213,-1.478,-1.2871,-1.1537,-0.9895,-0.8049,-0.5973,-0.4368,-0.312,-0.1327,-0.0469,0.1249,0.3124,0.3439,0.3595,0.3202,0.4678,0.5303,0.5087,0.6093,0.6865,0.7468,0.8115,0.8787,0.9616,0.9639,0.9649,0.99,0.9309,0.8273,0.7661,0.7139,0.6959,0.7051,0.6966,0.6962,0.7312,0.7316,0.7228,0.7224,0.7136,0.6881,0.6627,0.6308,0.6618,0.7289,0.7753,0.8307,0.8418,0.8261,0.8364,0.7749,0.754,0.7839,0.8326,0.9106,0.93,0.9114,0.9604,1.0096,1.0583,1.0583,1.0293,0.9998,0.9702,0.9312,0.9122,0.9031,0.9038,0.9616,1.0965,1.0774,1.0207,1.0233,1.0645,1.0108,1.0255,1.0437,1.0824,1.134,1.1702,-3.2049,-3.2017,-3.132,-3.1048,-3.1099,-3.1056,-3.1177,-3.1497,-3.2335,-3.2755,-3.2814,-3.2733,-3.281,-3.298,-3.2998,-3.3084,-3.3186,-3.2946,-3.2875,-3.2867,-3.2498,-3.2437,-3.23,-3.2199,-3.2265,-3.2264,-3.2354,-3.231,-3.2329,-3.2452,-3.1712,-3.1009,-2.8156,-1.8532,-1.0661,-0.7206,-0.9091,-0.9396,-0.9417,-0.8078,-0.5803,-0.3657,-0.1872,-0.0312,0.0234,0.2029,0.3511,0.3198,0.3906,0.3665,0.5529,0.6377,0.6465,0.7544,0.7778,0.8385,0.8703,0.9246,0.9756,1.0176,1.0502,1.0757,1.0408,0.9753,0.8886,0.8277,0.8013,0.7841,0.7577,0.7492,0.7929,0.8281,0.8368,0.8452,0.8189,0.7837,0.7312,0.6786,0.7235,0.8031,0.8718,0.9502,0.962,0.9359,0.8984,0.8674,0.8361,0.8247,0.8832,0.9604,0.9698,0.9509,1.0288,1.117,1.156,1.1658,1.117,1.0877,1.097,1.0583,1.01,1.0301,1.0699,1.1175,1.1638,1.1458,1.1277,1.0881,1.09,1.0564,1.0531,1.1107,1.133,1.1032,1.1358,-3.0677,-3.0319,-2.9615,-2.9201,-2.8717,-2.8826,-2.881,-2.8763,-3.0723,-3.1882,-3.1882,-3.1792,-3.1595,-3.16,-3.16,-3.1476,-3.1443,-3.1265,-3.0915,-3.1307,-3.0751,-3.053,-3.0482,-3.0678,-3.0785,-3.1338,-3.1293,-3.054,-3.1498,-3.1708,-3.1961,-3.2823,-3.0133,-1.7457,0.4376,0.525,0.3003,-0.1665,-0.5068,-0.6359,-0.3028,-0.1558,-0.1488,-0.0703,0.039,0.1635,0.1869,0.3433,0.5964,0.6257,0.7918,0.92,0.9729,0.9281,0.9286,0.9674,0.9976,1.0056,1.0444,1.0902,1.1311,1.1322,1.0937,1.1112,1.0707,0.9148,0.8623,0.8711,0.8536,0.8711,0.9065,0.924,0.9323,0.941,0.9323,0.8798,0.8013,0.7997,0.8659,0.9486,1.0591,1.1201,1.0877,1.0618,1.0435,0.9966,0.9648,0.9324,0.9521,1.0288,1.0096,0.9998,1.0779,1.156,1.1853,1.1853,1.1658,1.156,1.1945,1.1848,1.1365,1.1858,1.2651,1.2512,1.2271,1.2904,1.2926,1.2242,1.1663,1.1595,1.1678,1.2203,1.2117,1.1638,1.1911,-2.9275,-2.944,-2.9071,-2.856,-2.8128,-2.8354,-2.7954,-2.736,-2.8185,-2.8984,-2.9468,-2.9544,-2.9659,-2.9835,-2.992,-2.9695,-2.9211,-2.9479,-2.869,-2.8462,-2.8263,-2.8062,-2.8133,-2.8376,-2.8878,-2.8806,-2.8522,-2.8104,-2.8688,-2.9715,-3.1683,-3.4151,-3.1527,-1.6064,1.6885,1.723,1.4319,0.6339,0.1965,-0.2711,-0.2742,0.0226,0.1408,0.2105,0.3115,0.3633,0.3855,0.3993,0.5054,0.5709,1.2439,1.4308,1.3886,1.1297,1.0662,1.1273,1.1844,1.1646,1.1725,1.2089,1.2327,1.2694,1.2673,1.314,1.251,1.0356,0.9318,0.9575,0.9662,0.9932,1.0111,1.0193,1.0279,1.0371,1.0458,0.9584,0.8803,0.9353,1.0022,1.112,1.2284,1.2427,1.2114,1.1955,1.177,1.1453,1.1118,1.0905,1.0951,1.1346,1.0779,1.0685,1.1272,1.1858,1.2242,1.2528,1.2528,1.2823,1.3216,1.3017,1.2727,1.3113,1.3499,1.2934,1.28,1.3454,1.3601,1.2829,1.2446,1.2262,1.2597,1.2915,1.3171,1.2908,1.3236,-2.8276,-2.8466,-2.803,-2.758,-2.7195,-2.7136,-2.6562,-2.5898,-2.6044,-2.6227,-2.6564,-2.7255,-2.7832,-2.8059,-2.8185,-2.8076,-2.7559,-2.7716,-2.7109,-2.6446,-2.5683,-2.5317,-2.5508,-2.5763,-2.542,-2.5342,-2.4992,-2.4868,-2.5479,-2.6594,-2.8633,-3.0553,-2.8905,-1.6667,1.603,2.009,1.942,1.1362,0.7883,0.5067,0.0979,0.3037,0.3056,0.3515,0.6163,0.7497,0.7045,0.6863,0.7089,0.9873,1.6083,1.7865,1.7382,1.615,1.5271,1.5121,1.4775,1.3705,1.3763,1.3708,1.3567,1.3755,1.3688,1.384,1.3802,1.1901,1.1558,1.1643,1.0621,1.0631,1.0717,1.089,1.0809,1.0814,1.0819,1.0381,1.009,1.0233,1.081,1.1405,1.2538,1.3429,1.3222,1.3488,1.3199,1.249,1.2234,1.2097,1.2143,1.241,1.1843,1.156,1.2145,1.3022,1.389,1.3986,1.3788,1.4178,1.4382,1.458,1.4382,1.4274,1.4148,1.41,1.4088,1.404,1.3986,1.3601,1.2926,1.264,1.3066,1.3614,1.3791,1.4301,1.4934,-2.722,-2.7149,-2.6576,-2.6254,-2.6042,-2.5522,-2.4827,-2.4204,-2.4129,-2.367,-2.3242,-2.4819,-2.57,-2.635,-2.6586,-2.6704,-2.6454,-2.5777,-2.5202,-2.4096,-2.338,-2.3063,-2.2829,-2.2702,-2.2577,-2.2098,-2.1548,-2.1536,-2.1822,-2.2889,-2.3509,-2.3659,-2.1637,-1.7787,-0.0892,0.8099,1.0156,1.2532,1.2472,1.4058,1.164,0.8676,0.6944,0.7972,1.1471,1.5854,1.3925,1.2074,1.2087,1.5684,2.0616,2.0998,2.1181,2.0397,2.003,1.946,1.803,1.7113,1.6441,1.5918,1.5261,1.4817,1.4653,1.4972,1.5375,1.5233,1.4896,1.4095,1.3077,1.1895,1.2072,1.1992,1.1997,1.1763,1.1677,1.1429,1.1348,1.1377,1.1768,1.2177,1.2985,1.4102,1.445,1.4721,1.4423,1.3808,1.3481,1.3149,1.3048,1.3335,1.3199,1.3108,1.3307,1.4274,1.486,1.4956,1.4561,1.4854,1.5153,1.5743,1.6035,1.5534,1.5527,1.5913,1.5818,1.5337,1.5051,1.4854,1.4082,1.3499,1.4106,1.4846,1.5155,1.5716,1.672,-2.4905,-2.4449,-2.4314,-2.4476,-2.4714,-2.4412,-2.3618,-2.2554,-2.2323,-2.1584,-2.0859,-2.0911,-2.2274,-2.4842,-2.4772,-2.4493,-2.3759,-2.3366,-2.1909,-2.0437,-2.1233,-2.0996,-2.0556,-2.0288,-2.031,-1.9447,-1.8328,-1.8218,-1.8479,-1.902,-1.8637,-1.7523,-2.0783,-1.3308,0.3102,0.7739,0.6166,1.0607,1.5642,1.7081,1.4802,1.3377,1.5273,1.7681,2.1725,2.3891,2.348,2.1004,2.4713,2.7455,2.6819,2.5753,2.5191,2.4428,2.3617,2.3566,2.2107,2.1027,2.0306,1.9889,1.9458,1.9596,2.0032,2.0813,2.0885,2.0639,2.0212,1.9411,1.7943,1.5375,1.4939,1.4691,1.4539,1.3924,1.3698,1.2954,1.2496,1.2865,1.3453,1.3808,1.427,1.4933,1.5292,1.5629,1.6015,1.5589,1.5765,1.5422,1.5181,1.4968,1.474,1.474,1.4835,1.3884,1.3794,1.5045,1.514,1.5432,1.5818,1.6218,1.6414,1.6494,1.6588,1.6683,1.6683,1.6292,1.6103,1.5818,1.5818,1.533,1.5812,1.6286,1.6519,1.6616,1.7109]},{"header":{"parameterUnit":"m.s-1","parameterCategory":1,"la1":31.0,"la2":29.5877,"lo1":-88.7671,"lo2":-86.6584,"dy":0.0162,"dx":0.0185,"nx":115,"ny":88,"refTime":"2024-06-11T06:00:00:Z","depth":0,"parameterNumber":3,"parameterNumberName":"V-component_of_WINDS"},"data":[0.0,0.0,0.0,0.0,0.0,0.0,0.0,0.0,0.0,0.0,0.0,0.0,0.0,0.0,0.0,0.0,0.0,0.0,0.0,0.0,0.0,0.0,0.0,0.0,0.0,0.0,0.0,0.0,0.0,0.0,0.0,0.0,0.0,0.0,0.0,0.0,0.0,0.0,0.0,0.0,0.0,0.0,0.0,0.0,0.0,0.0,0.0,0.0,0.0,0.0,0.0,0.0,0.0,0.0,0.0,0.0,0.0,0.0,0.0,0.0,0.0,0.0,0.0,0.0,0.0,0.0,0.0,0.0,0.0,0.0,0.0,0.0,0.0,0.0,0.0,0.0,0.0,0.0,0.0,0.0,0.0,0.0,0.0,0.0,0.0,0.0,0.0,0.0,0.0,0.0,0.0,0.0,0.0,0.0,0.0,0.0,0.0,0.0,0.0,0.0,0.0,0.0,0.0,0.0,0.0,0.0,0.0,0.0,0.0,0.0,0.0,0.0,0.0,0.0,0.0,0.0,0.0,0.0,0.0,0.0,0.0,0.0,0.0,0.0,0.0,0.0,0.0,0.0,0.0,0.0,0.0,0.0,0.0,0.0,0.0,0.0,0.0,0.0,0.0,0.0,0.0,0.0,0.0,0.0,0.0,0.0,0.0,0.0,0.0,0.0,0.0,0.0,0.0,0.0,0.0,0.0,0.0,0.0,0.0,0.0,0.0,0.0,0.0,0.0,0.0,0.0,0.0,0.0,0.0,0.0,0.0,0.0,0.0,0.0,0.0,0.0,0.0,0.0,0.0,0.0,0.0,0.0,0.0,0.0,0.0,0.0,0.0,0.0,0.0,0.0,0.0,0.0,0.0,0.0,0.0,0.0,0.0,0.0,0.0,0.0,0.0,0.0,0.0,0.0,0.0,0.0,0.0,0.0,0.0,0.0,0.0,0.0,0.0,0.0,0.0,0.0,0.0,0.0,0.0,0.0,0.0,0.0,0.0,0.0,0.0,0.0,0.0,0.0,0.0,0.0,0.0,0.0,0.0,0.0,0.0,0.0,0.0,0.0,0.0,0.0,0.0,0.0,0.0,0.0,0.0,0.0,0.0,0.0,0.0,0.0,0.0,0.0,0.0,0.0,0.0,0.0,0.0,0.0,0.0,0.0,0.0,0.0,0.0,0.0,0.0,0.0,0.0,0.0,0.0,0.0,0.0,0.0,0.0,0.0,0.0,0.0,0.0,0.0,0.0,0.0,0.0,0.0,0.0,0.0,0.0,0.0,0.0,0.0,0.0,0.0,0.0,0.0,0.0,0.0,0.0,0.0,0.0,0.0,0.0,0.0,0.0,0.0,0.0,0.0,0.0,0.0,0.0,0.0,0.0,0.0,0.0,0.0,0.0,0.0,0.0,0.0,0.0,0.0,0.0,0.0,0.0,0.0,0.0,0.0,0.0,0.0,0.0,0.0,0.0,0.0,0.0,0.0,0.0,0.0,0.0,0.0,0.0,0.0,0.0,0.0,0.0,0.0,0.0,0.0,0.0,0.0,0.0,0.0,0.0,0.0,0.0,0.0,0.0,0.0,0.0,0.0,0.0,0.0,0.0,0.0,0.0,0.0,0.0,0.0,0.0,0.0,0.0,0.0,0.0,0.0,0.0,0.0,0.0,0.0,0.0,0.0,0.0,0.0,0.0,0.0,0.0,0.0,0.0,0.0,0.0,0.0,0.0,0.0,0.0,0.0,0.0,0.0,0.0,0.0,0.0,0.0,0.0,0.0,0.0,0.0,0.0,0.0,0.0,0.0,0.0,0.0,0.0,0.0,0.0,0.0,0.0,0.0,0.0,0.0,0.0,0.0,0.0,0.0,0.0,0.0,0.0,0.0,0.0,0.0,0.0,0.0,0.0,0.0,0.0,0.0,0.0,0.0,0.0,0.0,0.0,0.0,0.0,0.0,0.0,0.0,0.0,0.0,0.0,0.0,0.0,0.0,0.0,0.0,0.0,0.0,0.0,0.0,0.0,0.0,0.0,0.0,0.0,0.0,0.0,0.0,0.0,0.0,0.0,0.0,0.0,0.0,0.0,0.0,0.0,0.0,0.0,0.0,0.0,0.0,0.0,0.0,0.0,0.0,0.0,0.0,0.0,0.0,0.0,0.0,0.0,0.0,0.0,0.0,0.0,0.0,0.0,0.0,0.0,0.0,0.0,0.0,0.0,0.0,0.0,0.0,0.0,0.0,0.0,0.0,0.0,0.0,0.0,0.0,0.0,0.0,0.0,0.0,0.0,0.0,0.0,0.0,0.0,0.0,0.0,0.0,0.0,0.0,0.0,0.0,0.0,0.0,0.0,0.0,0.0,0.0,0.0,0.0,0.0,0.0,0.0,0.0,0.0,0.0,0.0,0.0,0.0,0.0,0.0,0.0,0.0,0.0,0.0,0.0,0.0,0.0,0.0,0.0,0.0,0.0,0.0,0.0,0.0,0.0,0.0,0.0,0.0,0.0,0.0,0.0,0.0,0.0,0.0,0.0,0.0,0.0,0.0,0.0,0.0,0.0,0.0,0.0,0.0,0.0,0.0,0.0,0.0,0.0,0.0,0.0,0.0,0.0,0.0,0.0,0.0,0.0,0.0,0.0,0.0,0.0,0.0,0.0,0.0,0.0,0.0,0.0,0.0,0.0,0.0,0.0,0.0,0.0,0.0,0.0,0.0,0.0,0.0,0.0,0.0,0.0,0.0,0.0,0.0,0.0,0.0,0.0,0.0,0.0,0.0,0.0,0.0,0.0,0.0,0.0,0.0,0.0,0.0,0.0,0.0,0.0,0.0,0.0,0.0,0.0,0.0,0.0,0.0,0.0,0.0,0.0,0.0,0.0,0.0,0.0,0.0,0.0,0.0,0.0,0.0,0.0,0.0,0.0,0.0,0.0,0.0,0.0,0.0,0.0,0.0,0.0,0.0,0.0,0.0,0.0,0.0,0.0,0.0,0.0,0.0,0.0,0.0,0.0,0.0,0.0,0.0,0.0,0.0,0.0,0.0,0.0,0.0,0.0,0.0,0.0,0.0,0.0,0.0,0.0,0.0,0.0,0.0,0.0,0.0,0.0,0.0,0.0,0.0,0.0,0.0,0.0,0.0,0.0,0.0,0.0,0.0,0.0,0.0,0.0,0.0,0.0,0.0,0.0,0.0,0.0,0.0,0.0,0.0,0.0,0.0,0.0,0.0,0.0,0.0,0.0,0.0,0.0,0.0,0.0,0.0,0.0,0.0,0.0,0.0,0.0,0.0,0.0,0.0,0.0,0.0,0.0,0.0,0.0,0.0,0.0,0.0,0.0,0.0,0.0,0.0,0.0,0.0,0.0,0.0,0.0,0.0,0.0,0.0,0.0,0.0,0.0,0.0,0.0,0.0,0.0,0.0,0.0,0.0,0.0,0.0,0.0,0.0,0.0,0.0,0.0,0.0,0.0,0.0,0.0,0.0,0.0,0.0,0.0,0.0,0.0,0.0,0.0,0.0,0.0,0.0,0.0,0.0,0.0,0.0,0.0,0.0,0.0,0.0,0.0,0.0,0.0,0.0,0.0,0.0,0.0,0.0,0.0,0.0,0.0,0.0,0.0,0.0,0.0,0.0,0.0,0.0,0.0,0.0,0.0,0.0,0.0,0.0,0.0,0.0,0.0,0.0,0.0,0.0,0.0,0.0,0.0,0.0,0.0,0.0,0.0,0.0,0.0,0.0,0.0,0.0,0.0,0.0,0.0,0.0,0.0,0.0,0.0,0.0,0.0,0.0,0.0,0.0,0.0,0.0,0.0,0.0,0.0,0.0,0.0,0.0,0.0,0.0,0.0,0.0,0.0,0.0,0.0,0.0,0.0,0.0,0.0,0.0,0.0,0.0,0.0,0.0,0.0,0.0,0.0,0.0,0.0,0.0,0.0,0.0,0.0,0.0,0.0,0.0,0.0,0.0,0.0,0.0,0.0,0.0,0.0,0.0,0.0,0.0,0.0,0.0,0.0,0.0,0.0,0.0,0.0,0.0,0.0,0.0,0.0,0.0,0.0,0.0,0.0,0.0,0.0,0.0,0.0,0.0,0.0,0.0,0.0,0.0,0.0,0.0,0.0,0.0,0.0,0.0,0.0,0.0,0.0,0.0,0.0,0.0,0.0,0.0,0.0,0.0,0.0,0.0,0.0,0.0,0.0,0.0,0.0,0.0,0.0,0.0,0.0,0.0,0.0,0.0,0.0,0.0,0.0,0.0,0.0,0.0,0.0,0.0,0.0,0.0,0.0,-0.2112,0.0,0.0,0.0,0.0,0.0,0.0,0.0,0.0,0.0,0.0,0.0,0.0,0.0,0.0,0.0,0.0,0.0,0.0,0.0,0.0,0.0,0.0,0.0,0.0,0.0,0.0,0.0,0.0,0.0,0.0,0.0,0.0,0.0,0.0,0.0,0.0,0.0,0.0,0.0,0.0,0.0,0.0,0.0,0.0,0.0,0.0,0.0,0.0,0.0,0.0,0.0,0.0,0.0,0.0,0.0,0.0,0.0,0.0,0.0,0.0,0.0,0.0,0.0,0.0,0.0,0.0,0.0,0.0,0.0,0.0,0.0,0.0,0.0,0.0,0.0,0.0,0.0,0.0,0.0,0.0,0.0,0.0,0.0,0.0,0.0,0.0,0.0,0.0,0.0,0.0,0.0,0.0,0.0,0.0,0.0,0.0,0.0,0.0,0.0,0.0,0.0,0.0,0.0,0.0,0.0,0.0,0.0,0.0,0.0,0.0,-0.2782,-0.2801,-0.2532,-0.2399,-0.2374,0.0,0.0,0.0,0.0,0.0,0.0,0.0,0.0,0.0,0.0,0.0,0.0,0.0,0.0,0.0,0.0,0.0,0.0,0.0,0.0,0.0,0.0,0.0,0.0,0.0,0.0,0.0,0.0,0.0,0.0,0.0,0.0,0.0,0.0,0.0,0.0,0.0,0.0,0.0,0.0,0.0,0.0,0.0,0.0,0.0,0.0,0.0,0.0,0.0,0.0,0.0,0.0,0.0,0.0,0.0,0.0,0.0,0.0,0.0,0.0,0.0,0.0,0.0,0.0,0.0,0.0,0.0,0.0,0.0,0.0,0.0,0.0,0.0,0.0,0.0,0.0,0.0,0.0,0.0,0.0,0.0,0.0,0.0,0.0,0.0,0.0,0.0,0.0,0.0,0.0,0.0,0.0,0.0,0.0,0.0,0.0,0.0,0.0,0.0,0.0,0.0,0.0,0.0,0.0,0.0,0.0,0.0,0.0,0.0,0.0,0.0,0.0,-0.2858,-0.2733,-0.2645,0.0,0.0,0.0,0.0,0.0,0.0,0.0,0.0,0.0,0.0,0.0,0.0,0.0,0.0,0.0,0.0,0.0,0.0,0.0,0.0,0.0,0.0,0.0,0.0,0.0,0.0,0.0,0.0,0.0,0.0,0.0,0.0,0.0,0.0,0.0,0.0,0.0,0.0,0.0,0.0,0.0,0.0,0.0,0.0,0.0,0.0,0.0,0.0,0.0,0.0,0.0,0.0,0.0,0.0,0.0,0.0,0.0,0.0,0.0,0.0,0.0,0.0,0.0,0.0,0.0,0.0,0.0,0.0,0.0,0.0,0.0,0.0,0.0,0.0,0.0,0.0,0.0,0.0,0.0,0.0,0.0,0.0,0.0,0.0,0.0,0.0,0.0,0.0,0.0,0.0,0.0,0.0,0.0,0.0,0.0,0.0,0.0,0.0,0.0,0.0,0.0,0.0,0.0,0.0,0.0,0.0,0.0,0.0,0.0,0.0,-0.3113,-0.352,-0.3528,0.0,-0.3061,0.0,0.0,0.0,0.0,0.0,0.0,0.0,0.0,0.0,0.0,0.0,0.0,0.0,0.0,0.0,0.0,0.0,0.0,0.0,0.0,0.0,0.0,0.0,0.0,0.0,0.0,0.0,0.0,0.0,0.0,0.0,0.0,0.0,0.0,0.0,0.0,0.0,0.0,0.0,0.0,0.0,0.0,0.0,0.0,0.0,0.0,0.0,0.0,0.0,0.0,0.0,0.0,0.0,0.0,0.0,0.0,0.0,0.0,0.0,0.0,0.0,0.0,0.0,0.0,0.0,0.0,0.0,0.0,0.0,0.0,0.0,0.0,0.0,0.0,0.0,0.0,0.0,0.0,0.0,0.0,0.0,0.0,0.0,0.0,0.0,0.0,0.0,0.0,0.0,0.0,0.0,0.0,0.0,0.0,0.0,0.0,0.0,0.0,0.0,0.0,0.0,0.0,0.0,0.0,0.0,0.0,0.0,0.0,0.0,0.0,-0.348,-0.3885,-0.3673,-0.3482,0.0,0.0,0.0,0.0,0.0,0.0,0.0,0.0,0.0,0.0,0.0,0.0,0.0,0.0,0.0,0.0,0.0,0.0,0.0,0.0,0.0,0.0,0.0,0.0,0.0,0.0,0.0,0.0,0.0,0.0,0.0,0.0,0.0,0.0,0.0,0.0,0.0,0.0,0.0,0.0,0.0,0.0,0.0,0.0,0.0,0.0,0.0,0.0,0.0,0.0,0.0,0.0,0.0,0.0,0.0,0.0,0.0,0.0,0.0,0.0,0.0,0.0,0.0,0.0,0.0,0.0,0.0,0.0,0.0,0.0,0.0,0.0,0.0,0.0,0.0,0.0,0.0,0.0,0.0,0.0,0.0,0.0,0.0,0.0,0.0,0.0,0.0,0.0,0.0,0.0,0.0,0.0,0.0,0.0,0.0,0.0,0.0,0.0,0.0,0.0,0.0,0.0,0.0,0.0,0.0,0.0,0.0,0.0,0.0,0.0,-0.3565,0.0,-0.4327,-0.3944,-0.3646,-0.3521,0.0,0.0,0.0,0.0,0.0,0.0,0.0,0.0,0.0,0.0,0.0,0.0,0.0,0.0,0.0,0.0,0.0,0.0,0.0,0.0,0.0,0.0,0.0,0.0,0.0,0.0,0.0,0.0,0.0,0.0,0.0,0.0,0.0,0.0,0.0,0.0,0.0,0.0,0.0,0.0,0.0,0.0,0.0,0.0,0.0,0.0,0.0,0.0,0.0,0.0,0.0,0.0,0.0,0.0,0.0,0.0,0.0,0.0,0.0,0.0,0.0,0.0,0.0,0.0,0.0,0.0,0.0,0.0,0.0,0.0,0.0,0.0,0.0,0.0,0.0,0.0,0.0,0.0,0.0,0.0,0.0,0.0,0.0,0.0,0.0,0.0,0.0,0.0,0.0,0.0,0.0,0.0,0.0,0.0,0.0,0.0,0.0,0.0,0.0,0.0,0.0,0.0,0.0,0.0,0.0,0.0,0.0,0.0,0.0,-0.4072,-0.4424,-0.5045,-0.4514,-0.4025,0.0,0.0,0.0,0.0,0.0,0.0,0.0,0.0,0.0,0.0,0.0,0.0,0.0,0.0,0.0,0.0,0.0,0.0,0.0,0.0,0.0,0.0,0.0,0.0,0.0,0.0,0.0,0.0,0.0,0.0,0.0,0.0,0.0,0.0,0.0,0.0,0.0,0.0,0.0,0.0,0.0,0.0,0.0,0.0,0.0,0.0,0.0,0.0,0.0,0.0,0.0,0.0,0.0,0.0,0.0,0.0,0.0,0.0,0.0,0.0,0.0,0.0,0.0,0.0,0.0,0.0,0.0,0.0,0.0,0.0,0.0,0.0,0.0,0.0,0.0,0.0,0.0,0.0,0.0,0.0,0.0,0.0,0.0,0.0,0.0,0.0,0.0,0.0,0.0,0.0,0.0,0.0,0.0,0.0,0.0,0.0,0.0,0.0,0.0,0.0,0.0,0.0,0.0,0.0,0.0,0.0,0.0,0.0,0.0,-0.3324,-0.3866,-0.4931,-0.6437,-0.4994,-0.4391,0.0,0.0,0.0,0.0,0.0,0.0,0.0,0.0,0.0,0.0,0.0,0.0,0.0,0.0,0.0,0.0,0.0,0.0,0.0,0.0,0.0,0.0,0.0,0.0,0.0,0.0,0.0,0.0,0.0,0.0,0.0,0.0,0.0,0.0,0.0,0.0,0.0,0.0,0.0,0.0,0.0,0.0,0.0,0.0,0.0,0.0,0.0,0.0,0.0,0.0,0.0,0.0,0.0,0.0,0.0,0.0,0.0,0.0,0.0,0.0,0.0,0.0,0.0,0.0,0.0,0.0,0.0,0.0,0.0,0.0,0.0,0.0,0.0,0.0,0.0,0.0,0.0,0.0,0.0,0.0,0.0,0.0,0.0,0.0,0.0,0.0,0.0,0.0,0.0,0.0,0.0,0.0,0.0,0.0,0.0,0.0,0.0,0.0,0.0,0.0,0.0,0.0,0.0,0.0,0.0,0.0,0.0,0.0,0.0,-0.3889,0.0,-0.5911,0.0,-0.5466,-0.4762,0.0,0.0,0.0,0.0,0.0,0.0,0.0,0.0,0.0,0.0,0.0,0.0,0.0,0.0,0.0,0.0,0.0,0.0,0.0,0.0,0.0,0.0,0.0,0.0,0.0,0.0,0.0,0.0,0.0,0.0,0.0,0.0,0.0,0.0,0.0,0.0,0.0,0.0,0.0,0.0,0.0,0.0,0.0,0.0,0.0,0.0,0.0,0.0,0.0,0.0,0.0,0.0,0.0,0.0,0.0,0.0,0.0,0.0,0.0,0.0,0.0,0.0,0.0,0.0,0.0,0.0,0.0,0.0,0.0,0.0,0.0,0.0,0.0,0.0,0.0,0.0,0.0,0.0,0.0,0.0,0.0,0.0,0.0,0.0,0.0,0.0,0.0,0.0,0.0,0.0,0.0,0.0,0.0,0.0,0.0,0.0,0.0,0.0,0.0,0.0,0.0,0.0,0.0,0.0,0.0,0.0,0.0,0.0,-0.3859,-0.598,-0.6997,-0.7217,-0.6643,-0.6027,-0.5127,0.0,0.0,0.0,0.0,0.0,0.0,0.0,0.0,0.0,0.0,0.0,0.0,0.0,0.0,0.0,0.0,0.0,0.0,0.0,0.0,0.0,0.0,0.0,0.0,0.0,0.0,0.0,0.0,0.0,0.0,0.0,0.0,0.0,0.0,0.0,0.0,0.0,0.0,0.0,0.0,0.0,0.0,0.0,0.0,0.0,0.0,0.0,0.0,0.0,0.0,0.0,0.0,0.0,0.0,0.0,0.0,0.0,0.0,0.0,0.0,0.0,0.0,0.0,0.0,0.0,0.0,0.0,0.0,0.0,0.0,0.0,0.0,0.0,0.0,0.0,0.0,0.0,0.0,0.0,0.0,0.0,0.0,0.0,0.0,0.0,0.0,0.0,0.0,0.0,0.0,0.0,0.0,0.0,0.0,0.0,0.0,0.0,0.0,0.0,0.0,0.0,0.0,0.0,0.0,0.0,0.0,0.0,0.0,0.0,-0.6187,-0.7019,-0.7748,-0.8317,-0.683,-0.6126,0.0,0.0,0.0,0.0,0.0,0.0,0.0,0.0,0.0,0.0,0.0,0.0,0.0,0.0,0.0,0.0,0.0,0.0,0.0,0.0,0.0,0.0,0.0,0.0,0.0,0.0,0.0,0.0,0.0,0.0,0.0,0.0,0.0,0.0,0.0,0.0,0.0,0.0,0.0,0.0,0.0,0.0,0.0,0.0,0.0,0.0,0.0,0.0,0.0,0.0,0.0,0.0,0.0,0.0,0.0,0.0,0.0,0.0,0.0,0.0,0.0,0.0,0.0,0.0,0.0,0.0,0.0,0.0,0.0,0.0,0.0,0.0,0.0,0.0,0.0,0.0,0.0,0.0,0.0,0.0,0.0,0.0,0.0,0.0,0.0,0.0,0.0,0.0,0.0,0.0,0.0,0.0,0.0,0.0,0.0,0.0,0.0,0.0,0.0,0.0,0.0,0.0,0.0,0.0,0.0,0.0,0.0,0.0,0.0,-0.814,-0.8973,-0.9494,-0.9725,-0.8474,-0.756,-0.7134,0.0,0.0,0.0,0.0,0.0,0.0,0.0,0.0,0.0,0.0,0.0,0.0,0.0,0.0,0.0,0.0,0.0,0.0,0.0,0.0,0.0,0.0,0.0,0.0,0.0,0.0,0.0,0.0,0.0,0.0,0.0,0.0,0.0,0.0,0.0,0.0,0.0,0.0,0.0,0.0,0.0,0.0,0.0,0.0,0.0,0.0,0.0,0.0,0.0,0.0,0.0,0.0,0.0,0.0,0.0,0.0,0.0,0.0,0.0,0.0,0.0,0.0,0.0,0.0,0.0,0.0,0.0,0.0,0.0,0.0,0.0,0.0,0.0,0.0,0.0,0.0,0.0,0.0,0.0,0.0,0.0,0.0,0.0,0.0,0.0,0.0,0.0,0.0,0.0,0.0,0.0,0.0,0.0,0.0,0.0,0.0,0.0,0.0,0.0,0.0,0.0,0.0,0.0,0.0,0.0,0.0,0.0,0.0,-1.1318,-1.2439,-1.2366,-1.0976,-1.0696,-0.9394,0.0,0.0,0.0,0.0,0.0,0.0,0.0,0.0,0.0,0.0,0.0,0.0,0.0,0.0,0.0,0.0,0.0,0.0,0.0,0.0,0.0,0.0,0.0,0.0,0.0,0.0,0.0,0.0,0.0,0.0,0.0,0.0,0.0,0.0,0.0,0.0,0.0,0.0,0.0,0.0,0.0,0.0,0.0,0.0,0.0,0.0,0.0,0.0,0.0,0.0,0.0,0.0,0.0,0.0,0.0,0.0,0.0,0.0,0.0,0.0,0.0,0.0,0.0,0.0,0.0,0.0,0.0,0.0,0.0,0.0,0.0,0.0,0.0,0.0,0.0,0.0,0.0,0.0,0.0,0.0,0.0,0.0,0.0,0.0,0.0,0.0,0.0,0.0,0.0,0.0,0.0,0.0,0.0,0.0,0.0,0.0,0.0,0.0,0.0,0.0,0.0,0.0,0.0,0.0,0.0,0.0,0.0,0.0,0.0,-1.2006,-1.4421,-1.5284,-1.4366,-1.1989,-1.0565,0.0,0.0,0.0,0.0,0.0,0.0,0.0,0.0,0.0,0.0,0.0,0.0,0.0,0.0,0.0,0.0,0.0,0.0,0.0,0.0,0.0,0.0,0.0,0.0,0.0,0.0,0.0,0.0,0.0,0.0,0.0,0.0,0.0,0.0,0.0,0.0,0.0,0.0,0.0,0.0,0.0,0.0,0.0,0.0,0.0,0.0,0.0,0.0,0.0,0.0,0.0,0.0,0.0,0.0,0.0,0.0,0.0,0.0,0.0,0.0,0.0,0.0,0.0,0.0,0.0,0.0,0.0,0.0,0.0,0.0,0.0,0.0,0.0,0.0,0.0,0.0,0.0,0.0,0.0,0.0,0.0,0.0,0.0,0.0,0.0,0.0,0.0,0.0,0.0,0.0,0.0,0.0,0.0,0.0,0.0,0.0,0.0,0.0,0.0,0.0,0.0,0.0,0.0,0.0,0.0,0.0,0.0,0.0,-1.2987,-1.4084,-1.6933,-1.835,-1.8278,-1.4797,-1.2607,0.0,0.0,0.0,0.0,0.0,0.0,0.0,0.0,0.0,0.0,0.0,0.0,0.0,0.0,0.0,0.0,0.0,0.0,0.0,0.0,0.0,0.0,0.0,0.0,0.0,0.0,0.0,0.0,0.0,0.0,0.0,0.0,0.0,0.0,0.0,0.0,0.0,0.0,0.0,0.0,0.0,0.0,0.0,0.0,0.0,0.0,0.0,0.0,0.0,0.0,0.0,0.0,0.0,0.0,0.0,0.0,0.0,0.0,0.0,0.0,0.0,0.0,0.0,0.0,0.0,0.0,0.0,0.0,0.0,0.0,0.0,0.0,0.0,0.0,0.0,0.0,0.0,0.0,0.0,0.0,0.0,0.0,0.0,0.0,0.0,0.0,0.0,0.0,0.0,0.0,0.0,0.0,0.0,0.0,0.0,0.0,0.0,0.0,0.0,0.0,0.0,0.0,0.0,0.0,0.0,0.0,0.0,0.0,-1.4952,-1.6813,-1.9287,-2.1037,-2.1732,-1.8047,-1.496,0.0,0.0,0.0,0.0,0.0,0.0,0.0,0.0,0.0,0.0,0.0,0.0,0.0,0.0,0.0,0.0,0.0,0.0,0.0,0.0,0.0,0.0,0.0,0.0,0.0,0.0,0.0,0.0,0.0,0.0,0.0,0.0,0.0,0.0,0.0,0.0,0.0,0.0,0.0,0.0,0.0,0.0,0.0,0.0,0.0,0.0,0.0,0.0,0.0,0.0,0.0,0.0,0.0,0.0,0.0,0.0,0.0,0.0,0.0,0.0,0.0,0.0,0.0,0.0,0.0,0.0,0.0,0.0,0.0,0.0,0.0,0.0,0.0,0.0,0.0,0.0,0.0,0.0,0.0,0.0,0.0,0.0,0.0,0.0,0.0,0.0,0.0,0.0,0.0,0.0,0.0,0.0,0.0,0.0,0.0,0.0,0.0,0.0,0.0,0.0,0.0,0.0,0.0,0.0,0.0,0.0,0.0,0.0,-1.6225,-1.7693,-1.9686,-2.1141,-2.2039,-1.7993,-1.5605,0.0,0.0,0.0,0.0,0.0,0.0,0.0,0.0,0.0,0.0,0.0,0.0,0.0,0.0,0.0,0.0,0.0,0.0,0.0,0.0,0.0,0.0,0.0,0.0,0.0,0.0,0.0,0.0,0.0,0.0,0.0,0.0,0.0,0.0,0.0,0.0,0.0,0.0,0.0,0.0,0.0,0.0,0.0,0.0,0.0,0.0,0.0,0.0,-1.418,0.0,0.0,0.0,0.0,0.0,0.0,0.0,0.0,0.0,0.0,0.0,0.0,0.0,0.0,0.0,0.0,0.0,0.0,0.0,0.0,0.0,0.0,0.0,0.0,0.0,0.0,0.0,0.0,0.0,0.0,0.0,0.0,0.0,0.0,0.0,0.0,0.0,0.0,0.0,0.0,0.0,0.0,0.0,0.0,0.0,0.0,0.0,0.0,0.0,0.0,0.0,0.0,0.0,0.0,0.0,0.0,0.0,0.0,0.0,-1.7568,-1.9617,-2.126,-2.2286,-2.2591,-2.0154,-1.8081,0.0,0.0,0.0,0.0,0.0,0.0,0.0,0.0,0.0,0.0,0.0,0.0,0.0,0.0,0.0,0.0,0.0,0.0,0.0,0.0,0.0,0.0,0.0,0.0,0.0,0.0,0.0,0.0,0.0,0.0,0.0,0.0,0.0,0.0,0.0,0.0,0.0,0.0,0.0,0.0,0.0,0.0,0.0,0.0,0.0,0.0,0.0,0.0,0.0,0.0,0.0,0.0,0.0,0.0,0.0,0.0,0.0,0.0,0.0,0.0,0.0,0.0,0.0,0.0,0.0,0.0,0.0,0.0,0.0,0.0,0.0,0.0,0.0,0.0,0.0,0.0,0.0,0.0,0.0,0.0,0.0,0.0,0.0,0.0,0.0,0.0,0.0,0.0,0.0,0.0,0.0,0.0,0.0,0.0,0.0,0.0,0.0,0.0,0.0,0.0,0.0,0.0,0.0,0.0,0.0,0.0,0.0,-1.6174,-1.8963,-2.2035,-2.3302,-2.3839,-2.3754,-2.2978,-2.0871,-1.7387,0.0,0.0,0.0,0.0,0.0,0.0,0.0,0.0,0.0,0.0,0.0,0.0,0.0,0.0,0.0,0.0,0.0,0.0,0.0,0.0,0.0,0.0,0.0,0.0,0.0,0.0,0.0,0.0,0.0,0.0,0.0,0.0,0.0,0.0,0.0,0.0,0.0,0.0,-0.7448,-1.3519,0.0,0.0,0.0,0.0,0.0,0.0,0.0,0.0,-1.7269,0.0,0.0,0.0,0.0,0.0,0.0,0.0,0.0,0.0,0.0,0.0,0.0,0.0,0.0,0.0,0.0,0.0,0.0,0.0,0.0,0.0,0.0,0.0,0.0,0.0,0.0,0.0,0.0,0.0,0.0,0.0,0.0,0.0,0.0,0.0,0.0,0.0,0.0,0.0,0.0,0.0,0.0,0.0,0.0,0.0,0.0,0.0,0.0,0.0,0.0,0.0,0.0,0.0,0.0,0.0,0.0,-1.7801,-1.82,-2.0462,-2.4654,-2.4968,-2.5217,-2.5384,-2.4295,-2.2065,-1.8582,0.0,0.0,0.0,0.0,0.0,0.0,0.0,0.0,0.0,0.0,0.0,0.0,0.0,0.0,0.0,0.0,0.0,0.0,0.0,0.0,0.0,0.0,0.0,0.0,0.0,0.0,0.0,0.0,0.0,0.0,0.0,0.0,0.0,0.0,0.0,0.0,0.0,0.0,0.0,-1.7652,-2.2476,0.0,0.0,0.0,0.0,0.0,0.0,0.0,0.0,-2.0205,0.0,0.0,0.0,0.0,0.0,0.0,0.0,0.0,0.0,0.0,0.0,0.0,0.0,0.0,0.0,0.0,0.0,0.0,0.0,0.0,0.0,0.0,0.0,0.0,0.0,0.0,0.0,0.0,0.0,0.0,0.0,0.0,0.0,0.0,0.0,0.0,0.0,0.0,0.0,0.0,0.0,0.0,0.0,0.0,0.0,0.0,0.0,0.0,0.0,0.0,0.0,0.0,0.0,0.0,0.0,-1.8281,-1.9992,-2.2409,-2.5709,-2.5809,-2.5863,-2.5861,-2.4447,-2.2179,0.0,0.0,0.0,0.0,0.0,0.0,0.0,0.0,0.0,0.0,0.0,0.0,0.0,0.0,0.0,0.0,0.0,0.0,0.0,0.0,0.0,0.0,0.0,0.0,0.0,0.0,0.0,0.0,0.0,0.0,0.0,0.0,0.0,0.0,0.0,0.0,0.0,0.0,0.0,0.0,-1.9784,-2.4504,-2.4414,0.0,0.0,0.0,0.0,0.0,0.0,-2.2025,-2.1356,0.0,0.0,0.0,0.0,0.0,0.0,0.0,0.0,0.0,0.0,0.0,0.0,0.0,0.0,0.0,0.0,0.0,0.0,0.0,0.0,0.0,0.0,0.0,0.0,0.0,0.0,0.0,0.0,0.0,0.0,0.0,0.0,0.0,0.0,0.0,0.0,0.0,0.0,0.0,0.0,0.0,0.0,0.0,0.0,0.0,0.0,0.0,0.0,0.0,0.0,0.0,0.0,0.0,0.0,0.0,-1.8589,-2.1462,-2.4107,-2.6564,-2.6649,-2.6558,-2.6486,-2.4423,-2.2048,0.0,0.0,0.0,0.0,0.0,0.0,0.0,0.0,0.0,0.0,0.0,0.0,0.0,0.0,0.0,0.0,0.0,0.0,0.0,0.0,0.0,0.0,0.0,0.0,0.0,0.0,0.0,0.0,0.0,0.0,0.0,0.0,0.0,0.0,0.0,0.0,0.0,0.0,0.0,0.0,0.0,-2.6219,-3.0195,-2.5928,0.0,0.0,0.0,0.0,-2.4654,-2.3933,0.0,0.0,0.0,0.0,0.0,0.0,0.0,0.0,0.0,0.0,0.0,0.0,0.0,0.0,0.0,0.0,0.0,0.0,0.0,0.0,0.0,0.0,0.0,0.0,0.0,0.0,0.0,0.0,0.0,0.0,0.0,0.0,0.0,0.0,0.0,0.0,0.0,0.0,0.0,0.0,0.0,0.0,0.0,0.0,0.0,0.0,0.0,0.0,0.0,0.0,0.0,0.0,0.0,0.0,0.0,0.0,-2.036,-2.2284,-2.4933,-2.8184,-2.814,-2.8073,-2.8207,-2.5004,-2.207,0.0,0.0,0.0,0.0,0.0,0.0,0.0,0.0,0.0,0.0,0.0,0.0,0.0,0.0,0.0,0.0,0.0,0.0,0.0,0.0,0.0,0.0,0.0,0.0,0.0,0.0,0.0,0.0,0.0,0.0,0.0,0.0,0.0,0.0,0.0,0.0,0.0,0.0,0.0,0.0,0.0,-2.9252,-3.3786,-2.9096,-2.5007,0.0,0.0,-2.7304,-2.7825,-2.8839,0.0,0.0,0.0,0.0,0.0,0.0,0.0,0.0,0.0,0.0,0.0,0.0,0.0,0.0,0.0,0.0,0.0,0.0,0.0,0.0,0.0,0.0,0.0,0.0,0.0,0.0,0.0,0.0,0.0,0.0,0.0,0.0,0.0,0.0,0.0,0.0,0.0,0.0,0.0,0.0,0.0,0.0,0.0,0.0,0.0,0.0,0.0,0.0,0.0,0.0,0.0,0.0,0.0,0.0,0.0,-1.751,-2.0957,-2.4468,-2.7443,-2.9697,-2.9492,-2.9374,-2.948,-2.5237,-2.2047,0.0,0.0,0.0,0.0,0.0,0.0,0.0,0.0,0.0,0.0,0.0,0.0,0.0,0.0,0.0,0.0,0.0,0.0,0.0,0.0,0.0,0.0,0.0,0.0,0.0,0.0,0.0,0.0,0.0,0.0,0.0,0.0,0.0,0.0,0.0,0.0,0.0,0.0,0.0,0.0,0.0,0.0,-3.4633,-3.076,0.0,0.0,0.0,-2.8143,-2.8025,0.0,0.0,0.0,0.0,0.0,0.0,0.0,0.0,0.0,0.0,0.0,0.0,0.0,0.0,0.0,0.0,0.0,0.0,0.0,0.0,0.0,0.0,0.0,0.0,0.0,0.0,0.0,0.0,0.0,0.0,0.0,0.0,0.0,0.0,0.0,0.0,0.0,0.0,0.0,0.0,0.0,0.0,0.0,0.0,0.0,0.0,0.0,0.0,0.0,0.0,0.0,0.0,0.0,0.0,0.0,0.0,0.0,-2.1259,-2.6199,-2.9462,-3.0796,-3.0525,-3.0352,-3.0286,-2.5952,0.0,0.0,0.0,0.0,0.0,0.0,0.0,0.0,0.0,0.0,0.0,0.0,0.0,0.0,0.0,0.0,0.0,0.0,0.0,0.0,0.0,0.0,0.0,0.0,0.0,0.0,0.0,-0.9758,0.0,0.0,0.0,0.0,0.0,0.0,0.0,0.0,0.0,0.0,0.0,0.0,0.0,0.0,-2.9746,-3.488,-3.1867,-2.9516,0.0,0.0,-2.8862,-2.8954,-3.0681,-3.0601,0.0,0.0,0.0,0.0,0.0,0.0,0.0,0.0,0.0,0.0,0.0,0.0,0.0,0.0,0.0,0.0,0.0,0.0,0.0,0.0,0.0,0.0,0.0,0.0,0.0,0.0,0.0,0.0,0.0,0.0,0.0,0.0,0.0,0.0,0.0,0.0,0.0,0.0,0.0,0.0,0.0,0.0,0.0,0.0,0.0,0.0,0.0,0.0,0.0,0.0,0.0,0.0,0.0,0.0,0.0,-2.1742,-2.6674,-2.9935,-3.1274,-3.0965,-3.0744,-3.0697,-2.7721,-2.416,0.0,0.0,0.0,0.0,0.0,0.0,0.0,0.0,0.0,0.0,0.0,0.0,0.0,0.0,0.0,0.0,0.0,0.0,0.0,0.0,0.0,0.0,0.0,0.0,0.0,0.0,0.0,0.0,0.0,0.0,0.0,0.0,0.0,0.0,0.0,0.0,0.0,0.0,0.0,0.0,0.0,-3.0522,-3.4976,-3.2462,-3.0733,0.0,0.0,-3.0552,-3.2182,-3.3823,-3.3219,-2.8319,0.0,0.0,0.0,0.0,0.0,0.0,0.0,0.0,0.0,0.0,0.0,0.0,0.0,0.0,0.0,0.0,0.0,0.0,0.0,0.0,0.0,0.0,0.0,0.0,0.0,0.0,0.0,0.0,0.0,0.0,0.0,0.0,0.0,0.0,0.0,0.0,0.0,0.0,0.0,0.0,0.0,0.0,0.0,0.0,0.0,0.0,0.0,0.0,0.0,0.0,0.0,0.0,0.0,-2.023,-2.2646,-2.7881,-3.134,-3.2786,-3.2524,-3.2278,-3.2177,-2.9286,-2.5752,0.0,0.0,0.0,0.0,0.0,0.0,0.0,0.0,0.0,0.0,0.0,0.0,0.0,0.0,0.0,0.0,0.0,0.0,0.0,0.0,0.0,0.0,0.0,0.0,0.0,0.0,0.0,0.0,-1.4764,-1.4767,-1.3343,0.0,0.0,0.0,0.0,0.0,0.0,0.0,0.0,0.0,0.0,-3.103,-3.6248,-3.4564,0.0,0.0,-3.3765,-3.3009,-3.2177,-3.3442,-3.2809,-2.7769,-2.668,0.0,0.0,0.0,0.0,0.0,0.0,0.0,0.0,0.0,0.0,0.0,0.0,0.0,0.0,0.0,0.0,0.0,0.0,0.0,0.0,0.0,0.0,0.0,0.0,0.0,0.0,0.0,0.0,0.0,0.0,0.0,0.0,0.0,0.0,0.0,0.0,0.0,0.0,0.0,0.0,0.0,0.0,0.0,0.0,0.0,0.0,0.0,0.0,0.0,0.0,0.0,0.0,-2.0759,-2.326,-2.8674,-3.2244,-3.381,-3.3579,-3.3325,-3.3087,-3.0667,-2.7525,0.0,0.0,0.0,0.0,0.0,0.0,0.0,0.0,0.0,0.0,0.0,0.0,0.0,0.0,0.0,0.0,0.0,0.0,0.0,0.0,0.0,0.0,0.0,0.0,0.0,0.0,0.0,0.0,-1.5293,-1.5111,-1.3442,0.0,0.0,0.0,0.0,0.0,0.0,0.0,0.0,0.0,0.0,-3.1562,-3.5867,-3.4809,-3.3769,-3.4486,-3.391,-3.2991,-3.1782,-3.2609,-3.2,-2.7967,0.0,0.0,0.0,0.0,0.0,0.0,0.0,0.0,0.0,0.0,0.0,0.0,0.0,0.0,0.0,0.0,0.0,0.0,0.0,0.0,0.0,0.0,0.0,0.0,0.0,0.0,0.0,0.0,0.0,0.0,-1.0087,0.0,0.0,0.0,0.0,0.0,0.0,0.0,0.0,0.0,0.0,0.0,0.0,0.0,0.0,0.0,0.0,0.0,0.0,0.0,0.0,0.0,0.0,-2.0872,-2.342,-2.8929,-3.246,-3.385,-3.3768,-3.3634,-3.3478,-3.1891,-2.957,-2.6365,0.0,0.0,0.0,0.0,0.0,0.0,0.0,0.0,0.0,0.0,0.0,0.0,0.0,0.0,0.0,0.0,0.0,0.0,0.0,0.0,0.0,0.0,0.0,0.0,0.0,0.0,-1.0315,-1.1995,-1.3348,0.0,0.0,0.0,0.0,0.0,0.0,0.0,0.0,0.0,0.0,-2.6814,-3.2116,-3.3277,-3.248,-3.2208,-3.2987,-3.0938,-2.9826,-3.1431,-3.1703,-3.1155,0.0,0.0,0.0,0.0,0.0,0.0,0.0,0.0,0.0,0.0,0.0,0.0,0.0,0.0,0.0,0.0,0.0,0.0,0.0,0.0,0.0,0.0,0.0,0.0,0.0,0.0,0.0,-1.2373,-1.1911,0.0,0.0,0.0,0.0,0.0,0.0,0.0,0.0,0.0,0.0,0.0,-2.1164,-2.1789,0.0,0.0,0.0,0.0,0.0,0.0,0.0,0.0,0.0,0.0,0.0,0.0,-2.2028,-2.4663,-3.0196,-3.3581,-3.4513,-3.4458,-3.4255,-3.4018,-3.2553,-2.9468,-2.4593,0.0,0.0,0.0,0.0,0.0,0.0,0.0,0.0,0.0,0.0,0.0,0.0,0.0,0.0,0.0,0.0,0.0,0.0,0.0,0.0,0.0,0.0,0.0,0.0,0.0,-1.2978,0.0,0.0,0.0,0.0,0.0,0.0,0.0,0.0,0.0,0.0,0.0,-2.4596,-2.4792,-2.7892,-3.0752,-3.2355,-3.31,-3.4141,0.0,0.0,0.0,0.0,0.0,0.0,0.0,0.0,0.0,0.0,0.0,0.0,0.0,0.0,-2.953,-2.5492,-2.6158,-2.7348,-2.7329,0.0,0.0,0.0,0.0,0.0,0.0,0.0,0.0,0.0,0.0,0.0,0.0,0.0,0.0,-1.6099,0.0,-1.5229,0.0,0.0,0.0,0.0,0.0,0.0,0.0,0.0,-2.3022,-2.4739,-2.5189,-2.579,-2.577,0.0,-2.3973,-2.1327,0.0,0.0,0.0,0.0,0.0,0.0,0.0,0.0,-2.3077,-2.5719,-3.1054,-3.4266,-3.503,-3.4945,-3.4772,-3.4508,-3.2945,-2.996,-2.5449,-2.2846,-1.9964,0.0,0.0,0.0,0.0,0.0,0.0,0.0,0.0,0.0,0.0,0.0,0.0,0.0,0.0,0.0,0.0,0.0,0.0,0.0,0.0,0.0,0.0,0.0,-1.3857,0.0,0.0,0.0,0.0,0.0,0.0,0.0,0.0,0.0,-2.407,-2.5934,-2.7041,-2.663,-2.9464,-3.1601,-3.1652,0.0,0.0,0.0,0.0,0.0,0.0,0.0,-3.0685,-2.989,-3.0363,-3.1261,-3.2676,-3.3879,-3.4389,-3.3535,0.0,0.0,-2.9955,-3.054,-3.169,-3.1692,-3.2165,-3.2383,-3.1813,-3.2402,-3.2851,0.0,0.0,0.0,0.0,0.0,0.0,0.0,0.0,-2.0614,-2.1013,0.0,-2.0048,0.0,0.0,0.0,0.0,0.0,-2.1259,0.0,0.0,-2.9125,-3.1086,-2.9557,-2.9508,-2.9497,-2.9419,-2.7796,-2.6158,-2.4482,-2.2064,0.0,0.0,0.0,0.0,0.0,0.0,-2.4044,-2.6745,-3.1558,-3.4506,-3.5372,-3.5258,-3.5078,-3.4774,-3.3053,-3.1091,-2.8914,-2.616,-2.403,-2.252,-1.7695,0.0,0.0,0.0,0.0,0.0,0.0,0.0,0.0,0.0,0.0,0.0,0.0,0.0,0.0,0.0,0.0,0.0,0.0,0.0,0.0,-1.3739,0.0,0.0,0.0,0.0,0.0,0.0,0.0,0.0,0.0,0.0,-2.6959,-2.8992,-2.9356,-2.6081,0.0,0.0,0.0,0.0,-3.3577,-3.1321,-3.0115,-2.968,-2.9853,-3.1071,-3.23,-3.3122,0.0,0.0,-3.7286,-3.5912,-3.4764,-3.3845,-3.5887,-3.666,-3.4191,-3.3807,-3.3828,-3.3848,-3.3965,-3.373,-3.3829,-3.4805,-3.5201,-2.7369,0.0,0.0,0.0,0.0,-2.3315,-2.4292,-2.5859,-2.5236,-2.4747,-2.4367,-2.3915,0.0,0.0,0.0,0.0,0.0,0.0,-2.6556,-2.7817,-3.0135,-3.1591,-3.2248,-3.2248,-3.2233,-3.2162,-3.1685,-3.1164,-3.0637,-2.9946,-2.59,-1.8744,0.0,0.0,0.0,0.0,-2.6487,-2.8589,-3.2825,-3.5168,-3.5405,-3.5345,-3.4697,-3.3368,-3.2813,-3.1398,-2.8989,-2.8092,-2.631,-2.3488,-2.1371,0.0,0.0,0.0,0.0,0.0,0.0,0.0,0.0,0.0,0.0,0.0,0.0,0.0,0.0,0.0,0.0,0.0,0.0,0.0,-1.4443,-1.6255,-1.6977,0.0,0.0,0.0,0.0,0.0,0.0,0.0,0.0,0.0,-3.1903,-3.1277,-3.0319,0.0,0.0,-3.1397,-3.1851,-3.3363,-3.4639,-3.5106,-3.5503,0.0,0.0,-3.6503,-3.593,-3.6744,-3.8277,-3.9296,-3.908,-3.9633,-3.9903,-3.9082,-4.0037,-4.0664,-4.0,-3.9336,-3.916,-3.9629,-3.9336,-3.9355,-4.0448,-4.0498,-4.0352,-3.2524,-2.8782,-2.7816,-2.7422,-2.7449,-2.7489,-2.8502,-3.0046,-2.9516,-2.9187,-2.8988,-2.8294,-2.7261,-2.5945,-2.4943,0.0,0.0,0.0,-2.9453,-3.115,-3.2007,-3.2959,-3.3866,-3.3912,-3.3886,-3.384,-3.3512,-3.3312,-3.3258,-3.2941,-2.9726,-2.3792,0.0,0.0,-2.2153,-2.5793,-2.8556,-3.0336,-3.3768,-3.5574,-3.5554,-3.5476,-3.4629,-3.2979,-3.2768,-3.1704,-2.9669,-2.9478,-2.8324,-2.5972,-2.4074,-2.1469,0.0,0.0,0.0,0.0,0.0,0.0,0.0,0.0,0.0,0.0,0.0,-1.3955,-1.2048,0.0,0.0,0.0,-1.6581,-1.715,-1.8355,-1.9335,0.0,0.0,0.0,0.0,0.0,0.0,0.0,-2.6369,-2.9687,-3.254,-3.4158,-3.34,-3.2699,-3.2707,-3.3134,-3.3786,-3.4698,0.0,-3.7175,-3.7532,-3.8079,-3.8779,-3.9762,-3.9259,-3.9089,-4.0272,-4.0923,-4.1314,-4.1376,-4.2251,-4.2715,-4.2383,-4.2598,-4.291,-4.291,-4.2773,-4.2695,-4.2871,-4.25,-4.2637,-4.3965,-4.406,-4.4212,-3.619,-3.5871,-3.2203,-3.072,-3.0797,-3.0901,-3.1844,-3.3255,-3.3255,-3.3729,-3.4328,-3.2782,-3.1652,-3.0838,-2.8553,0.0,-3.0009,-3.0825,-3.2049,-3.3594,-3.4414,-3.4784,-3.4791,-3.4802,-3.4801,-3.4769,-3.3994,-3.3598,-3.3567,-3.2747,-3.1793,-3.0775,-2.9188,-2.7886,-2.6953,-2.8462,-3.0172,-3.1917,-3.4255,-3.5592,-3.5791,-3.5611,-3.4786,-3.3246,-3.2894,-3.2038,-3.0569,-3.026,-2.9817,-2.9027,-2.5909,-2.3629,-2.2443,0.0,0.0,0.0,0.0,0.0,0.0,0.0,0.0,0.0,0.0,0.0,0.0,0.0,0.0,0.0,-2.0667,0.0,-2.403,-2.28,0.0,0.0,0.0,-2.3203,-2.6281,-2.8422,-2.995,-3.0614,0.0,0.0,-3.471,-3.5466,-3.6067,-3.6193,-3.8055,-3.9334,-3.913,-4.0136,-4.0485,-3.9084,-3.9041,-3.9169,-3.9828,-4.0715,-4.1969,-4.3384,-4.3765,-4.3642,-4.3652,-4.375,-4.3808,-4.3711,-4.3789,-4.3867,-4.3887,-4.4531,-4.4902,-4.4316,-4.4043,-4.418,-4.5215,-4.5879,-4.6484,-3.7098,-3.6841,-3.4803,-3.3973,-3.3993,-3.401,-3.4314,-3.4754,-3.4793,-3.4908,-3.5042,-3.4658,-3.441,-3.4224,-3.3722,-3.3692,-3.401,-3.4322,-3.4661,-3.5095,-3.5444,-3.5623,-3.5618,-3.5661,-3.5682,-3.5683,-3.5468,-3.5351,-3.5296,-3.508,-3.3853,-3.1767,-3.1273,-2.9986,-2.7912,-2.9477,-3.0889,-3.1957,-3.3231,-3.4501,-3.5752,-3.5754,-3.493,-3.3316,-3.316,-3.2018,-2.9792,-2.9627,-2.9143,-2.817,-2.6732,-2.4937,-2.2719,-1.8846,0.0,0.0,0.0,0.0,0.0,0.0,0.0,0.0,0.0,-1.7094,-1.3375,0.0,-1.9087,0.0,-2.3591,-2.6211,-2.6605,-2.6233,0.0,0.0,-2.6974,-2.7879,-3.0016,-3.2349,-3.3659,-3.3323,-3.4955,-3.647,-3.7268,-3.8171,-3.8966,-3.9506,-3.8501,-3.9256,-4.3419,-4.2885,-4.1855,-4.1643,-4.2992,-4.4346,-4.421,-4.4718,-4.5098,-4.559,-4.5098,-4.4599,-4.4414,-4.457,-4.4629,-4.4453,-4.4551,-4.4922,-4.5566,-4.5859,-4.6465,-4.7266,-4.6621,-4.6152,-4.7637,-4.7617,-4.7539,-3.6787,-3.657,-3.5055,-3.4061,-3.3521,-3.4546,-3.499,-3.5095,-3.5232,-3.5315,-3.5315,-3.5315,-3.534,-3.5418,-3.547,-3.5454,-3.5452,-3.5494,-3.5504,-3.5516,-3.5691,-3.5797,-3.5818,-3.591,-3.5979,-3.601,-3.5966,-3.5934,-3.5895,-3.589,-3.5154,-3.3743,-3.3738,-3.2628,-3.0496,-3.0231,-3.0549,-3.1409,-3.2652,-3.4109,-3.5732,-3.5791,-3.4633,-3.2264,-3.2101,-3.0707,-2.7801,-2.7724,-2.7252,-2.6287,-2.5418,-2.4113,-2.2244,-1.923,-1.6942,0.0,0.0,0.0,0.0,0.0,0.0,0.0,0.0,0.0,0.0,0.0,-2.1836,-2.2258,-2.6135,-2.846,-2.8099,-2.8673,-2.9374,-3.0221,-3.1149,-3.2403,-3.415,-3.5988,-3.6966,-3.6593,-3.7732,-3.8897,-3.9871,-4.0427,-4.1071,-4.1888,-4.1189,-4.1908,-4.5176,-4.4889,-4.4039,-4.414,-4.5302,-4.625,-4.6266,-4.628,-4.6289,-4.6269,-4.5898,-4.5527,-4.5391,-4.5469,-4.5664,-4.6016,-4.6152,-4.6445,-4.7285,-4.7812,-4.8398,-4.9043,-4.9023,-4.8867,-4.9336,-4.9101,-4.9023,-3.5937,-3.5823,-3.4243,-3.2866,-3.1898,-3.3813,-3.4415,-3.413,-3.4451,-3.4737,-3.4944,-3.517,-3.5326,-3.5416,-3.5311,-3.5336,-3.5432,-3.5391,-3.5368,-3.5383,-3.5514,-3.5609,-3.5688,-3.583,-3.5908,-3.5984,-3.5926,-3.5899,-3.5898,-3.5898,-3.5781,-3.5601,-3.5563,-3.4695,-3.2962,-3.0721,-2.9952,-3.069,-3.24,-3.3992,-3.5422,-3.5255,-3.3623,-3.0554,-3.036,-2.8812,-2.5608,-2.5447,-2.503,-2.4171,-2.3366,-2.2641,-2.2002,-1.9545,-1.8225,0.0,-1.6758,0.0,0.0,0.0,0.0,0.0,0.0,0.0,0.0,-2.4087,-2.4771,-2.5734,-2.854,-3.0136,-2.9794,-3.0966,-3.2443,-3.4099,-3.5181,-3.643,-3.7921,-3.9026,-3.9681,-3.9661,-4.0326,-4.1132,-4.1879,-4.2175,-4.2616,-4.3311,-4.4199,-4.506,-4.608,-4.6157,-4.6027,-4.6295,-4.6287,-4.6307,-4.6289,-4.6289,-4.6289,-4.6289,-4.625,-4.6289,-4.623,-4.6367,-4.6797,-4.7754,-4.7832,-4.8027,-4.8906,-4.9648,-5.0156,-5.0312,-5.0762,-5.0957,-5.0488,-5.0332,-5.0586,-3.553,-3.5614,-3.4129,-3.3535,-3.3589,-3.3642,-3.2416,-3.0354,-3.0639,-3.1576,-3.3044,-3.4478,-3.5088,-3.5018,-3.5105,-3.5105,-3.5034,-3.5102,-3.5168,-3.5159,-3.5366,-3.5473,-3.5533,-3.5687,-3.5799,-3.5917,-3.5914,-3.5884,-3.5893,-3.5886,-3.5211,-3.3906,-3.3822,-3.2938,-3.1324,0.0,0.0,0.0,-3.2419,-3.3448,-3.3701,-3.238,-3.069,-2.869,-2.8586,0.0,-2.4723,-2.456,-2.415,-2.3291,-2.3076,0.0,0.0,0.0,0.0,0.0,0.0,0.0,0.0,0.0,0.0,0.0,-2.4645,-2.4659,-2.3938,-2.6357,-2.8561,-2.9912,-3.121,-3.2728,-3.4605,-3.5059,-3.5685,-3.6761,-3.7824,-3.8647,-3.9174,-3.9985,-4.0558,-4.0558,-4.0713,-4.1151,-4.2027,-4.2743,-4.3322,-4.3636,-4.4967,-4.6041,-4.6247,-4.6287,-4.6286,-4.6289,-4.6289,-4.6289,-4.6289,-4.6289,-4.6289,-4.6289,-4.6289,-4.6289,-4.6328,-4.6894,-4.7637,-4.8594,-4.8691,-4.8926,-4.9785,-5.0098,-5.043,-5.1035,-5.1289,-5.1348,-5.1211,-5.1172,-5.123,-3.4164,0.0,-3.33,-3.2596,0.0,-3.2032,-3.0794,-2.8947,-3.0962,-3.2437,-3.3543,-3.4452,-3.4908,-3.4962,-3.4125,-3.3764,-3.3726,-3.2909,-3.2985,-3.3781,-3.3941,-3.4482,-3.5372,-3.5527,-3.5679,-3.5795,-3.5866,-3.5889,-3.5899,-3.5892,-3.5474,-3.4661,-3.4613,-3.4152,-3.3338,-3.3336,-3.2882,-3.1982,-3.285,-3.3723,-3.4517,-3.3704,-3.2186,-3.0127,0.0,0.0,0.0,0.0,0.0,0.0,0.0,0.0,0.0,0.0,0.0,-2.4768,-2.4029,-2.4239,-2.5835,-2.6285,-2.7155,-2.8772,-2.9774,-2.9524,-2.7708,-3.0303,-3.2344,-3.3004,-3.3517,-3.4448,-3.6046,-3.6634,-3.7296,-3.829,-3.9265,-3.9928,-4.0147,-4.052,-4.079,-4.0848,-4.119,-4.1783,-4.2666,-4.3605,-4.437,-4.4819,-4.567,-4.6289,-4.6287,-4.6306,-4.6289,-4.6289,-4.6289,-4.6289,-4.6289,-4.6289,-4.6308,-4.6289,-4.6289,-4.6289,-4.6289,-4.666,-4.7598,-4.9512,-4.9707,-4.9609,-5.0547,-5.0781,-5.0937,-5.1269,-5.1387,-5.1387,-5.1387,-5.1387,-5.1387,-3.2698,-3.2706,-3.2315,-3.1393,-3.0324,-3.0659,-3.0131,-2.9239,0.0,0.0,0.0,-3.4386,-3.4672,-3.4886,-3.3449,-3.2878,-3.2901,-3.1452,-3.1498,-3.2842,-3.2963,-3.3786,-3.5162,-3.5366,-3.5516,-3.566,-3.5788,-3.5859,-3.5866,-3.5883,-3.5889,-3.5889,-3.5889,-3.5899,-3.5899,-3.5898,-3.5213,-3.3842,-3.3448,-3.399,-3.5373,-3.5094,-3.3835,-3.1605,-3.0856,-2.942,-2.7199,-2.642,-2.5712,-2.502,-2.4911,-2.4743,-2.4416,-2.4988,-2.5827,-2.6883,-2.7559,-2.8911,-3.1099,-3.1118,-3.1727,-3.3287,-3.4045,-3.3749,-3.2154,-3.4048,-3.5207,-3.5049,-3.5288,-3.5763,-3.6478,-3.7349,-3.8309,-3.9315,-4.0077,-4.0612,-4.0778,-4.079,-4.079,-4.0887,-4.1538,-4.2458,-4.3338,-4.4277,-4.5249,-4.6035,-4.623,-4.6289,-4.6289,-4.6289,-4.6289,-4.6289,-4.6289,-4.6348,-4.6523,-4.6582,-4.6582,-4.6875,-4.6836,-4.666,-4.6415,-4.6638,-4.8086,-5.0742,-5.0586,-5.0508,-5.1172,-5.1328,-5.1387,-5.1387,-5.1387,-5.1387,-5.1387,-5.1387,-5.1387,-3.1968,-3.2252,-3.1545,-3.1333,-3.1476,-3.1548,-3.1655,-3.1794,-3.1618,-3.1673,-3.2024,-3.3462,-3.4307,-3.4649,-3.4402,-3.4392,-3.4548,-3.432,-3.432,0.0,-3.4566,-3.4772,-3.5102,-3.5216,-3.5316,-3.5457,-3.5621,-3.5724,-3.5741,-3.5853,-3.5889,-3.5889,-3.5889,-3.5894,-3.589,-3.5896,-3.5808,-3.5578,-3.4081,-3.3417,-3.3629,-3.2246,-3.0983,-2.9916,-2.9819,-2.9143,-2.7996,-2.7833,-2.7712,-2.7566,-2.7556,-2.8159,-2.9525,-2.9654,-3.0494,-3.1975,-3.2238,-3.2773,-3.3761,-3.3817,-3.4251,-3.5198,-3.5277,-3.5028,-3.4668,-3.5177,-3.5463,-3.532,-3.5933,-3.6719,-3.7526,-3.8393,-3.9262,-4.0158,-4.0582,-4.0778,-4.079,-4.079,-4.079,-4.0829,-4.1557,-4.2477,-4.34,-4.4336,-4.5306,-4.6055,-4.6289,-4.6289,-4.6289,-4.6289,-4.6289,-4.6289,-4.6289,-4.6621,-4.7051,-4.7383,-4.7519,-4.8418,-4.8301,-4.7744,-4.6704,-4.7788,-4.9375,-5.1055,-5.1094,-5.1172,-5.1348,-5.1387,-5.1387,-5.1387,-5.1387,-5.1387,-5.1387,-5.1387,-5.1385,-3.0734,-3.0924,-3.1059,-3.1201,-3.1376,-3.1603,-3.1823,-3.2004,-3.1838,-3.2076,-3.2617,-3.3403,-3.3924,-3.4186,-3.3324,-3.2982,-3.3133,-3.2372,-3.2524,-3.3354,-3.3488,-3.4054,-3.4962,-3.5086,-3.52,-3.5288,-3.5451,-3.5527,-3.5551,-3.564,-3.5713,-3.5799,-3.5866,-3.5889,-3.5894,-3.588,-3.5927,-3.5919,-3.5135,-3.4703,-3.4706,-3.3958,-3.3383,-3.2973,-3.2524,-3.2077,-3.1637,-3.1159,-3.0906,-3.093,-3.092,-3.1298,-3.2038,-3.2117,-3.2645,-3.3785,-3.3914,-3.4236,-3.5059,-3.5106,-3.5259,-3.5646,-3.5601,-3.5521,-3.5438,-3.5528,-3.5727,-3.6037,-3.6454,-3.7219,-3.842,-3.9061,-3.9714,-4.0563,-4.0765,-4.081,-4.079,-4.079,-4.079,-4.0926,-4.2034,-4.3012,-4.3461,-4.476,-4.5767,-4.625,-4.6289,-4.6289,-4.6289,-4.6289,-4.6289,-4.6289,-4.6308,-4.6445,-4.6855,-4.6894,-4.707,-4.7441,-4.7461,-4.7533,-4.7492,-4.8691,-4.927,-4.9961,-5.0703,-5.1133,-5.0918,-5.1133,-5.1328,-5.1387,-5.1387,-5.1387,-5.1402,-5.1396,-5.1394,-2.9601,-2.9793,-3.0444,-3.0788,-3.0965,-3.1393,-3.1582,-3.1603,-3.1967,-3.2535,-3.3087,-3.3266,-3.3552,-3.3707,-3.2502,-3.2059,-3.2071,-3.1092,-3.1325,-3.2491,-3.2807,-3.3583,-3.4737,-3.4982,-3.5069,-3.5133,-3.5273,-3.5339,-3.5368,-3.5418,-3.5532,-3.5655,-3.5767,-3.584,-3.5869,-3.5858,-3.5883,-3.589,-3.5888,-3.5917,-3.5912,-3.5937,-3.5915,-3.5849,-3.5222,-3.4893,-3.4855,-3.4228,-3.389,-3.3877,-3.389,-3.3882,-3.3887,-3.39,-3.4151,-3.4703,-3.4805,-3.5069,-3.5621,-3.5716,-3.5704,-3.5704,-3.5704,-3.5704,-3.5704,-3.5825,-3.6093,-3.6652,-3.698,-3.7713,-3.8979,-3.9618,-4.0055,-4.0713,-4.079,-4.079,-4.079,-4.079,-4.081,-4.0996,-4.2395,-4.3485,-4.3822,-4.5132,-4.6211,-4.6269,-4.6289,-4.6289,-4.6289,-4.6289,-4.6289,-4.6289,-4.6289,-4.6445,-4.6523,-4.666,-4.6777,-4.6786,-4.6958,-4.7495,-4.828,-4.8537,-4.8793,-4.9199,-5.0,-5.0664,-5.0527,-5.0957,-5.1348,-5.1387,-5.1387,-5.1387,-5.1385,-5.1398,-5.1398,-2.9058,-2.9406,-2.9524,-2.9908,-3.051,-3.0982,-3.1162,-3.1201,-3.1565,-3.1787,-3.1986,-3.2702,-3.3232,-3.3514,-3.3341,-3.3376,-3.366,-3.3642,-3.3647,-3.391,-3.4252,-3.4494,-3.4607,-3.4831,-3.4908,-3.4926,-3.5119,-3.5216,-3.5209,-3.5361,-3.5466,-3.5535,-3.559,-3.5676,-3.571,-3.5728,-3.5787,-3.5889,-3.588,-3.5919,-3.5994,-3.5997,-3.5974,-3.5895,-3.5819,-3.5764,-3.5714,-3.5695,-3.564,-3.5655,-3.5601,-3.5642,-3.5627,-3.563,-3.5652,-3.5646,-3.5668,-3.5698,-3.5718,-3.5706,-3.5704,-3.5704,-3.5704,-3.5704,-3.5742,-3.6361,-3.6775,-3.7015,-3.7607,-3.8477,-3.9386,-4.0172,-4.0636,-4.0752,-4.079,-4.079,-4.079,-4.079,-4.081,-4.0887,-4.2492,-4.3524,-4.3848,-4.5221,-4.623,-4.6289,-4.6289,-4.6289,-4.6289,-4.6289,-4.6289,-4.6289,-4.6289,-4.6601,-4.709,-4.7441,-4.7451,-4.8117,-4.8425,-4.8203,-4.8019,-4.8227,-4.8728,-4.8696,-4.9282,-4.9707,-5.0547,-5.1367,-5.125,-5.1035,-5.1088,-5.1304,-5.1355,-5.1316,-5.1301,-2.8336,-2.856,-2.9164,-2.975,-3.0274,-3.0551,-3.0658,-3.074,-3.1145,-3.1355,-3.1414,-3.1967,-3.2486,-3.2858,-3.284,-3.3057,-3.3458,-3.3634,-3.3733,-3.3813,-3.4074,-3.4237,-3.426,-3.4394,-3.4564,-3.471,-3.4793,-3.4908,-3.5015,-3.5193,-3.5328,-3.5384,-3.5485,-3.5574,-3.557,-3.5609,-3.566,-3.5715,-3.5764,-3.5794,-3.5833,-3.5894,-3.5947,-3.5952,-3.593,-3.5937,-3.595,-3.5933,-3.5895,-3.5898,-3.5895,-3.5886,-3.5896,-3.5885,-3.5897,-3.5878,-3.5838,-3.5776,-3.5707,-3.5697,-3.5706,-3.5704,-3.5704,-3.5704,-3.5742,-3.6439,-3.7096,-3.7677,-3.845,-3.9321,-4.0152,-4.0597,-4.079,-4.079,-4.079,-4.079,-4.079,-4.0829,-4.1035,-4.1609,-4.2744,-4.3795,-4.4389,-4.5484,-4.623,-4.6289,-4.6289,-4.6289,-4.6289,-4.6289,-4.6289,-4.6289,-4.6264,-4.638,-4.675,-4.6781,-4.694,-4.7126,-4.7171,-4.6989,-4.7033,-4.6955,-4.7265,-4.7715,-4.831,-4.8669,-4.8887,-4.9648,-4.9932,-4.999,-4.9975,-5.0022,-5.05,-5.0633,-5.0789,-2.7665,-2.7947,-2.895,-2.9589,-2.9973,-3.0231,-3.0359,-3.0359,-3.0699,-3.0845,-3.0885,-3.1184,-3.1548,-3.1986,-3.2248,-3.2619,-3.3055,-3.3291,-3.3361,-3.34,-3.3715,-3.3854,-3.388,-3.4043,-3.425,-3.4431,-3.4561,-3.471,-3.4889,-3.507,-3.5157,-3.5215,-3.534,-3.5412,-3.543,-3.5495,-3.5554,-3.5618,-3.5669,-3.5713,-3.5729,-3.5827,-3.5929,-3.5958,-3.5935,-3.5942,-3.6007,-3.5948,-3.5937,-3.5914,-3.5914,-3.589,-3.5896,-3.5888,-3.5885,-3.5883,-3.5842,-3.5785,-3.5708,-3.5718,-3.5697,-3.5706,-3.5715,-3.5704,-3.5878,-3.6651,-3.7502,-3.8141,-3.9204,-4.0152,-4.0655,-4.079,-4.079,-4.079,-4.079,-4.079,-4.081,-4.0848,-4.1195,-4.2039,-4.2959,-4.4048,-4.5092,-4.5879,-4.6289,-4.6289,-4.6289,-4.6289,-4.6289,-4.6289,-4.6289,-4.6289,-4.625,-4.6255,-4.622,-4.6242,-4.6131,-4.6091,-4.6157,-4.6181,-4.6065,-4.6104,-4.6413,-4.7409,-4.7922,-4.8379,-4.8687,-4.8902,-4.8867,-4.8883,-4.8909,-4.9048,-4.9661,-4.9891,-5.034,-2.7115,-2.7665,-2.8795,-2.9289,-2.9396,-2.993,-3.0189,-3.0231,-3.0231,-3.0274,-3.0274,-3.0316,-3.0576,-3.1162,-3.1913,-3.2521,-3.2965,-3.2993,-3.3055,-3.316,-3.339,-3.3514,-3.3542,-3.3873,-3.4006,-3.4074,-3.4367,-3.4628,-3.4851,-3.4964,-3.502,-3.5002,-3.511,-3.5181,-3.5286,-3.5296,-3.5412,-3.5554,-3.565,-3.5685,-3.5721,-3.5833,-3.5883,-3.5908,-3.589,-3.5942,-3.6005,-3.5994,-3.6007,-3.5977,-3.593,-3.59,-3.589,-3.5893,-3.5896,-3.5889,-3.583,-3.5803,-3.5794,-3.5737,-3.5707,-3.5697,-3.5695,-3.5723,-3.5897,-3.7154,-3.8083,-3.8237,-3.9746,-4.0694,-4.0771,-4.079,-4.079,-4.079,-4.079,-4.079,-4.079,-4.0868,-4.1294,-4.2185,-4.3229,-4.444,-4.5968,-4.6269,-4.6289,-4.6289,-4.6289,-4.6387,-4.6523,-4.6445,-4.6308,-4.6367,-4.6339,-4.6273,-4.622,-4.6162,-4.6085,-4.6022,-4.5996,-4.6007,-4.6027,-4.6162,-4.6607,-4.6872,-4.6888,-4.7378,-4.8398,-4.8769,-4.8627,-4.8563,-4.8493,-4.8685,-4.9114,-4.9657,-5.0184,-2.6736,-2.7515,-2.7963,-2.8559,-2.9182,-2.9515,-2.9782,-3.0076,-3.0146,-3.0205,-3.0205,-3.0205,-3.0468,-3.0885,-3.1184,-3.1787,-3.2506,-3.2555,-3.2687,-3.2961,-3.3099,-3.319,-3.319,-3.3361,-3.3542,-3.3688,-3.391,-3.4197,-3.4458,-3.4628,-3.4734,-3.4775,-3.4944,-3.5076,-3.5094,-3.5143,-3.5239,-3.533,-3.5393,-3.5461,-3.5535,-3.565,-3.5724,-3.5779,-3.5844,-3.5929,-3.6002,-3.6005,-3.5981,-3.5952,-3.5954,-3.5936,-3.5918,-3.5893,-3.59,-3.5875,-3.5833,-3.5806,-3.5784,-3.5747,-3.5697,-3.5706,-3.5715,-3.5936,-3.6535,-3.7522,-3.8431,-3.9108,-4.0055,-4.0752,-4.079,-4.079,-4.079,-4.079,-4.079,-4.081,-4.0848,-4.0958,-4.1509,-4.2937,-4.4362,-4.5623,-4.6016,-4.6289,-4.6289,-4.6289,-4.6289,-4.6738,-4.748,-4.709,-4.6445,-4.6855,-4.6622,-4.6227,-4.6201,-4.6162,-4.6085,-4.5969,-4.5916,-4.6007,-4.6046,-4.5969,-4.6297,-4.6557,-4.6383,-4.6503,-4.7571,-4.7557,-4.7553,-4.7491,-4.7481,-4.8041,-4.8642,-4.9091,-4.9833,-2.6457,-2.7225,-2.7414,-2.7997,-2.8842,-2.9152,-2.9515,-2.9946,-3.0076,-3.0119,-3.0103,-3.0103,-3.0258,-3.0518,-3.0576,-3.1067,-3.186,-3.2127,-3.2403,-3.2705,-3.2884,-3.2997,-3.2997,-3.3042,-3.316,-3.335,-3.3597,-3.3868,-3.4173,-3.4404,-3.4532,-3.4624,-3.4794,-3.4907,-3.4984,-3.5058,-3.5113,-3.5198,-3.5262,-3.5345,-3.5418,-3.5531,-3.5621,-3.5713,-3.5788,-3.5878,-3.5967,-3.5977,-3.5978,-3.5952,-3.5952,-3.5934,-3.5921,-3.5884,-3.5892,-3.5875,-3.5827,-3.5801,-3.5781,-3.5745,-3.5697,-3.5706,-3.5734,-3.6033,-3.6845,-3.7696,-3.8547,-3.9417,-4.0288,-4.079,-4.079,-4.081,-4.0829,-4.0829,-4.0829,-4.0848,-4.0958,-4.1228,-4.2244,-4.3802,-4.5281,-4.6133,-4.6289,-4.6289,-4.6289,-4.6289,-4.6289,-4.6894,-4.7558,-4.7187,-4.6445,-4.6992,-4.6601,-4.6289,-4.6216,-4.6171,-4.6125,-4.6021,-4.5988,-4.6046,-4.604,-4.5944,-4.597,-4.6177,-4.627,-4.6293,-4.6297,-4.6288,-4.6301,-4.6297,-4.6544,-4.7081,-4.7744,-4.8427,-4.9286,-2.6272,-2.687,-2.7291,-2.775,-2.8336,-2.8795,-2.938,-2.9726,-2.9814,-2.977,-2.9814,-2.9858,-2.993,-3.006,-3.0189,-3.051,-3.1044,-3.1679,-3.2092,-3.2386,-3.2705,-3.2884,-3.2916,-3.2979,-3.3011,-3.3073,-3.3473,-3.3815,-3.408,-3.4173,-3.4315,-3.4523,-3.4604,-3.4764,-3.4984,-3.4984,-3.5058,-3.5181,-3.5251,-3.5316,-3.5405,-3.5495,-3.559,-3.5668,-3.5693,-3.576,-3.5903,-3.5973,-3.5994,-3.5991,-3.5952,-3.5895,-3.5903,-3.5888,-3.5895,-3.59,-3.5833,-3.5803,-3.5788,-3.5735,-3.5707,-3.5716,-3.5695,-3.6071,-3.7019,-3.7773,-3.8605,-3.9572,-4.0307,-4.079,-4.081,-4.0868,-4.0887,-4.09,-4.0873,-4.0916,-4.1112,-4.1795,-4.2995,-4.459,-4.5742,-4.625,-4.6289,-4.6289,-4.6289,-4.6289,-4.6406,-4.6621,-4.7031,-4.6797,-4.6445,-4.6504,-4.6465,-4.6289,-4.623,-4.6196,-4.6141,-4.6112,-4.6085,-4.6104,-4.61,-4.6048,-4.6075,-4.626,-4.6284,-4.6289,-4.6289,-4.6297,-4.6295,-4.6309,-4.6342,-4.6475,-4.7237,-4.8076,-4.8857,-2.6286,-2.6779,-2.6974,-2.7291,-2.775,-2.7963,-2.8304,-2.8779,-2.8779,-2.8997,-2.9319,-2.9319,-2.9576,-2.9858,-2.9989,-3.0103,-3.0342,-3.0851,-3.1493,-3.2197,-3.242,-3.2639,-3.2834,-3.2916,-3.2965,-3.3011,-3.3135,-3.3327,-3.3587,-3.3762,-3.3931,-3.4076,-3.4423,-3.4626,-3.4737,-3.4851,-3.4964,-3.5075,-3.5143,-3.5209,-3.5277,-3.53,-3.5378,-3.55,-3.5579,-3.5676,-3.5747,-3.5919,-3.6001,-3.601,-3.5991,-3.5948,-3.5897,-3.5896,-3.5896,-3.5891,-3.5846,-3.5788,-3.5786,-3.5732,-3.5706,-3.5695,-3.5715,-3.6419,-3.756,-3.8025,-3.8856,-4.0094,-4.0694,-4.0848,-4.0829,-4.0887,-4.0938,-4.09,-4.0937,-4.1034,-4.1371,-4.24,-4.3668,-4.4805,-4.5762,-4.623,-4.6289,-4.6289,-4.6289,-4.6367,-4.6738,-4.7226,-4.7812,-4.7363,-4.7539,-4.791,-4.7226,-4.6308,-4.6269,-4.6308,-4.6345,-4.6386,-4.6402,-4.6427,-4.6352,-4.6348,-4.6378,-4.6245,-4.6289,-4.6293,-4.6293,-4.6309,-4.6306,-4.6323,-4.6358,-4.669,-4.7178,-4.792,-4.8818,-2.5715,-2.6447,-2.6447,-2.6893,-2.7464,-2.7515,-2.7799,-2.824,-2.8288,-2.8496,-2.8795,-2.8779,-2.8997,-2.9319,-2.9576,-2.9576,-2.9544,-3.0123,-3.0811,-3.1459,-3.1914,-3.2127,-3.2437,-3.2588,-3.282,-3.2979,-3.2979,-3.3073,-3.3244,-3.3404,-3.3582,-3.3803,-3.4134,-3.432,-3.4451,-3.4659,-3.4813,-3.4889,-3.5001,-3.5147,-3.5196,-3.5239,-3.533,-3.5405,-3.5531,-3.5602,-3.5663,-3.5846,-3.5948,-3.6001,-3.601,-3.5966,-3.5898,-3.589,-3.5884,-3.5886,-3.5849,-3.5788,-3.5786,-3.5737,-3.5718,-3.5706,-3.5704,-3.6439,-3.7773,-3.8218,-3.8972,-4.0442,-4.0829,-4.0848,-4.0829,-4.0906,-4.0974,-4.0965,-4.1014,-4.1349,-4.2015,-4.3313,-4.4473,-4.5371,-4.5996,-4.623,-4.6289,-4.6289,-4.6289,-4.6406,-4.6777,-4.7656,-4.8223,-4.7773,-4.7851,-4.7734,-4.6973,-4.6406,-4.6308,-4.6387,-4.6523,-4.6669,-4.6795,-4.6867,-4.6881,-4.6898,-4.6924,-4.644,-4.63,-4.6293,-4.629,-4.6306,-4.6323,-4.6358,-4.6554,-4.6788,-4.7256,-4.8115,-4.9032,-2.4751,-2.577,-2.5839,-2.6336,-2.7129,-2.7195,-2.7369,-2.7932,-2.803,-2.803,-2.8128,-2.8176,-2.8304,-2.8448,-2.8997,-2.8997,-2.8811,-2.9589,-3.0097,-3.0377,-3.0943,-3.1459,-3.1771,-3.2179,-3.2555,-3.2948,-3.2979,-3.3042,-3.3104,-3.3147,-3.3298,-3.364,-3.3746,-3.3852,-3.4185,-3.4433,-3.4598,-3.4733,-3.4927,-3.5073,-3.5174,-3.5326,-3.5391,-3.5405,-3.5543,-3.563,-3.565,-3.5762,-3.5909,-3.5994,-3.6007,-3.5984,-3.5918,-3.589,-3.5882,-3.5882,-3.5831,-3.5813,-3.5788,-3.5745,-3.5706,-3.5706,-3.5762,-3.6419,-3.7851,-3.8276,-3.8914,-4.0558,-4.081,-4.081,-4.0829,-4.0906,-4.0983,-4.1018,-4.121,-4.1935,-4.3437,-4.4394,-4.5156,-4.5937,-4.6289,-4.6289,-4.6289,-4.6289,-4.6289,-4.6348,-4.6484,-4.7363,-4.7734,-4.7422,-4.666,-4.6504,-4.666,-4.6406,-4.6289,-4.6308,-4.6562,-4.7489,-4.7519,-4.7441,-4.7461,-4.749,-4.7615,-4.7102,-4.6475,-4.6429,-4.6384,-4.6479,-4.6729,-4.7042,-4.71,-4.7022,-4.7412,-4.8252,-4.913,-2.4208,-2.4824,-2.4881,-2.5022,-2.5273,-2.5287,-2.5384,-2.5576,-2.6158,-2.6649,-2.6946,-2.7485,-2.7898,-2.8288,-2.8448,-2.8685,-2.8935,-2.9257,-2.9649,-2.9941,-3.0182,-3.1016,-3.1771,-3.2074,-3.2419,-3.2852,-3.2948,-3.2979,-3.3028,-3.3055,-3.3219,-3.3412,-3.3628,-3.3806,-3.3939,-3.4186,-3.4414,-3.4602,-3.4693,-3.4889,-3.5107,-3.5277,-3.5345,-3.5399,-3.557,-3.5678,-3.5704,-3.5833,-3.5966,-3.6007,-3.601,-3.5994,-3.5986,-3.5937,-3.5895,-3.5891,-3.5825,-3.5813,-3.5833,-3.5768,-3.5718,-3.5695,-3.5781,-3.6419,-3.8025,-3.8218,-3.9069,-4.0384,-4.0829,-4.0848,-4.0829,-4.0906,-4.0994,-4.1147,-4.1641,-4.248,-4.3535,-4.4473,-4.5332,-4.6113,-4.6289,-4.6289,-4.6289,-4.6289,-4.6289,-4.6387,-4.6719,-4.7031,-4.7187,-4.7402,-4.6816,-4.6894,-4.6914,-4.6523,-4.6289,-4.6289,-4.6836,-4.8144,-4.8359,-4.8144,-4.8125,-4.8125,-4.8326,-4.8314,-4.7344,-4.7029,-4.6889,-4.6846,-4.7256,-4.7549,-4.749,-4.7334,-4.7627,-4.8271,-4.915,-2.3577,-2.4137,-2.4234,-2.435,-2.4456,-2.4222,-2.4306,-2.4627,-2.5217,-2.5645,-2.6065,-2.6678,-2.7159,-2.7464,-2.775,-2.8046,-2.8384,-2.8889,-2.9273,-2.956,-2.9842,-3.0625,-3.1531,-3.1825,-3.2196,-3.2737,-3.2852,-3.2916,-3.2948,-3.3011,-3.3091,-3.317,-3.3382,-3.3535,-3.3625,-3.4015,-3.4271,-3.4454,-3.463,-3.4889,-3.5127,-3.5307,-3.5353,-3.5419,-3.5591,-3.5704,-3.5765,-3.5846,-3.5934,-3.5985,-3.601,-3.601,-3.6016,-3.5955,-3.5936,-3.5891,-3.586,-3.5838,-3.5811,-3.5735,-3.5708,-3.5783,-3.5955,-3.6845,-3.7967,-3.8489,-3.9417,-4.0558,-4.079,-4.081,-4.0829,-4.0887,-4.0991,-4.1211,-4.2187,-4.3086,-4.3672,-4.4824,-4.5664,-4.6152,-4.6289,-4.6289,-4.6289,-4.6289,-4.6289,-4.6367,-4.6621,-4.6621,-4.6562,-4.6875,-4.709,-4.6953,-4.6855,-4.6484,-4.6289,-4.6289,-4.6426,-4.7715,-4.8926,-4.875,-4.8887,-4.8797,-4.8594,-4.8545,-4.7978,-4.753,-4.7276,-4.7139,-4.7354,-4.7549,-4.7588,-4.7861,-4.8174,-4.8447,-4.9306,-2.2896,-2.3471,-2.3692,-2.4008,-2.4097,-2.3728,-2.3722,-2.4271,-2.4951,-2.5245,-2.5453,-2.5988,-2.6433,-2.6326,-2.7004,-2.7261,-2.7399,-2.8288,-2.8779,-2.912,-2.9544,-3.0326,-3.0931,-3.138,-3.1842,-3.242,-3.2737,-3.282,-3.2852,-3.2884,-3.2948,-3.3042,-3.3099,-3.3178,-3.3408,-3.3887,-3.4149,-3.4307,-3.4651,-3.4927,-3.5143,-3.5331,-3.5432,-3.5463,-3.5631,-3.5771,-3.5812,-3.585,-3.5899,-3.601,-3.601,-3.601,-3.6016,-3.6015,-3.5971,-3.591,-3.5878,-3.5838,-3.5747,-3.5715,-3.5715,-3.5794,-3.64,-3.7212,-3.7994,-3.8798,-3.9746,-4.0713,-4.079,-4.079,-4.081,-4.0868,-4.0937,-4.1269,-4.2519,-4.3476,-4.3984,-4.5234,-4.6289,-4.6289,-4.6289,-4.6289,-4.6289,-4.6289,-4.6289,-4.6289,-4.6504,-4.6445,-4.6367,-4.6523,-4.6601,-4.6504,-4.6426,-4.6367,-4.6289,-4.6289,-4.6465,-4.709,-4.8711,-4.9297,-4.9648,-4.95,-4.8883,-4.8486,-4.8369,-4.7939,-4.7354,-4.7354,-4.7565,-4.8096,-4.8525,-4.8662,-4.8779,-4.9013,-4.9618,-2.1839,-2.2482,-2.2555,-2.2616,-2.2702,-2.2592,-2.2592,-2.2823,-2.4047,-2.4509,-2.4794,-2.577,-2.6233,-2.6233,-2.6418,-2.6721,-2.7108,-2.75,-2.775,-2.8432,-2.9212,-2.9661,-3.0133,-3.0697,-3.149,-3.1985,-3.2318,-3.2488,-3.2621,-3.2636,-3.2816,-3.2979,-3.2993,-3.3165,-3.3327,-3.3666,-3.3961,-3.4195,-3.4542,-3.4849,-3.5072,-3.5297,-3.5449,-3.5504,-3.5721,-3.5872,-3.5937,-3.5972,-3.5966,-3.5985,-3.6013,-3.5996,-3.5996,-3.6021,-3.5976,-3.5918,-3.5892,-3.5846,-3.5775,-3.5728,-3.5708,-3.5783,-3.6497,-3.7085,-3.7576,-3.8837,-3.9843,-4.0597,-4.079,-4.079,-4.079,-4.0868,-4.0912,-4.1265,-4.2448,-4.3552,-4.3887,-4.5195,-4.6172,-4.6289,-4.6289,-4.6289,-4.6289,-4.6289,-4.6289,-4.6289,-4.6289,-4.6289,-4.6289,-4.6289,-4.6289,-4.6289,-4.6289,-4.6289,-4.6289,-4.6367,-4.6601,-4.6875,-4.8242,-4.9512,-4.9883,-5.0242,-4.9648,-4.9251,-4.9013,-4.8466,-4.7861,-4.7795,-4.8045,-4.8751,-4.9356,-4.9382,-4.9416,-4.9621,-4.9811,-2.0824,-2.1588,-2.2023,-2.2159,-2.2197,-2.2197,-2.2197,-2.2359,-2.3292,-2.3754,-2.4034,-2.5133,-2.555,-2.53,-2.5879,-2.6404,-2.6715,-2.7246,-2.7665,-2.8094,-2.8575,-2.8764,-2.9057,-2.9843,-3.0697,-3.1414,-3.175,-3.195,-3.2056,-3.2144,-3.2265,-3.2639,-3.2737,-3.293,-3.3256,-3.3615,-3.3988,-3.4213,-3.4564,-3.4831,-3.5,-3.5228,-3.5461,-3.5582,-3.5774,-3.5919,-3.5928,-3.5977,-3.5997,-3.5994,-3.5964,-3.5964,-3.5994,-3.6013,-3.5955,-3.5901,-3.5892,-3.5839,-3.5756,-3.5718,-3.5707,-3.5753,-3.6787,-3.7259,-3.7885,-3.8999,-4.0172,-4.0655,-4.079,-4.079,-4.079,-4.0829,-4.0848,-4.1202,-4.2419,-4.3411,-4.3806,-4.5137,-4.6269,-4.6289,-4.6289,-4.6289,-4.6289,-4.6289,-4.6289,-4.6289,-4.6289,-4.6289,-4.6289,-4.6289,-4.6289,-4.6289,-4.6289,-4.6289,-4.6289,-4.6445,-4.6738,-4.7129,-4.7871,-4.8965,-4.9668,-5.0103,-5.0448,-5.0035,-4.9599,-4.9189,-4.8677,-4.863,-4.8508,-4.8827,-4.9283,-4.9698,-4.9937,-4.9823,-5.0079,-1.9749,-2.0719,-2.1544,-2.1934,-2.1925,-2.1839,-2.1913,-2.2185,-2.275,-2.3088,-2.3267,-2.435,-2.4567,-2.4381,-2.5189,-2.5714,-2.6105,-2.6842,-2.7268,-2.7449,-2.7799,-2.7947,-2.8209,-2.8949,-2.9772,-3.073,-3.1167,-3.1342,-3.1476,-3.1514,-3.1861,-3.2214,-3.235,-3.2666,-3.3111,-3.3595,-3.3939,-3.4179,-3.4526,-3.4831,-3.5001,-3.52,-3.5444,-3.5704,-3.582,-3.5904,-3.5924,-3.5962,-3.6001,-3.5974,-3.5936,-3.5935,-3.5968,-3.5986,-3.5976,-3.5903,-3.587,-3.582,-3.5747,-3.5718,-3.5716,-3.5792,-3.7232,-3.7955,-3.8245,-3.9405,-4.043,-4.07,-4.0759,-4.0759,-4.0778,-4.0778,-4.0829,-4.1132,-4.2293,-4.315,-4.3737,-4.4975,-4.5781,-4.625,-4.625,-4.623,-4.6269,-4.6269,-4.6289,-4.6289,-4.6289,-4.6289,-4.6289,-4.6289,-4.6289,-4.6289,-4.6289,-4.6289,-4.6289,-4.6308,-4.6641,-4.6973,-4.7569,-4.8248,-4.9124,-4.955,-4.9898,-5.0403,-5.0106,-4.9653,-4.9386,-4.9321,-4.9211,-4.9095,-4.9458,-5.0179,-5.0217,-4.9998,-5.0343,-1.8496,-1.9814,-2.0434,-2.0747,-2.0794,-2.0565,-2.0991,-2.18,-2.2372,-2.2786,-2.298,-2.3682,-2.3975,-2.4021,-2.4137,-2.4667,-2.5231,-2.5918,-2.6187,-2.6534,-2.7056,-2.7399,-2.7333,-2.8176,-2.8857,-2.9451,-3.0218,-3.0891,-3.1106,-3.13,-3.1531,-3.1987,-3.2207,-3.2521,-3.2961,-3.3364,-3.3744,-3.4043,-3.4398,-3.4672,-3.4945,-3.5212,-3.5488,-3.5776,-3.5866,-3.5919,-3.5958,-3.5981,-3.6017,-3.5996,-3.5937,-3.5915,-3.5917,-3.5915,-3.5916,-3.5888,-3.585,-3.5787,-3.5747,-3.5747,-3.5716,-3.6063,-3.7251,-3.8411,-3.8941,-3.9895,-4.063,-4.0733,-4.07,-4.0668,-4.07,-4.0733,-4.0746,-4.1049,-4.1661,-4.2628,-4.3395,-4.4366,-4.5404,-4.5995,-4.6098,-4.6172,-4.6191,-4.623,-4.625,-4.6269,-4.6289,-4.6289,-4.6289,-4.6289,-4.6289,-4.6289,-4.6289,-4.6289,-4.6289,-4.6289,-4.6426,-4.6601,-4.7035,-4.7373,-4.8131,-4.8701,-4.9169,-4.9577,-5.0001,-4.9923,-4.9802,-4.9859,-5.0042,-5.0031,-5.0386,-5.0751,-5.0552,-5.0347,-5.0472,-1.7142,-1.8315,-1.8992,-1.9607,-1.9976,-2.0094,-2.0501,-2.1198,-2.1827,-2.2149,-2.2445,-2.2847,-2.3027,-2.304,-2.3551,-2.3975,-2.4381,-2.5034,-2.5175,-2.5342,-2.6108,-2.6481,-2.6361,-2.7384,-2.7963,-2.8543,-2.9361,-3.0182,-3.0493,-3.0576,-3.1089,-3.1664,-3.1882,-3.2243,-3.2916,-3.3314,-3.364,-3.3986,-3.4307,-3.463,-3.4908,-3.5239,-3.5496,-3.566,-3.5833,-3.5899,-3.5929,-3.599,-3.5979,-3.5957,-3.5927,-3.5899,-3.5884,-3.588,-3.5858,-3.5844,-3.5827,-3.5772,-3.5747,-3.5737,-3.5891,-3.6419,-3.751,-3.84,-3.9192,-3.9992,-4.0694,-4.0733,-4.0733,-4.07,-4.07,-4.072,-4.07,-4.0835,-4.1448,-4.2311,-4.3201,-4.409,-4.4938,-4.5772,-4.6007,-4.6105,-4.6133,-4.6152,-4.6191,-4.623,-4.6264,-4.6269,-4.6289,-4.6269,-4.6269,-4.6289,-4.6289,-4.6289,-4.6295,-4.6306,-4.6277,-4.6417,-4.6526,-4.6879,-4.7131,-4.769,-4.8178,-4.8608,-4.9052,-4.9554,-5.0071,-5.007,-5.0499,-5.081,-5.0762,-5.0703,-5.0728,-5.075,-5.0767,-1.5624,-1.6678,-1.7301,-1.8138,-1.8961,-1.9304,-1.9717,-2.0322,-2.088,-2.1094,-2.1285,-2.1616,-2.1616,-2.1639,-2.2286,-2.3037,-2.3361,-2.4137,-2.4208,-2.4381,-2.4951,-2.5245,-2.5494,-2.6279,-2.7181,-2.7434,-2.8367,-2.9198,-2.987,-3.0044,-3.0567,-3.127,-3.1537,-3.2022,-3.2852,-3.3185,-3.3585,-3.3947,-3.4279,-3.4607,-3.4997,-3.5244,-3.5458,-3.5572,-3.5781,-3.5899,-3.5938,-3.5981,-3.597,-3.5933,-3.5893,-3.588,-3.5889,-3.5842,-3.5799,-3.5794,-3.5806,-3.5743,-3.5718,-3.5697,-3.6016,-3.6717,-3.7665,-3.8446,-3.9206,-4.0056,-4.0752,-4.0733,-4.072,-4.07,-4.0687,-4.0687,-4.0687,-4.0797,-4.1318,-4.2124,-4.3032,-4.3896,-4.467,-4.5324,-4.58,-4.6009,-4.603,-4.6053,-4.6083,-4.6158,-4.6176,-4.6206,-4.6211,-4.6211,-4.6211,-4.625,-4.6269,-4.6289,-4.6301,-4.6287,-4.6253,-4.6255,-4.6273,-4.641,-4.6508,-4.6668,-4.7126,-4.7572,-4.8233,-4.8768,-4.9484,-5.0176,-5.0385,-5.0546,-5.0624,-5.0664,-5.0683,-5.0645,-5.0586,-1.3571,-1.4871,-1.4996,-1.5826,-1.6995,-1.7114,-1.7958,-1.9013,-1.9222,-1.9441,-1.9617,-1.9683,-1.9792,-1.9912,-2.0493,-2.1169,-2.1856,-2.2542,-2.3182,-2.3551,-2.4034,-2.4266,-2.431,-2.5301,-2.6105,-2.6529,-2.7449,-2.8448,-2.9273,-2.9633,-3.036,-3.1172,-3.1605,-3.2056,-3.282,-3.3078,-3.322,-3.3688,-3.3949,-3.4473,-3.5159,-3.5374,-3.5553,-3.576,-3.5889,-3.5914,-3.5958,-3.5986,-3.595,-3.5903,-3.5893,-3.5896,-3.5889,-3.5842,-3.5793,-3.5784,-3.5757,-3.5718,-3.5706,-3.5715,-3.614,-3.6969,-3.775,-3.853,-3.9425,-4.0113,-4.0631,-4.0519,-4.0554,-4.0598,-4.0626,-4.0621,-4.0648,-4.072,-4.0945,-4.1925,-4.2891,-4.3463,-4.4269,-4.5235,-4.5815,-4.5902,-4.5912,-4.5951,-4.597,-4.6042,-4.6111,-4.6124,-4.6115,-4.6105,-4.6125,-4.6147,-4.616,-4.6179,-4.6195,-4.6201,-4.6181,-4.6131,-4.6091,-4.6037,-4.6104,-4.6147,-4.6034,-4.6532,-4.7211,-4.8128,-4.9025,-4.9656,-5.0052,-5.0371,-5.0567,-5.0623,-5.0623,-5.0542,-5.0457,-1.0353,-1.2284,-1.2708,-1.3266,-1.3968,-1.4757,-1.5539,-1.6312,-1.7173,-1.7803,-1.8295,-1.8305,-1.8362,-1.8419,-1.8512,-1.9097,-2.0147,-2.0974,-2.1794,-2.264,-2.3062,-2.3539,-2.3891,-2.4684,-2.5453,-2.6011,-2.6782,-2.755,-2.8384,-2.9196,-3.0021,-3.1089,-3.149,-3.1914,-3.2719,-3.3014,-3.3393,-3.381,-3.4246,-3.4716,-3.513,-3.5361,-3.551,-3.5737,-3.5841,-3.5899,-3.5938,-3.5949,-3.5917,-3.5882,-3.5893,-3.5864,-3.5853,-3.5818,-3.5794,-3.5737,-3.5728,-3.5707,-3.5716,-3.5715,-3.6381,-3.7328,-3.8078,-3.8755,-3.9837,-4.0449,-4.066,-4.0612,-4.0612,-4.0612,-4.0598,-4.0598,-4.0598,-4.0626,-4.0706,-4.1768,-4.2695,-4.3115,-4.3796,-4.4839,-4.5746,-4.5795,-4.5844,-4.5872,-4.5905,-4.5924,-4.5976,-4.6014,-4.598,-4.5956,-4.5972,-4.5994,-4.6026,-4.6025,-4.6037,-4.6041,-4.6026,-4.5988,-4.5938,-4.5899,-4.5848,-4.5808,-4.5747,-4.5688,-4.6143,-4.7188,-4.8424,-4.9197,-4.968,-5.0125,-5.0604,-5.0563,-5.0562,-5.0457,-5.039,-0.703,-0.8835,-1.0404,-1.1224,-1.1732,-1.2891,-1.3697,-1.4356,-1.5345,-1.6131,-1.6399,-1.6234,-1.6156,-1.6459,-1.6129,-1.6565,-1.8235,-1.9023,-1.9738,-2.0617,-2.1374,-2.1784,-2.2274,-2.3293,-2.4319,-2.5425,-2.5932,-2.6649,-2.7419,-2.8258,-2.9358,-3.0858,-3.138,-3.1856,-3.2468,-3.2997,-3.3433,-3.3968,-3.4461,-3.4851,-3.5114,-3.5306,-3.5508,-3.5674,-3.5797,-3.5916,-3.5921,-3.5909,-3.5897,-3.5882,-3.5884,-3.586,-3.5823,-3.5801,-3.5775,-3.5737,-3.5728,-3.5707,-3.5697,-3.5841,-3.6632,-3.7684,-3.8762,-3.949,-4.032,-4.072,-4.072,-4.0631,-4.0612,-4.0598,-4.0617,-4.0583,-4.0617,-4.0631,-4.0651,-4.175,-4.2676,-4.3072,-4.3849,-4.508,-4.5776,-4.5761,-4.5791,-4.5819,-4.5819,-4.58,-4.5838,-4.5877,-4.5882,-4.5853,-4.5891,-4.5919,-4.5941,-4.5959,-4.5969,-4.5949,-4.5914,-4.5867,-4.5812,-4.5767,-4.5731,-4.5696,-4.5648,-4.5584,-4.555,-4.6337,-4.7622,-4.849,-4.9356,-5.0027,-5.0542,-5.05,-5.0457,-5.0367,-5.0321,-0.3902,-0.4523,-0.7973,-1.0088,-1.1409,-1.179,-1.259,-1.323,-1.375,-1.3894,-1.3777,-1.2797,-1.2855,-1.3546,-1.3322,-1.3813,-1.5651,-1.6156,-1.6884,-1.7233,-1.7446,-1.8685,-1.9931,-2.1354,-2.2347,-2.369,-2.4697,-2.5631,-2.6515,-2.7274,-2.8638,-3.017,-3.1026,-3.1774,-3.2386,-3.2865,-3.3496,-3.4031,-3.4542,-3.487,-3.5146,-3.5347,-3.554,-3.5795,-3.588,-3.5927,-3.5974,-3.5925,-3.589,-3.5884,-3.5884,-3.5878,-3.5826,-3.5793,-3.5775,-3.5757,-3.5728,-3.5707,-3.5697,-3.5811,-3.6621,-3.8035,-3.927,-4.0072,-4.0554,-4.0569,-4.0539,-4.0569,-4.0564,-4.0564,-4.0598,-4.0598,-4.0617,-4.0631,-4.0766,-4.1461,-4.2362,-4.3043,-4.3902,-4.5283,-4.5805,-4.5776,-4.5776,-4.5805,-4.5805,-4.5805,-4.581,-4.5849,-4.5829,-4.5815,-4.5852,-4.5887,-4.588,-4.5902,-4.5949,-4.5925,-4.5815,-4.578,-4.5754,-4.5693,-4.5654,-4.5603,-4.5586,-4.5586,-4.5626,-4.6184,-4.6781,-4.7818,-4.8873,-4.9965,-5.05,-5.0457,-5.0435,-5.0371,-5.0325,-0.1013,-0.1324,-0.3172,-0.5092,-0.6874,-0.7403,-0.7996,-0.866,-0.9185,-0.9697,-1.0125,-0.9373,-0.9373,-0.9898,-0.9999,-1.0551,-1.215,-1.2971,-1.4096,-1.5306,-1.586,-1.7167,-1.872,-1.9878,-2.1116,-2.2712,-2.3715,-2.4641,-2.5767,-2.639,-2.7746,-2.9159,-3.0368,-3.1291,-3.1934,-3.2773,-3.3623,-3.4246,-3.4651,-3.4943,-3.5212,-3.5406,-3.5572,-3.5807,-3.5848,-3.5909,-3.5974,-3.5921,-3.5912,-3.5894,-3.5883,-3.5859,-3.5818,-3.5812,-3.5766,-3.5747,-3.5718,-3.5687,-3.5734,-3.58,-3.6477,-3.7955,-3.9226,-4.0133,-4.0568,-4.066,-4.066,-4.0626,-4.0564,-4.0579,-4.0583,-4.0554,-4.0554,-4.0603,-4.0882,-4.1403,-4.2088,-4.2811,-4.3675,-4.4945,-4.551,-4.5746,-4.5781,-4.581,-4.581,-4.581,-4.58,-4.5804,-4.5765,-4.5746,-4.5786,-4.5805,-4.5786,-4.5771,-4.5822,-4.5761,-4.5723,-4.5692,-4.568,-4.5651,-4.5603,-4.5603,-4.5586,-4.5586,-4.5645,-4.6032,-4.659,-4.7394,-4.8369,-4.9441,-5.009,-5.0393,-5.0371,-5.0348,-5.0325,0.1169,0.1168,0.0467,-0.1166,-0.3189,-0.3803,-0.4257,-0.4711,-0.5313,-0.5838,-0.6424,-0.5977,-0.6056,-0.637,-0.5997,-0.6821,-0.8277,-0.9474,-1.087,-1.19,-1.2928,-1.4837,-1.6587,-1.7819,-1.8527,-2.0894,-2.2128,-2.2877,-2.4068,-2.534,-2.6549,-2.7847,-2.9125,-3.0079,-3.1439,-3.2559,-3.3633,-3.4416,-3.4773,-3.5015,-3.5281,-3.5432,-3.5599,-3.5774,-3.5814,-3.586,-3.5917,-3.5909,-3.5897,-3.5898,-3.5877,-3.5838,-3.5818,-3.5775,-3.5757,-3.5698,-3.5657,-3.5623,-3.5678,-3.6327,-3.7003,-3.8505,-3.9399,-4.0133,-4.0526,-4.07,-4.0626,-4.0646,-4.0612,-4.0579,-4.0588,-4.0564,-4.0564,-4.0626,-4.0626,-4.1103,-4.1947,-4.2714,-4.3564,-4.453,-4.507,-4.5761,-4.5785,-4.58,-4.5819,-4.5795,-4.5713,-4.5723,-4.5715,-4.5696,-4.5677,-4.5696,-4.5703,-4.5671,-4.5637,-4.5651,-4.5665,-4.5648,-4.5635,-4.5618,-4.5603,-4.5586,-4.5568,-4.555,-4.5647,-4.586,-4.6263,-4.6817,-4.7831,-4.8939,-4.9586,-5.0252,-5.0348,-5.0325,-5.0325,0.2497,0.2647,0.2186,0.0543,-0.1312,-0.1851,-0.2233,-0.2766,-0.2993,-0.322,-0.3377,-0.2236,-0.2546,-0.3467,-0.2549,-0.3233,-0.4599,-0.567,-0.6655,-0.7714,-0.8618,-1.0512,-1.2374,-1.3792,-1.5352,-1.7273,-1.8992,-2.0545,-2.1886,-2.3211,-2.4706,-2.6356,-2.7661,-2.9038,-3.0558,-3.19,-3.3198,-3.4325,-3.4672,-3.4981,-3.5216,-3.5405,-3.5637,-3.5728,-3.5802,-3.5851,-3.5896,-3.5913,-3.5892,-3.59,-3.5818,-3.5799,-3.581,-3.5718,-3.5699,-3.5699,-3.5519,-3.5483,-3.5578,-3.7095,-3.8163,-3.9006,-3.9733,-4.0246,-4.0438,-4.0534,-4.0583,-4.0646,-4.0622,-4.0598,-4.0579,-4.0588,-4.0607,-4.0593,-4.0612,-4.0819,-4.1644,-4.2391,-4.3168,-4.3994,-4.4984,-4.5786,-4.58,-4.5808,-4.5808,-4.5765,-4.5655,-4.5641,-4.5661,-4.5648,-4.5648,-4.5632,-4.5637,-4.564,-4.5622,-4.5603,-4.5603,-4.5586,-4.5586,-4.5586,-4.5586,-4.5568,-4.555,-4.5513,-4.5515,-4.5611,-4.5822,-4.6106,-4.725,-4.8414,-4.9484,-5.0115,-5.0206,-5.0302,-5.0302,0.5378,0.5529,0.5297,0.4737,0.3714,0.1552,0.0466,0.0233,0.0233,0.0155,0.0078,0.0701,0.0622,0.0155,-0.0155,-0.0232,-0.1005,-0.201,-0.2857,-0.4,-0.4225,-0.6228,-0.8185,-1.0142,-1.1864,-1.425,-1.6256,-1.8147,-2.0392,-2.102,-2.282,-2.4667,-2.6937,-2.9054,-3.0874,-3.2353,-3.3524,-3.4208,-3.4632,-3.4925,-3.513,-3.5438,-3.565,-3.5734,-3.5825,-3.587,-3.5877,-3.5885,-3.5878,-3.5868,-3.5784,-3.5737,-3.5747,-3.5669,-3.562,-3.5649,-3.5581,-3.6001,-3.6622,-3.7751,-3.842,-3.9199,-3.9747,-4.0216,-4.0552,-4.064,-4.066,-4.0646,-4.0636,-4.0598,-4.0583,-4.0569,-4.0554,-4.0534,-4.0554,-4.0607,-4.1161,-4.1832,-4.256,-4.34,-4.4351,-4.5288,-4.566,-4.5754,-4.5777,-4.5761,-4.5677,-4.5642,-4.5673,-4.5637,-4.5601,-4.5601,-4.5603,-4.5622,-4.5622,-4.5603,-4.5586,-4.5586,-4.5586,-4.5586,-4.5586,-4.5568,-4.555,-4.5495,-4.5381,-4.5323,-4.547,-4.5783,-4.68,-4.7888,-4.8781,-4.9663,-4.9964,-5.014,-5.0302,0.8129,0.8566,0.8339,0.8481,0.8161,0.5192,0.3816,0.3891,0.4119,0.4117,0.3964,0.4115,0.4185,0.3951,0.3637,0.3321,0.3165,0.2233,0.1002,0.0,0.0228,-0.1964,-0.4355,-0.5725,-0.6814,-0.936,-1.1352,-1.3239,-1.458,-1.7227,-2.0217,-2.3475,-2.6444,-2.8482,-3.0401,-3.18,-3.3506,-3.419,-3.4718,-3.4988,-3.5273,-3.5538,-3.5693,-3.5738,-3.5798,-3.584,-3.5841,-3.5852,-3.5845,-3.5793,-3.5737,-3.5687,-3.5667,-3.5554,-3.5488,-3.5495,-3.5501,-3.614,-3.7168,-3.7578,-3.838,-3.9638,-3.9758,-4.0108,-4.0571,-4.0593,-4.0631,-4.0631,-4.0617,-4.0598,-4.0569,-4.0539,-4.0554,-4.0534,-4.0569,-4.0622,-4.0844,-4.1547,-4.2285,-4.3106,-4.4017,-4.4858,-4.5568,-4.5654,-4.5742,-4.5709,-4.5676,-4.5678,-4.5624,-4.555,-4.5531,-4.5531,-4.5513,-4.5475,-4.5513,-4.5603,-4.5586,-4.5586,-4.5568,-4.5531,-4.5568,-4.5569,-4.5532,-4.5457,-4.5225,-4.5039,-4.5038,-4.548,-4.6268,-4.7014,-4.7786,-4.8667,-4.9529,-4.9877,-5.0059,1.0558,1.1713,1.1242,1.1357,1.1411,0.89,0.7744,0.7672,0.8339,0.8183,0.7571,0.8152,0.8063,0.8001,0.8227,0.7992,0.7522,0.6568,0.5494,0.4644,0.4672,0.2033,0.0902,0.0223,-0.0958,-0.2682,-0.4678,-0.6369,-0.7166,-1.171,-1.672,-2.0997,-2.4271,-2.6244,-2.8058,-3.0898,-3.2903,-3.4088,-3.4658,-3.4952,-3.527,-3.5621,-3.5718,-3.5763,-3.5784,-3.5777,-3.5782,-3.5781,-3.5768,-3.5718,-3.5626,-3.5589,-3.5496,-3.5321,-3.5262,-3.5168,-3.5051,-3.6004,-3.7128,-3.7414,-3.8365,-3.9623,-4.0164,-4.0403,-4.0519,-4.0534,-4.0583,-4.0598,-4.0603,-4.0564,-4.0564,-4.0598,-4.0646,-4.0626,-4.0626,-4.0731,-4.0868,-4.1428,-4.2193,-4.3067,-4.4045,-4.4874,-4.5475,-4.5673,-4.5714,-4.569,-4.5673,-4.564,-4.5549,-4.5343,-4.5343,-4.5438,-4.5381,-4.5303,-4.5342,-4.5362,-4.54,-4.5342,-4.5438,-4.5438,-4.5476,-4.5533,-4.5515,-4.5361,-4.4992,-4.4872,-4.4991,-4.5171,-4.5506,-4.6225,-4.6987,-4.7786,-4.8715,-4.9378,-4.9638,1.258,1.2615,1.3393,1.3592,1.3279,1.2732,1.1846,1.0851,1.0991,1.0839,1.0686,1.0912,1.0783,1.0137,1.0142,0.9942,0.9494,0.904,0.8851,0.8718,0.8998,0.8176,0.7228,0.619,0.5204,0.3867,0.2027,0.0,-0.3224,-0.7338,-0.9808,-1.2869,-1.8929,-2.1615,-2.4729,-2.9164,-3.1073,-3.3271,-3.3674,-3.4864,-3.522,-3.5573,-3.5664,-3.5757,-3.5798,-3.5759,-3.5703,-3.5714,-3.5698,-3.5696,-3.5533,-3.5485,-3.5635,-3.5457,-3.5315,-3.5133,-3.515,-3.5571,-3.6852,-3.727,-3.7993,-3.934,-3.9925,-4.0212,-4.0353,-4.0489,-4.05,-4.0504,-4.0539,-4.0519,-4.0438,-4.0457,-4.0473,-4.0454,-4.0469,-4.0573,-4.0694,-4.0982,-4.1784,-4.298,-4.397,-4.4822,-4.5418,-4.5685,-4.5686,-4.5695,-4.5671,-4.562,-4.5475,-4.5265,-4.5206,-4.5303,-4.5182,-4.5074,-4.4943,-4.4943,-4.503,-4.5096,-4.5161,-4.5263,-4.5341,-4.54,-4.5438,-4.5239,-4.4811,-4.4877,-4.5109,-4.5224,-4.5209,-4.5592,-4.626,-4.7079,-4.7834,-4.8637,-4.9214,1.5286,1.5443,1.6478,1.6945,1.6973,1.7214,1.6665,1.5618,1.4144,1.3401,1.3258,1.3558,1.3423,1.3158,1.3165,1.2949,1.2739,1.2978,1.2784,1.2534,1.3461,1.2777,1.2157,1.164,1.0796,0.9634,0.8518,0.6941,0.3327,-0.0779,-0.3753,-0.6946,-1.2536,-1.422,-1.6108,-1.8531,-2.3079,-2.7481,-3.1289,-3.3975,-3.5149,-3.5535,-3.5713,-3.578,-3.5819,-3.5724,-3.5648,-3.5658,-3.5666,-3.5613,-3.5411,-3.5268,-3.5311,-3.5117,-3.5086,-3.4925,-3.4908,-3.5434,-3.6411,-3.7005,-3.7868,-3.879,-3.9532,-3.9859,-4.0081,-4.0232,-4.0285,-4.0339,-4.0389,-4.0425,-4.0321,-4.0251,-4.0233,-4.0195,-4.025,-4.0319,-4.0438,-4.0549,-4.1562,-4.2808,-4.3829,-4.4704,-4.5258,-4.5492,-4.5687,-4.5688,-4.5667,-4.5608,-4.5438,-4.5182,-4.5142,-4.5222,-4.5011,-4.48,-4.4701,-4.4676,-4.48,-4.4872,-4.483,-4.4943,-4.5094,-4.5068,-4.4995,-4.4819,-4.46,-4.4707,-4.4814,-4.4891,-4.4967,-4.5308,-4.5616,-4.6263,-4.7194,-4.8267,-4.8713,1.8342,1.9038,1.9976,2.0542,2.1542,2.133,2.1318,2.1381,1.7917,1.607,1.5983,1.6462,1.6711,1.645,1.645,1.656,1.6455,1.6624,1.6698,1.6038,1.7398,1.7273,1.6637,1.6398,1.5686,1.478,1.4179,1.3757,1.2012,0.8053,0.3078,-0.1361,-0.3633,-0.5295,-0.6706,-0.8281,-1.2877,-1.9029,-2.6074,-3.1254,-3.4614,-3.5689,-3.5868,-3.5813,-3.574,-3.5666,-3.5654,-3.5655,-3.5637,-3.5488,-3.4994,-3.4639,-3.421,-3.4637,-3.4656,-3.4591,-3.4505,-3.5071,-3.5833,-3.6512,-3.7287,-3.8222,-3.9105,-3.94,-3.9614,-4.0022,-4.0139,-4.012,-4.0157,-4.012,-4.0061,-4.0021,-3.9982,-3.9962,-3.9982,-4.0101,-4.0285,-4.0666,-4.1628,-4.2789,-4.3696,-4.4511,-4.4872,-4.5095,-4.5198,-4.5423,-4.5392,-4.532,-4.5279,-4.5011,-4.5074,-4.5096,-4.4896,-4.4701,-4.4624,-4.4624,-4.4676,-4.4701,-4.458,-4.4606,-4.4751,-4.4643,-4.4486,-4.4363,-4.4248,-4.4271,-4.4346,-4.4519,-4.4695,-4.4833,-4.5155,-4.5542,-4.6433,-4.7562,-4.8219,2.0403,2.0233,2.0928,2.1717,2.2274,2.1954,2.2335,2.3059,2.1725,2.0579,2.0158,2.0116,1.9911,1.9468,1.9337,1.9469,1.9703,1.9512,2.0183,2.0302,2.1105,2.1242,2.0723,2.0522,2.0221,2.0358,2.0251,1.9862,1.7926,1.4815,1.2401,1.0278,0.7134,0.4267,0.2373,0.0752,-0.3603,-0.9623,-1.5717,-2.4754,-3.1345,-3.453,-3.5832,-3.57,-3.5606,-3.5302,-3.52,-3.5047,-3.5403,-3.554,-3.3716,-3.2711,-3.1936,-3.3519,-3.4074,-3.3938,-3.3681,-3.4308,-3.5043,-3.5869,-3.684,-3.7664,-3.8433,-3.8709,-3.9082,-3.9687,-3.9963,-3.9882,-3.9861,-3.9835,-3.981,-3.9769,-3.9747,-3.9743,-3.9721,-3.992,-4.012,-4.0917,-4.1743,-4.2616,-4.3555,-4.4062,-4.4433,-4.4617,-4.4707,-4.4688,-4.4592,-4.4564,-4.4754,-4.4675,-4.4896,-4.4938,-4.4795,-4.4643,-4.4519,-4.4419,-4.4419,-4.4355,-4.426,-4.4299,-4.4383,-4.427,-4.4154,-4.4018,-4.3915,-4.4005,-4.4143,-4.4374,-4.4503,-4.4595,-4.4664,-4.504,-4.5556,-4.6544,-4.7325,2.1894,2.1646,2.2396,2.304,2.3433,2.3382,2.3916,2.4576,2.4393,2.4138,2.3709,2.2971,2.2238,2.1824,2.1725,2.1738,2.1922,2.185,2.2446,2.3193,2.395,2.4449,2.4419,2.4236,2.4229,2.4366,2.4559,2.4015,2.2841,2.0684,1.8594,1.8358,1.5612,1.4047,1.2412,1.0682,0.6829,0.0745,-0.3887,-1.1938,-2.3612,-2.9512,-3.4925,-3.5687,-3.5405,-3.4527,-3.2107,-3.1607,-3.1016,-3.1312,-3.0248,-2.9733,-2.9362,-3.0057,-3.0797,-3.1175,-3.1685,-3.2883,-3.3641,-3.48,-3.6047,-3.679,-3.8125,-3.8548,-3.8707,-3.9231,-3.9333,-3.9308,-3.9637,-3.9675,-3.9651,-3.9604,-3.9647,-3.9665,-3.9684,-3.9781,-4.0097,-4.0666,-4.1425,-4.2197,-4.3015,-4.3583,-4.3932,-4.4117,-4.4204,-4.4288,-4.4116,-4.3992,-4.4162,-4.4371,-4.4587,-4.4701,-4.4546,-4.4318,-4.4053,-4.4023,-4.4065,-4.3962,-4.3936,-4.3892,-4.3936,-4.3931,-4.3869,-4.372,-4.3683,-4.3862,-4.4023,-4.4143,-4.4346,-4.4448,-4.4468,-4.4528,-4.5107,-4.5705,-4.6652,2.3043,2.3187,2.3929,2.4483,2.4821,2.53,2.5821,2.6299,2.6448,2.6755,2.6973,2.5256,2.4388,2.383,2.3625,2.3522,2.3715,2.4249,2.4874,2.584,2.6542,2.6766,2.6966,2.7175,2.7025,2.7167,2.7456,2.7565,2.7189,2.5199,2.4133,2.4287,2.4564,2.4594,2.5551,2.5687,2.2158,1.4416,0.8612,0.344,-0.9053,-2.305,-2.8924,-3.2272,-3.3315,-3.1116,-2.7626,-2.5315,-2.4244,-2.5344,-2.6152,-2.6047,-2.5924,-2.6224,-2.6823,-2.7408,-2.8853,-2.979,-3.092,-3.3002,-3.4276,-3.5551,-3.7198,-3.7766,-3.7582,-3.7703,-3.7816,-3.8206,-3.8524,-3.9212,-3.9178,-3.9223,-3.9242,-3.9395,-3.942,-3.9533,-3.9902,-4.034,-4.1041,-4.1777,-4.2473,-4.3083,-4.3503,-4.368,-4.3738,-4.3793,-4.3751,-4.3689,-4.3699,-4.3959,-4.4204,-4.4252,-4.4213,-4.3931,-4.3777,-4.3744,-4.3836,-4.3758,-4.3697,-4.355,-4.3465,-4.3563,-4.3545,-4.3426,-4.3461,-4.3612,-4.3712,-4.3758,-4.3992,-4.4154,-4.4067,-4.405,-4.4646,-4.5321,-4.625,2.4368,2.4771,2.4959,2.5345,2.5929,2.6293,2.6931,2.7728,2.7939,2.8513,2.8976,2.8914,2.7753,2.5725,2.5765,2.5923,2.6387,2.6762,2.8042,2.9323,2.8435,2.8635,2.8952,2.8974,2.9006,2.9381,2.9909,3.0022,2.9862,2.9148,2.8698,2.8455,2.982,2.9543,2.8327,2.8883,2.8401,2.2617,1.9402,1.4525,0.6513,-0.5921,-1.6522,-2.0162,-2.2108,-2.0952,-1.9356,-1.7781,-1.7955,-1.9493,-2.1814,-2.1995,-2.1898,-2.1995,-2.2807,-2.3362,-2.4878,-2.6199,-2.7567,-2.9626,-3.0839,-3.1513,-3.269,-3.347,-3.3587,-3.4013,-3.4314,-3.5019,-3.5793,-3.7582,-3.7925,-3.8022,-3.8123,-3.8517,-3.8681,-3.8998,-3.9332,-3.9891,-4.05,-4.1267,-4.2038,-4.276,-4.3483,-4.3529,-4.341,-4.3419,-4.3314,-4.3251,-4.317,-4.3472,-4.3735,-4.3735,-4.3703,-4.4035,-4.4084,-4.3693,-4.366,-4.3579,-4.3461,-4.3376,-4.3323,-4.3251,-4.3214,-4.3178,-4.3178,-4.3286,-4.3356,-4.3461,-4.3461,-4.3594,-4.3442,-4.3559,-4.4181,-4.504,-4.6066]}]]